[[{"header":{"parameterUnit":"m.s-1","parameterCategory":1,"la1":30.6,"la2":29.2853,"lo1":-89.7004,"lo2":-87.6739,"dx":0.0162,"dy":0.0183,"nx":112,"ny":82,"refTime":"2022-12-23T06:00:00:Z","depth":0,"parameterNumber":2,"parameterNumberName":"U-component_of_WINDS"},"data":[0.0,0.0,0.0,0.0,0.0,0.0,0.0,0.0,0.0,0.0,0.0,0.0,0.0,0.0,0.0,0.0,0.0,0.0,0.0,0.0,0.0,0.0,0.0,0.0,0.0,0.0,0.0,0.0,0.0,0.0,0.0,0.0,0.0,0.0,0.0,0.0,0.0,0.0,0.0,0.0,0.0,0.0,0.0,0.0,0.0,0.0,0.0,0.0,0.0,0.0,0.0,0.0,0.0,0.0,0.0,0.0,0.0,0.0,0.0,0.0,0.0,0.0,0.0,0.0,0.0,0.0,0.0,0.0,0.0,0.0,0.0,0.0,0.0,0.0,0.0,0.0,0.0,0.0,0.0,0.0,0.0,0.0,0.0,0.0,0.0,0.0,0.0,0.0,0.0,0.0,-2.7287,-3.0825,-3.3541,-3.4442,-3.2852,-3.1467,-2.9175,-2.5625,0.0,0.0,0.0,0.0,0.0,0.0,0.0,0.0,0.0,0.0,0.0,0.0,0.0,0.0,0.0,0.0,0.0,0.0,0.0,0.0,0.0,0.0,0.0,0.0,0.0,0.0,0.0,0.0,0.0,0.0,0.0,0.0,0.0,0.0,0.0,0.0,0.0,0.0,0.0,0.0,0.0,0.0,0.0,0.0,0.0,0.0,0.0,0.0,0.0,0.0,0.0,0.0,0.0,0.0,0.0,0.0,0.0,0.0,0.0,0.0,0.0,0.0,0.0,0.0,0.0,0.0,0.0,0.0,0.0,0.0,0.0,0.0,0.0,0.0,0.0,0.0,0.0,0.0,0.0,0.0,0.0,0.0,0.0,0.0,0.0,0.0,0.0,0.0,0.0,0.0,0.0,0.0,0.0,0.0,0.0,0.0,0.0,0.0,0.0,0.0,0.0,0.0,0.0,0.0,-2.683,-3.124,-3.3733,-3.4361,-3.253,-3.1904,-2.9823,-2.566,0.0,0.0,0.0,0.0,0.0,0.0,0.0,0.0,0.0,0.0,0.0,0.0,0.0,0.0,0.0,0.0,0.0,0.0,0.0,0.0,0.0,0.0,0.0,0.0,0.0,0.0,0.0,0.0,0.0,0.0,0.0,0.0,0.0,0.0,0.0,0.0,0.0,0.0,0.0,0.0,0.0,0.0,0.0,0.0,0.0,0.0,0.0,0.0,0.0,0.0,0.0,0.0,0.0,0.0,0.0,0.0,0.0,0.0,0.0,0.0,0.0,0.0,0.0,0.0,0.0,0.0,0.0,0.0,0.0,0.0,0.0,0.0,0.0,0.0,0.0,0.0,0.0,0.0,0.0,0.0,0.0,0.0,0.0,0.0,0.0,0.0,0.0,0.0,0.0,0.0,0.0,0.0,0.0,0.0,0.0,0.0,0.0,0.0,0.0,0.0,0.0,0.0,0.0,-2.7557,-2.9946,-3.2847,-3.2415,-3.2194,-3.2928,-3.0335,-2.7758,-2.5638,-2.4319,0.0,0.0,0.0,0.0,0.0,0.0,0.0,0.0,0.0,0.0,0.0,0.0,0.0,0.0,0.0,0.0,0.0,0.0,0.0,0.0,0.0,0.0,0.0,0.0,0.0,0.0,0.0,0.0,0.0,0.0,0.0,0.0,0.0,0.0,0.0,0.0,0.0,0.0,0.0,0.0,0.0,0.0,0.0,0.0,0.0,0.0,0.0,0.0,0.0,0.0,0.0,0.0,0.0,0.0,0.0,0.0,0.0,0.0,0.0,0.0,0.0,0.0,0.0,0.0,0.0,0.0,0.0,0.0,0.0,0.0,0.0,0.0,0.0,0.0,0.0,0.0,0.0,0.0,0.0,0.0,0.0,0.0,0.0,0.0,0.0,0.0,0.0,0.0,0.0,0.0,0.0,0.0,0.0,0.0,0.0,0.0,0.0,0.0,0.0,0.0,0.0,0.0,-2.9943,-3.2131,-3.2748,-3.0659,-3.0,-3.1944,-2.8585,-2.6114,-2.5588,-2.4862,0.0,0.0,0.0,0.0,0.0,0.0,0.0,0.0,0.0,0.0,0.0,0.0,0.0,0.0,0.0,0.0,0.0,0.0,0.0,0.0,0.0,0.0,0.0,0.0,0.0,0.0,0.0,0.0,0.0,0.0,0.0,0.0,0.0,0.0,0.0,0.0,0.0,0.0,0.0,0.0,0.0,0.0,0.0,0.0,0.0,0.0,0.0,0.0,0.0,0.0,0.0,0.0,0.0,0.0,0.0,0.0,0.0,0.0,0.0,0.0,0.0,0.0,0.0,0.0,0.0,0.0,0.0,0.0,0.0,0.0,0.0,0.0,0.0,0.0,0.0,0.0,0.0,0.0,0.0,0.0,0.0,0.0,0.0,0.0,0.0,0.0,0.0,0.0,0.0,0.0,0.0,0.0,0.0,0.0,0.0,0.0,0.0,0.0,0.0,0.0,0.0,0.0,-2.9586,-3.0535,-2.8653,-2.8921,-2.8802,-2.7826,-2.754,-2.6836,-2.5498,-2.5459,0.0,0.0,0.0,0.0,0.0,0.0,0.0,0.0,0.0,0.0,0.0,0.0,0.0,0.0,0.0,0.0,0.0,0.0,0.0,0.0,0.0,0.0,0.0,0.0,0.0,0.0,0.0,0.0,0.0,0.0,0.0,0.0,0.0,0.0,0.0,0.0,0.0,0.0,0.0,0.0,0.0,0.0,0.0,0.0,0.0,0.0,0.0,0.0,0.0,0.0,0.0,0.0,0.0,0.0,0.0,0.0,0.0,0.0,0.0,0.0,0.0,0.0,0.0,0.0,0.0,0.0,0.0,0.0,0.0,0.0,0.0,0.0,0.0,0.0,0.0,0.0,0.0,0.0,0.0,0.0,0.0,0.0,0.0,0.0,0.0,0.0,0.0,0.0,0.0,0.0,0.0,0.0,0.0,0.0,0.0,0.0,0.0,0.0,0.0,0.0,0.0,0.0,-2.7374,-2.7896,-2.8255,-2.4393,-2.2165,-2.3098,-2.3203,-2.2912,-2.2212,0.0,0.0,0.0,0.0,0.0,0.0,0.0,0.0,0.0,0.0,0.0,0.0,0.0,0.0,0.0,0.0,0.0,0.0,0.0,0.0,0.0,0.0,0.0,0.0,0.0,0.0,0.0,0.0,0.0,0.0,0.0,0.0,0.0,0.0,0.0,0.0,0.0,0.0,0.0,0.0,0.0,0.0,0.0,0.0,0.0,0.0,0.0,0.0,0.0,0.0,0.0,0.0,0.0,0.0,0.0,0.0,0.0,0.0,0.0,0.0,0.0,0.0,0.0,0.0,0.0,0.0,0.0,0.0,0.0,0.0,0.0,0.0,0.0,0.0,0.0,0.0,0.0,0.0,0.0,0.0,0.0,0.0,0.0,0.0,0.0,0.0,0.0,0.0,0.0,0.0,0.0,0.0,0.0,0.0,0.0,0.0,0.0,0.0,0.0,0.0,0.0,0.0,-2.5968,-2.5265,-2.481,-2.5488,-2.0194,-1.7144,-1.846,-1.7987,-1.8356,-2.0096,0.0,0.0,0.0,0.0,0.0,0.0,0.0,0.0,0.0,0.0,0.0,0.0,0.0,0.0,0.0,0.0,0.0,0.0,0.0,0.0,0.0,0.0,0.0,0.0,0.0,0.0,0.0,0.0,0.0,0.0,0.0,0.0,0.0,0.0,0.0,0.0,0.0,0.0,0.0,0.0,0.0,0.0,0.0,0.0,0.0,0.0,0.0,0.0,0.0,0.0,0.0,0.0,0.0,0.0,0.0,0.0,0.0,0.0,0.0,0.0,0.0,0.0,0.0,0.0,0.0,0.0,0.0,0.0,0.0,0.0,0.0,0.0,0.0,0.0,0.0,0.0,0.0,0.0,0.0,0.0,0.0,0.0,0.0,0.0,0.0,0.0,0.0,0.0,0.0,0.0,0.0,0.0,0.0,0.0,0.0,0.0,0.0,0.0,0.0,0.0,0.0,0.0,-2.5052,-2.3426,-2.1316,-1.9404,-1.6756,-1.4802,-1.3961,-1.2261,-1.3705,0.0,0.0,0.0,0.0,0.0,0.0,0.0,0.0,0.0,0.0,0.0,0.0,0.0,0.0,0.0,0.0,0.0,0.0,0.0,0.0,0.0,0.0,0.0,0.0,0.0,0.0,0.0,0.0,0.0,0.0,0.0,0.0,0.0,0.0,0.0,0.0,0.0,0.0,0.0,0.0,0.0,0.0,0.0,0.0,0.0,0.0,0.0,0.0,0.0,0.0,0.0,0.0,0.0,0.0,0.0,0.0,0.0,0.0,0.0,0.0,0.0,0.0,0.0,0.0,0.0,0.0,0.0,0.0,0.0,0.0,0.0,0.0,0.0,0.0,0.0,0.0,0.0,0.0,0.0,0.0,0.0,0.0,0.0,0.0,0.0,0.0,0.0,0.0,0.0,0.0,0.0,0.0,0.0,0.0,0.0,0.0,0.0,0.0,0.0,0.0,0.0,0.0,0.0,-2.4517,-2.0869,-1.7974,-1.7871,-1.3958,-1.0708,-0.8966,-0.9831,-0.876,-0.4735,0.0,0.0,0.0,0.0,0.0,0.0,0.0,0.0,0.0,0.0,0.0,0.0,0.0,0.0,0.0,0.0,0.0,0.0,0.0,0.0,0.0,0.0,0.0,0.0,0.0,0.0,0.0,0.0,0.0,0.0,0.0,0.0,0.0,0.0,0.0,0.0,0.0,0.0,0.0,0.0,0.0,0.0,0.0,0.0,0.0,0.0,0.0,0.0,0.0,0.0,0.0,0.0,0.0,0.0,0.0,0.0,0.0,0.0,0.0,0.0,0.0,0.0,0.0,0.0,0.0,0.0,0.0,0.0,0.0,0.0,0.0,0.0,0.0,0.0,0.0,0.0,0.0,0.0,0.0,0.0,0.0,0.0,0.0,0.0,0.0,0.0,0.0,0.0,0.0,0.0,0.0,0.0,0.0,0.0,0.0,0.0,0.0,0.0,0.0,0.0,0.0,0.0,-2.2943,-1.8652,-1.5407,-1.5499,-1.1883,-0.8818,-0.7234,-0.615,-0.3194,0.225,0.0,0.0,0.0,0.0,0.0,0.0,0.0,0.0,0.0,0.0,0.0,0.0,0.0,0.0,0.0,0.0,0.0,0.0,0.0,0.0,0.0,0.0,0.0,0.0,0.0,0.0,0.0,0.0,0.0,0.0,0.0,0.0,0.0,0.0,0.0,0.0,0.0,0.0,0.0,0.0,0.0,0.0,0.0,0.0,0.0,0.0,0.0,0.0,0.0,0.0,0.0,0.0,0.0,0.0,0.0,0.0,0.0,0.0,0.0,0.0,0.0,0.0,0.0,0.0,0.0,0.0,0.0,0.0,0.0,0.0,0.0,0.0,0.0,0.0,0.0,0.0,0.0,0.0,0.0,0.0,0.0,0.0,0.0,0.0,0.0,0.0,0.0,0.0,0.0,0.0,0.0,0.0,0.0,0.0,0.0,0.0,0.0,0.0,0.0,0.0,0.0,0.0,-2.0982,-1.6771,-1.342,-1.2782,-1.0337,-0.8313,-0.7138,-0.1756,0.2244,0.3773,0.0,0.0,0.0,0.0,0.0,0.0,0.0,0.0,0.0,0.0,0.0,0.0,0.0,0.0,0.0,0.0,0.0,0.0,0.0,0.0,0.0,0.0,0.0,0.0,0.0,0.0,0.0,0.0,0.0,0.0,0.0,0.0,0.0,0.0,0.0,0.0,0.0,0.0,0.0,0.0,0.0,0.0,0.0,0.0,0.0,0.0,0.0,0.0,0.0,0.0,0.0,0.0,0.0,0.0,0.0,0.0,0.0,0.0,0.0,0.0,-2.3098,-2.1419,0.0,0.0,0.0,0.0,0.0,0.0,0.0,0.0,0.0,0.0,0.0,0.0,0.0,0.0,0.0,0.0,0.0,0.0,0.0,0.0,0.0,0.0,0.0,0.0,0.0,0.0,0.0,0.0,0.0,0.0,0.0,0.0,0.0,0.0,0.0,0.0,0.0,0.0,0.0,0.0,-2.1549,-1.543,-1.1025,-1.1528,-0.9485,-0.6436,-0.2056,0.0246,0.3341,0.7717,0.8446,0.0,0.0,0.0,0.0,0.0,0.0,0.0,0.0,0.0,0.0,0.0,0.0,0.0,0.0,0.0,0.0,0.0,0.0,0.0,0.0,0.0,0.0,0.0,0.0,0.0,0.0,0.0,0.0,0.0,0.0,0.0,0.0,0.0,0.0,0.0,0.0,0.0,0.0,0.0,0.0,0.0,0.0,0.0,0.0,0.0,0.0,0.0,0.0,0.0,0.0,0.0,0.0,0.0,0.0,0.0,0.0,0.0,0.0,0.0,-2.575,-2.4058,0.0,0.0,0.0,0.0,0.0,0.0,0.0,0.0,0.0,0.0,0.0,0.0,0.0,0.0,0.0,0.0,0.0,0.0,0.0,0.0,0.0,0.0,0.0,0.0,0.0,0.0,0.0,0.0,0.0,0.0,0.0,0.0,0.0,0.0,0.0,0.0,0.0,0.0,0.0,0.0,-2.1318,-1.4836,-1.0175,-1.074,-0.9423,-0.674,-0.2069,0.2938,0.7075,1.01,1.1173,0.0,0.0,0.0,0.0,0.0,0.0,0.0,0.0,0.0,0.0,0.0,0.0,0.0,0.0,0.0,0.0,0.0,0.0,0.0,0.0,0.0,0.0,0.0,0.0,0.0,0.0,0.0,0.0,0.0,0.0,0.0,0.0,0.0,0.0,0.0,0.0,0.0,0.0,0.0,0.0,0.0,0.0,0.0,0.0,0.0,0.0,0.0,0.0,0.0,0.0,0.0,0.0,0.0,-3.0414,-3.0865,-3.1329,-3.0572,-3.0696,-3.1428,-2.8746,-2.717,-2.6387,-2.4857,0.0,0.0,0.0,0.0,0.0,0.0,0.0,0.0,0.0,0.0,0.0,0.0,0.0,0.0,0.0,0.0,0.0,0.0,0.0,0.0,0.0,0.0,-1.4636,-0.967,-0.5476,-0.4968,-1.3506,0.0,0.0,0.0,0.0,0.0,0.0,0.0,0.0,0.0,0.0,0.0,-1.9516,-1.3677,-0.9412,-0.9555,-0.8491,-0.6298,-0.2677,0.5573,1.1035,1.2099,1.4049,1.5891,0.0,0.0,0.0,0.0,0.0,0.0,0.0,0.0,0.0,0.0,0.0,0.0,0.0,0.0,0.0,0.0,0.0,0.0,0.0,0.0,0.0,0.0,0.0,0.0,0.0,0.0,0.0,0.0,0.0,0.0,0.0,0.0,-2.1394,-2.2278,0.0,0.0,0.0,0.0,0.0,0.0,0.0,0.0,0.0,0.0,0.0,0.0,0.0,-2.8989,-2.838,-3.0538,-3.1354,-3.079,-3.247,-3.3688,-3.441,-3.4008,-3.4291,-3.5054,-3.3656,0.0,-2.8883,-2.7962,0.0,0.0,0.0,0.0,0.0,0.0,0.0,0.0,0.0,0.0,0.0,0.0,0.0,0.0,0.0,0.0,0.0,0.0,0.0,0.0,0.0,0.0,-0.6069,-0.8018,-0.6528,-0.6352,-1.2541,-1.4457,-1.4857,-1.4614,-1.6277,-1.8387,0.0,0.0,0.0,0.0,0.0,0.0,-1.399,-0.9702,-0.6909,-0.6721,-0.3784,-0.071,0.2103,0.7275,1.1822,1.5033,1.57,1.7725,2.1644,2.1369,0.0,0.0,0.0,0.0,0.0,0.0,0.0,0.0,0.0,0.0,0.0,0.0,0.0,0.0,0.0,0.0,0.0,0.0,0.0,0.0,0.0,0.0,0.0,0.0,0.0,0.0,0.0,0.0,0.0,-2.0598,-2.2374,-2.3842,-2.3726,-2.3486,0.0,0.0,0.0,0.0,0.0,0.0,0.0,0.0,0.0,-2.932,-3.018,-3.0814,-3.1236,-3.2633,-3.3165,-3.2804,-3.3653,-3.461,-3.565,-3.4866,-3.5092,-3.6083,-3.494,-3.365,-3.2246,-3.0324,-2.9057,-2.8257,0.0,0.0,0.0,0.0,-2.6474,-2.6343,-2.6292,-2.6483,-2.6627,-2.6272,0.0,0.0,0.0,0.0,0.0,0.0,0.0,-2.5566,-2.6714,-1.8622,-1.1118,-1.4525,-1.3046,-1.1369,-1.3185,-1.481,-1.5326,-1.331,-1.4519,-1.6903,-2.0154,-2.0691,0.0,0.0,0.0,-1.379,-1.3682,-0.8822,-0.4122,-0.0695,0.1318,0.3976,0.7937,1.2403,1.536,1.606,1.8117,2.0587,2.3533,2.3339,2.3998,0.0,0.0,0.0,0.0,0.0,0.0,0.0,0.0,0.0,0.0,0.0,0.0,0.0,0.0,0.0,0.0,0.0,0.0,0.0,0.0,0.0,0.0,0.0,0.0,0.0,0.0,0.0,0.0,-2.2556,-2.4238,-2.5753,-2.6301,-2.6208,0.0,0.0,0.0,0.0,0.0,0.0,-2.9118,-2.9661,-3.0346,-3.1111,-3.1716,-3.2449,-3.3327,-3.4089,-3.4345,-3.4091,-3.4251,-3.5027,-3.6325,-3.5473,-3.5799,-3.7043,-3.6094,-3.5581,-3.5189,-3.2679,-3.1229,-3.0504,-2.972,-2.9355,-2.9232,-2.9038,-2.891,-2.8814,-2.8762,-2.9042,-2.9363,-2.8846,-2.7904,-2.6942,-2.6953,0.0,0.0,0.0,0.0,-2.9036,-2.8728,-2.2885,-1.7431,-1.8782,-1.701,-1.4842,-1.4102,-1.4604,-1.4584,-1.2443,-1.3149,-1.5442,-1.9586,-1.8599,0.0,-1.8764,-1.4134,-1.0919,-1.2025,-0.6548,-0.0692,0.432,0.6421,0.9225,1.3468,1.6751,1.8532,1.8467,2.0768,2.3239,2.5781,2.554,2.6214,2.8136,0.0,0.0,0.0,0.0,0.0,0.0,0.0,0.0,0.0,0.0,0.0,0.0,0.0,0.0,0.0,0.0,0.0,0.0,0.0,0.0,0.0,0.0,0.0,0.0,0.0,0.0,0.0,0.0,0.0,-2.8673,-2.9611,0.0,0.0,0.0,0.0,-2.9029,-2.9217,-3.0261,-3.2518,-3.2687,-3.333,-3.4685,-3.4783,-3.4442,-3.3667,-3.4524,-3.4491,-3.3562,-3.4256,-3.5342,-3.6763,-3.6649,-3.745,-3.8943,-3.8578,-3.7949,-3.7131,-3.5242,-3.4199,-3.3763,-3.3647,-3.3345,-3.2903,-3.2493,-3.217,-3.1784,-3.1018,-3.0563,-3.0178,-2.9294,-2.8952,-2.8933,-2.8963,-2.917,0.0,0.0,-2.9157,-2.8568,-2.9484,-2.5682,-2.0498,-1.577,-1.4257,-1.4117,-1.5101,-1.3695,-1.2252,-1.2261,-1.2933,-1.4718,-1.8287,0.0,-1.668,-1.5368,-1.4288,-1.1605,-0.6124,-0.0682,0.3793,0.6565,1.1759,1.5861,1.8158,1.816,1.9707,2.3752,2.3572,2.5277,2.953,2.8405,2.8259,2.9664,2.8161,0.0,0.0,0.0,0.0,0.0,0.0,0.0,0.0,0.0,0.0,0.0,0.0,0.0,0.0,0.0,0.0,0.0,0.0,0.0,0.0,0.0,0.0,0.0,0.0,0.0,0.0,0.0,0.0,-2.9513,-3.0574,0.0,-3.0896,-3.161,-3.2026,-3.1872,-3.2871,-3.3585,-3.3789,-3.3761,-3.3928,-3.4351,-3.4316,-3.44,-3.4664,-3.5439,-3.5675,-3.5381,-3.6102,-3.7011,-3.7999,-3.7723,-3.8184,-3.9193,-3.8869,-3.8475,-3.7979,-3.7115,-3.6067,-3.5015,-3.4849,-3.4781,-3.4666,-3.395,-3.3864,-3.395,-3.2943,-3.2621,-3.2425,-3.0822,-2.9909,-2.9265,-2.8514,-2.8359,-2.8484,-2.8537,-2.8542,-2.8654,-2.8931,-2.6683,-2.3773,-2.184,-1.7987,-1.44,-1.2862,-1.0778,-0.8272,-0.5035,-0.9637,-1.3994,-1.3402,-1.2945,-1.2808,-1.3417,-0.8588,-0.348,0.042,0.2839,0.7018,1.4601,1.7245,1.9188,2.1014,2.2009,2.3521,2.5908,2.6884,2.842,3.0853,3.0986,3.1026,3.1029,3.0756,3.0279,0.0,0.0,0.0,0.0,0.0,0.0,0.0,0.0,0.0,0.0,0.0,0.0,0.0,0.0,0.0,0.0,0.0,0.0,0.0,0.0,0.0,0.0,0.0,0.0,0.0,-2.7736,-2.9912,-2.9886,-3.1462,-3.2445,-3.2193,-3.3282,-3.3912,-3.3729,-3.4755,-3.5226,-3.4856,-3.4769,-3.4691,-3.4623,-3.485,-3.5253,-3.5841,-3.6619,-3.7006,-3.6986,-3.7464,-3.8092,-3.8781,-3.8499,-3.8795,-3.9513,-3.9293,-3.907,-3.8878,-3.8644,-3.7948,-3.6969,-3.6302,-3.5969,-3.5812,-3.5488,-3.5395,-3.53,-3.4033,-3.3506,-3.3155,-3.1287,-3.0301,-2.9717,-2.868,-2.8264,-2.8168,-2.7827,-2.8152,-2.8283,-2.7209,-2.6156,-2.5218,-2.439,-1.9899,-1.4792,-1.1261,-0.8633,-0.4552,0.3639,-0.2469,-0.8491,-0.7083,-0.6312,-0.6235,-0.7374,-0.276,0.2072,0.5754,0.7017,1.1144,2.0742,2.2077,2.2655,2.3733,2.6194,2.8032,2.8838,3.0408,3.1836,3.3015,3.3812,3.4235,3.4281,3.411,3.3273,3.1738,0.0,0.0,0.0,0.0,0.0,0.0,0.0,0.0,0.0,0.0,0.0,0.0,0.0,0.0,0.0,0.0,0.0,0.0,0.0,0.0,0.0,0.0,0.0,-2.7633,-2.9225,-3.0395,-3.0042,-3.2472,-3.3875,-3.3053,-3.3148,-3.3626,-3.4468,-3.4608,-3.5012,-3.5848,-3.5857,-3.5834,-3.5834,-3.6684,-3.7128,-3.7128,-3.7995,-3.8338,-3.8159,-3.8175,-3.8501,-3.9058,-3.8981,-3.9354,-4.0022,-4.0022,-3.9967,-3.9821,-3.98,-3.98,-3.9652,-3.8123,-3.7064,-3.6457,-3.7143,-3.6837,-3.5854,-3.4365,-3.3264,-3.2237,-3.066,-3.036,-3.045,-2.9752,-2.9317,-2.8862,-2.8101,-2.7907,-2.7298,-2.433,-2.426,-2.4413,-2.2282,-1.9016,-1.51,-1.0093,-0.7005,-0.1103,1.2961,0.8726,0.2272,0.0752,0.1706,0.2778,0.2865,0.2884,0.0,0.9883,1.2201,1.6401,2.4283,2.5996,2.6661,2.6739,3.0596,3.2894,3.2692,3.4012,3.5218,3.6115,3.6769,3.78,3.9228,3.8058,3.6205,3.3715,0.0,0.0,0.0,0.0,0.0,0.0,0.0,0.0,0.0,0.0,0.0,0.0,0.0,0.0,0.0,0.0,0.0,0.0,0.0,0.0,0.0,-2.7182,-2.8413,-2.8792,-3.0479,-3.1842,-3.2317,-3.3293,-3.4074,-3.4532,-3.4836,-3.5106,-3.5353,-3.5435,-3.5597,-3.5874,-3.6445,-3.6716,-3.6678,-3.7461,-3.789,-3.7901,-3.8769,-3.9198,-3.9199,-3.9777,-4.0137,-4.0299,-4.0285,-4.039,-4.0591,-4.0587,-4.0482,-4.0269,-4.0005,-3.9792,-3.9565,-3.8748,-3.8383,-3.8277,-3.7753,-3.7305,-3.6978,-3.6738,-3.5899,-3.4788,-3.4234,-3.3081,-3.1728,-3.1041,-3.0122,-2.9192,-2.8274,-2.6346,-2.4329,-2.3213,-2.0287,-1.7363,-1.6784,-1.4657,-0.998,0.031,0.215,0.5965,1.9991,1.9773,1.5944,1.1832,1.0121,0.9306,0.9306,1.5348,1.8841,1.6105,1.8988,2.3323,2.8678,2.9886,3.0966,3.2616,3.4021,3.4775,3.4829,3.5279,3.5985,3.7064,3.7487,3.7814,3.8116,3.7988,3.7427,0.0,0.0,0.0,0.0,0.0,0.0,0.0,0.0,0.0,0.0,0.0,0.0,0.0,0.0,0.0,0.0,0.0,0.0,0.0,0.0,0.0,0.0,-2.7858,-2.9128,-2.9986,-3.1354,-3.2471,-3.3013,-3.3715,-3.4369,-3.4931,-3.529,-3.548,-3.5502,-3.5663,-3.5922,-3.6333,-3.6796,-3.7203,-3.7537,-3.835,-3.8794,-3.8798,-3.9689,-4.0145,-4.0184,-4.0656,-4.0871,-4.084,-4.084,-4.0845,-4.085,-4.0836,-4.077,-4.061,-4.0374,-4.0211,-4.0027,0.0,0.0,0.0,0.0,-3.7377,-3.7358,-3.6794,-3.595,-3.5036,-3.4363,-3.3081,-3.157,-3.0881,-2.9954,-2.863,-2.6274,-2.4529,-2.2684,-1.9885,-1.4828,-1.099,-1.3028,-0.8733,-0.2409,0.404,0.7146,1.1764,2.2071,2.451,0.0,2.0954,1.8481,1.708,1.7729,2.1868,2.4489,2.317,2.4844,2.7755,3.1862,3.303,3.4057,3.5497,3.6832,0.0,0.0,0.0,3.8598,3.9399,3.9619,0.0,0.0,0.0,3.8925,3.7984,3.8314,0.0,0.0,3.3868,3.3705,0.0,0.0,0.0,0.0,0.0,0.0,0.0,0.0,0.0,0.0,0.0,0.0,0.0,0.0,0.0,0.0,-2.8333,-3.0281,-3.0869,-3.1771,-3.2462,-3.2821,-3.3829,-3.4567,-3.4764,-3.507,-3.5315,-3.546,-3.5728,-3.6222,-3.7046,-3.7162,0.0,0.0,0.0,-3.9682,-3.9682,-4.0529,-4.096,-4.0986,-4.094,-4.0935,-4.0894,-4.0894,-4.0915,-4.093,-4.0918,-4.086,-4.0809,-4.0785,-4.076,-4.0604,-3.9828,-3.9133,-3.8498,-3.7641,-3.7471,-3.7471,-3.5814,0.0,0.0,-3.2872,-3.1949,-3.1272,-3.038,-2.8759,-2.6321,-2.2467,-2.0681,-1.8605,-1.3121,-0.7215,-0.3717,-0.802,-0.1014,0.6522,0.5604,1.0605,1.6908,2.2555,2.6176,2.8314,2.8607,2.6531,2.5287,2.6644,2.546,2.6049,3.0461,3.0288,3.1042,3.4499,3.5728,0.0,3.6736,3.9075,4.0084,3.8983,4.0476,4.1548,4.1886,4.2018,4.1964,4.1763,4.1329,4.0321,3.8705,3.8155,3.7846,3.7736,3.7778,3.7581,0.0,0.0,0.0,0.0,0.0,0.0,0.0,0.0,0.0,0.0,0.0,0.0,0.0,0.0,0.0,-2.6841,-2.865,-2.9978,-3.011,-3.0917,-3.1913,-3.2995,-3.3578,-3.4259,-3.5259,-3.555,-3.6063,-3.6994,-3.7007,-3.7143,-3.7546,-3.812,-3.8495,-3.8618,-3.9615,-4.0158,-4.0158,-4.0458,-4.0688,-4.0843,-4.0674,0.0,-4.0894,-4.0896,-4.0959,-4.1068,-4.0952,-4.0896,-4.0869,-4.0758,-4.043,-4.0018,-4.0139,-4.0005,-3.9662,-3.9375,-3.9091,-3.8719,-3.7678,-3.7458,-3.7172,-3.419,-3.4258,-3.507,-3.2805,-2.5868,0.0,-1.6927,-0.7654,0.23,0.4092,0.7499,1.0143,0.9166,1.0734,1.3918,1.9262,2.0486,2.3083,3.1697,3.3145,3.356,3.5324,3.3326,3.1547,3.1876,3.3873,3.5562,3.6086,3.651,3.7143,3.8132,3.9053,3.9608,3.9686,4.0378,4.0438,3.9578,3.9965,4.0349,4.0643,4.0663,4.0703,4.0764,4.0628,4.0381,4.002,3.9812,3.9734,3.9799,3.8438,3.7527,0.0,0.0,0.0,0.0,0.0,0.0,0.0,0.0,0.0,0.0,0.0,-2.1131,-2.2446,0.0,-2.5497,-2.6516,-2.8124,-2.9223,-2.9178,-3.0067,-3.124,-3.2704,-3.3409,-3.4154,-3.521,-3.5697,-3.6199,-3.678,-3.7074,-3.7508,-3.808,-3.848,-3.888,-3.924,-3.9795,-4.012,-4.0194,-4.0138,-4.0173,-4.0348,-4.0099,-4.0197,-4.0544,-4.0475,-4.0625,-4.0933,-4.0805,-4.0766,-4.0799,-4.0692,-4.0396,-4.003,-4.033,-4.0101,-3.9577,-3.9465,-3.9276,-3.9013,-3.8414,-3.829,-3.8132,-3.6266,-3.5929,-3.4836,-2.7359,-2.0735,-1.4113,-0.6202,0.1735,0.8307,1.0302,1.4824,1.8123,1.5009,1.5983,1.8826,2.3098,2.3327,2.5239,3.3803,3.6448,3.7671,3.8821,3.7942,3.6777,3.5983,3.7458,3.8609,3.8334,3.8813,3.9279,3.9612,4.0006,4.0328,4.0492,4.0712,4.072,4.0432,4.0372,4.0424,4.0597,4.0486,4.0496,4.0588,4.053,4.053,4.0588,4.0496,4.0481,4.0492,3.961,3.8982,0.0,0.0,0.0,0.0,0.0,0.0,0.0,-1.8295,-1.8732,-2.0582,-2.1304,-2.1994,-2.3516,-2.4434,-2.5222,-2.6039,-2.7493,-2.8554,-2.8633,-2.9603,-3.0919,-3.25,-3.3202,-3.4005,-3.5101,-3.5774,-3.6241,-3.6428,-3.6946,-3.7609,-3.8423,-3.8479,-3.8804,-3.951,-3.9622,-3.9735,-3.9861,-3.9697,-3.9659,-3.9827,-3.9592,-3.9688,-4.0109,-3.9986,-4.0194,-4.0604,-4.0405,-4.0294,-4.0293,-4.0249,-4.0146,-4.0005,-4.0243,-3.9858,-3.9208,-3.9259,-3.9245,-3.9124,-3.869,-3.8561,-3.8469,-3.7486,-3.6528,-3.3795,-2.3373,-1.7598,-1.2146,-0.0045,0.5768,0.8922,1.1427,1.7056,2.1225,1.7744,1.9668,2.3004,2.561,2.618,2.8053,3.4329,3.8,4.01,4.0357,4.058,4.0304,3.9044,3.9095,3.9243,3.9185,3.9487,3.9807,4.0029,4.0053,4.0179,4.0526,4.074,4.0929,4.1081,4.0959,4.087,4.0937,4.0791,4.0715,4.0746,4.0662,4.0694,4.0807,4.073,4.0674,4.063,4.063,4.0457,-1.8586,-1.7635,-1.729,-1.8154,-1.833,-1.8917,0.0,-2.1539,-2.1679,-2.2769,-2.3636,-2.4267,-2.4407,-2.5452,-2.6342,-2.6448,-2.7512,-2.8501,-2.9062,-3.0219,-3.155,-3.2959,-3.2891,-3.3509,-3.543,-3.6007,-3.6678,-3.7627,-3.7618,-3.7787,-3.8297,-3.824,-3.8269,-3.8535,-3.8744,-3.8888,-3.9024,-3.9115,-3.9277,-3.9551,-3.94,-3.9482,-3.9754,-3.9753,-3.9833,-3.998,-3.9494,-3.9107,-3.8819,-3.8973,-3.9107,-3.9246,-3.958,-3.9486,-3.9271,-3.9985,-4.009,-3.976,-3.8884,-3.8924,-3.8881,-3.5921,-3.5058,-3.4513,-3.0924,-2.1817,-1.2391,-1.0755,-0.0353,1.0332,1.0502,1.3473,1.7888,2.3772,2.5644,2.7923,3.4663,3.609,3.654,3.7983,3.8736,3.9386,4.0182,4.0385,4.0462,4.052,4.0372,4.015,3.9911,4.0039,4.0086,3.9942,4.014,4.0396,4.0733,4.0945,4.1084,4.1105,4.1082,4.106,4.108,4.1051,4.0986,4.0887,4.0801,4.0789,4.0807,4.0734,4.0723,4.0776,4.0776,4.059,-2.118,-2.0669,-2.0461,-2.1666,-2.112,-2.0722,-2.2211,-2.206,-2.1925,-2.2954,-2.3548,-2.4045,-2.4514,-2.483,-2.5494,-2.6877,-2.754,-2.8352,-2.9602,-3.0573,-3.1561,-3.2789,-3.2932,-3.3587,-3.5258,-3.608,-3.6726,-3.7179,-3.7542,-3.7807,-3.7889,-3.7789,-3.7684,-3.7578,-3.7733,-3.7848,-3.7925,-3.8182,-3.8277,-3.8162,-3.8517,-3.8756,-3.8945,-3.8856,-3.8928,-3.9139,-3.891,-3.8692,-3.8523,-3.8206,-3.8063,-3.7972,-3.7707,-3.7555,-3.7662,-3.9371,-3.9876,-3.9656,-3.9349,-3.9468,-3.9282,-3.6456,-3.563,-3.3942,-2.4309,-1.7524,-1.1287,-0.2656,0.4438,0.9824,1.1553,1.2863,1.4841,1.918,2.0245,2.1405,2.5481,2.6352,2.774,3.2484,3.3465,3.5076,3.9972,4.0466,4.0207,4.0333,4.0475,4.0535,4.0422,4.05,4.051,4.0376,4.05,4.0659,4.0795,4.0952,4.1035,4.1047,4.1073,4.1093,4.1107,4.1101,4.1072,4.1019,4.0944,4.0922,4.0909,4.1349,4.1577,4.1578,4.2117,4.2241,-2.3094,-2.3071,-2.3178,-2.4027,-2.3122,-2.218,-2.27,-2.2154,-2.1765,-2.2578,-2.2895,-2.3301,-2.4168,-2.4239,-2.4886,-2.6931,-2.7628,-2.8518,-3.0348,-3.1197,-3.1985,-3.2978,-3.3307,-3.3826,-3.4847,-3.5786,-3.634,-3.6381,-3.6964,-3.7212,-3.712,-3.7026,-3.6932,-3.6781,-3.6876,-3.6973,-3.7016,-3.7343,-3.7342,-3.7122,-3.738,-3.754,-3.7675,-3.7343,-3.7273,-3.7392,-3.7392,-3.7395,-3.7363,-3.6933,-3.6767,-3.6708,-3.6376,-3.619,-3.6425,-3.8197,-3.8867,-3.8874,-3.8804,-3.8663,-3.8174,-3.6205,-3.4684,-3.1479,-2.0064,-1.584,-1.2599,-0.1252,0.2537,0.4187,0.8664,0.8612,0.8884,1.4942,1.6391,1.7306,2.0569,2.1286,2.3539,3.1126,3.1053,3.2214,4.0004,4.0747,4.0329,4.0591,4.0556,4.0475,4.0406,4.0513,4.0596,4.0584,4.0633,4.0701,4.0781,4.089,4.0942,4.0939,4.0992,4.1016,4.1029,4.1054,4.1074,4.1074,4.1281,4.139,4.139,4.2212,4.2578,4.2521,4.3209,4.3585,-2.3355,-2.359,-2.3878,-2.3919,-2.3632,-2.3276,-2.3103,-2.2457,-2.1916,-2.1939,-2.2187,-2.2604,-2.3255,-2.4053,-2.51,-2.6441,-2.7753,-2.9356,-3.1288,-3.2251,-3.3061,-3.3951,-3.4068,-3.4118,-3.43,-3.4991,-3.5515,-3.5605,-3.565,-3.5766,-3.5933,-3.5933,-3.602,-3.6215,-3.6215,-3.6357,-3.662,-3.662,-3.6741,-3.69,-3.6067,-3.5771,-3.5838,-3.5091,-3.4626,-3.4435,-3.4435,-3.4488,-3.462,-3.4695,-3.5065,-3.5683,-3.6064,-3.622,-3.626,-3.6552,-3.6967,-3.7291,-3.669,-3.5809,-3.4848,-3.4191,-3.0876,-2.6549,-2.3556,-2.0606,-1.783,-1.5479,-1.2744,-0.8751,-0.0811,-0.2112,-0.1506,1.4367,1.8135,2.0138,2.7483,2.9064,3.1264,3.8711,3.472,3.2596,4.0432,4.129,4.1166,4.2085,4.098,3.9937,3.9667,3.9911,4.0169,4.0296,4.03,4.0447,4.0772,4.0791,4.081,4.082,4.08,4.08,4.0809,4.0933,4.1,4.1,4.1894,4.2357,4.2357,4.3237,4.3615,4.3568,4.3587,4.4005,-2.5767,-2.5554,-2.5324,-2.5404,-2.4653,-2.3759,-2.3166,-2.2543,-2.2049,-2.18,-2.2123,-2.2603,-2.3219,-2.3991,-2.5424,-2.7937,-2.9028,-3.0363,-3.2667,-3.3364,-3.3764,-3.405,-3.4101,-3.4151,-3.43,-3.488,-3.5299,-3.5345,-3.5554,-3.5644,-3.5554,-3.5453,-3.5178,-3.4816,-3.5299,-3.5111,-3.4023,-3.4961,-3.4881,-3.3925,-3.4151,-3.4133,-3.3875,-3.3794,-3.337,-3.278,-3.3166,-3.3598,-3.4007,-3.3876,-3.4121,-3.4471,-3.2867,-3.2217,-3.208,-3.0794,-3.0828,-3.1868,-3.3993,-3.3703,-3.2061,-3.0458,-2.7663,-2.4472,-2.1973,-1.9249,-1.6669,-1.4578,-1.3785,-1.2527,-0.7592,-0.7871,-0.7639,-0.0904,0.8969,1.6273,1.4262,1.8106,2.4331,3.2331,2.803,2.7238,4.0108,4.1957,4.1505,4.1163,4.1194,4.0904,3.9935,4.0414,4.0604,4.0019,3.9965,4.0005,4.0133,4.0342,4.0474,4.0474,4.0671,4.081,4.081,4.1407,4.1723,4.1723,4.2597,4.3089,4.3127,4.4008,4.4411,4.4413,4.5074,4.5467,-2.7141,-2.6813,-2.6418,-2.6,-2.5065,-2.3981,-2.3085,-2.2359,-2.1862,-2.1561,-2.1894,-2.2374,-2.2891,-2.3934,-2.5561,-2.8052,-2.9111,-3.0537,-3.2939,-3.3403,-3.3609,-3.4066,-3.4101,-3.4151,-3.43,-3.469,-3.4975,-3.4975,-3.5191,-3.5283,-3.5161,-3.4866,-3.4497,-3.4101,-3.4626,-3.4219,-3.2779,-3.3924,-3.3558,-3.1738,-3.2384,-3.2237,-3.144,-3.1717,-3.1252,-3.0337,-3.077,-3.1009,-3.1112,-3.1024,-3.1196,-3.1435,-2.9867,-2.9219,-2.9097,-2.8035,-2.7618,-2.7961,-3.0888,-3.0325,-2.8226,-2.7714,-2.4706,-2.1068,-1.9811,-1.7443,-1.4163,-0.9075,-1.0369,-1.1453,-0.3104,-0.5654,-0.8594,-0.1146,0.8623,1.5884,1.4633,1.8773,2.5083,3.2976,2.9038,2.839,4.0837,4.2799,4.2236,4.1016,4.1654,4.1828,4.049,4.0791,4.0954,4.0594,4.0524,4.0575,4.0772,4.0979,4.114,4.1264,4.1492,4.1613,4.1613,4.2172,4.2485,4.2485,4.3363,4.3841,4.3903,4.478,4.5211,4.5242,4.5913,4.6171,-2.7422,-2.7417,-2.7026,-2.5702,-2.4797,-2.3923,-2.2882,-2.199,-2.1451,-2.1285,-2.1636,-2.2004,-2.2224,-2.3882,-2.5676,-2.6974,-2.8324,-3.0015,-3.2281,-3.246,-3.2808,-3.3947,-3.4101,-3.4151,-3.43,-3.4399,-3.4497,-3.4497,-3.4594,-3.4691,-3.4643,-3.4151,-3.3949,-3.4,-3.4102,-3.3684,-3.2763,-3.3348,-3.26,-3.0513,-3.0822,-3.0182,-2.8739,-2.8881,-2.8244,-2.7144,-2.7354,-2.6971,-2.624,-2.6521,-2.6788,-2.7144,-2.7274,-2.7299,-2.7286,-2.7917,-2.6842,-2.5355,-2.7183,-2.5766,-2.3546,-2.5774,-2.1859,-1.6485,-1.7447,-1.5494,-1.1002,-0.1079,-0.4285,-0.6813,0.9755,0.2618,-0.4756,1.1906,1.6558,1.9535,2.783,3.0342,3.3148,4.0507,3.7543,3.5933,4.2673,4.3857,4.3365,4.1849,4.2448,4.2596,4.1277,4.1038,4.1206,4.1817,4.1836,4.1976,4.249,4.2498,4.2601,4.2926,4.3035,4.3088,4.3162,4.3265,4.3336,4.3394,4.4257,4.4722,4.4713,4.552,4.593,4.5994,4.6072,4.6147,-2.8723,-2.7839,-2.6615,-2.5591,-2.4797,-2.4034,-2.304,-2.2665,-2.2445,-2.2049,-2.215,-2.2425,-2.3089,-2.4645,-2.6375,-2.7981,-2.9903,-3.1618,-3.2864,-3.3393,-3.377,-3.4066,-3.4201,-3.4201,-3.4151,-3.4349,-3.4448,-3.4349,-3.4497,-3.4399,-3.4,-3.3848,-3.3471,-3.2873,-3.3077,-3.2563,-3.1218,-3.0482,-2.9879,-2.9484,-2.9142,-2.8698,-2.8026,-2.7206,-2.6481,-2.5864,-2.5341,-2.5281,-2.561,-2.6295,-2.6764,-2.7053,-2.595,-2.4828,-2.3746,-2.2586,-2.1151,-1.9986,-2.0771,-2.1277,-2.1618,-2.12,-1.8319,-1.5136,-1.599,-1.3665,-1.0444,-0.8711,-0.9776,-1.0319,-0.5707,-0.2477,0.0784,0.5759,1.7364,2.8093,3.0893,3.1609,3.4389,4.3442,4.4056,4.3656,4.5479,4.543,4.4967,4.4385,4.4173,4.3394,4.1549,4.1632,4.1811,4.1627,4.1494,4.1475,4.1632,4.1825,4.2108,4.2386,4.2658,4.3158,4.397,4.4636,4.5288,4.5926,4.6188,4.6345,4.6383,4.6009,4.5886,4.5997,4.6075,4.6152,-2.8914,-2.7906,-2.6625,-2.5658,-2.505,-2.4408,-2.3518,-2.3027,-2.2677,-2.2334,-2.2202,-2.2406,-2.3132,-2.4855,-2.6531,-2.7851,-2.9645,-3.1294,-3.2555,-3.2959,-3.336,-3.4016,-3.4201,-3.425,-3.4201,-3.4399,-3.4448,-3.43,-3.4201,-3.405,-3.3797,-3.3314,-3.298,-3.2841,-3.2633,-3.2013,-3.0984,-2.9608,-2.8881,-2.8753,-2.8352,-2.7604,-2.6488,-2.6096,-2.5168,-2.3895,-2.3025,-2.293,-2.3453,-2.2648,-2.2933,-2.3672,-2.2271,-2.1271,-2.0507,-1.979,-1.903,-1.8377,-1.8161,-1.8327,-1.8718,-1.9145,-1.6417,-1.3322,-1.5498,-1.3517,-1.0078,-0.7242,-0.9087,-0.9995,-0.1647,0.1554,0.4755,1.3295,2.3465,3.2371,3.6554,3.8016,4.0198,4.581,4.6469,4.6157,4.6336,4.5718,4.5174,4.5152,4.476,4.4098,4.2996,4.2975,4.3029,4.2993,4.3027,4.313,4.3281,4.3615,4.3952,4.4304,4.4521,4.4979,4.5764,4.6263,4.6801,4.7413,4.7432,4.7467,4.7475,4.7028,4.6708,4.6472,4.6551,4.6443,-2.8748,-2.7932,-2.7041,-2.5957,-2.5453,-2.4991,-2.415,-2.3327,-2.2701,-2.2457,-2.2088,-2.2012,-2.2733,-2.4517,-2.6142,-2.7196,-2.8687,-3.0262,-3.1921,-3.2025,-3.2547,-3.3931,-3.425,-3.43,-3.4184,-3.4399,-3.4448,-3.4234,-3.3832,-3.3642,-3.3745,-3.278,-3.2437,-3.3008,-3.225,-3.1562,-3.1086,-2.9656,-2.8688,-2.8157,-2.7762,-2.6705,-2.4933,-2.5121,-2.4051,-2.1832,-2.0824,-2.0498,-2.0557,-1.8336,-1.8078,-1.9134,-1.8129,-1.7779,-1.7803,-1.8462,-1.8654,-1.8322,-1.7298,-1.6255,-1.5676,-1.8171,-1.5447,-1.1747,-1.5341,-1.4084,-0.983,-0.1761,-0.4703,-0.6145,1.1279,1.1152,1.0476,2.6515,3.1969,3.556,4.3062,4.6022,4.7309,4.7505,4.6701,4.6083,4.6419,4.569,4.509,4.5192,4.4997,4.4866,4.491,4.4458,4.4325,4.4821,4.5142,4.5417,4.57,4.6107,4.652,4.6911,4.7023,4.7269,4.7789,4.7808,4.7977,4.8356,4.8279,4.8241,4.8279,4.8163,4.7815,4.727,4.7323,4.7056,-2.9313,-2.8686,-2.7932,-2.6678,-2.6283,-2.5974,-2.5034,-2.4163,-2.3364,-2.2498,-2.1668,-2.1322,-2.2178,-2.3403,-2.4901,-2.6874,-2.8816,-3.0541,-3.2139,-3.2687,-3.3293,-3.4151,-3.4399,-3.4234,-3.3614,-3.4118,-3.4267,-3.3767,-3.3266,-3.2964,-3.3018,-3.2508,-3.1838,-3.1116,-3.0673,-3.0054,-2.9268,-2.8532,-2.7894,-2.7364,-2.6114,-2.5417,-2.5181,-2.3261,-2.2012,-2.1204,-2.08,-1.9598,-1.8095,-1.9064,-1.8801,-1.7838,-1.8398,-1.7704,-1.6556,-1.7077,-1.6654,-1.5631,-1.4514,-1.4107,-1.4311,-1.5445,-1.4033,-1.2199,-1.4362,-1.3561,-1.0089,-0.1226,0.0667,0.2582,1.3979,2.1696,2.7228,3.0309,3.7683,4.4607,4.6658,4.8114,4.8829,4.8079,4.7969,4.7978,4.7923,4.7334,4.6845,4.6888,4.6443,4.6071,4.6118,4.4986,4.429,4.4628,4.4998,4.5236,4.5298,4.5847,4.6286,4.6632,4.6724,4.723,4.8313,4.8358,4.8827,4.9813,4.9182,4.8964,4.9163,4.8452,4.8142,4.8157,4.8193,4.8195,-2.9756,-2.9087,-2.8306,-2.7393,-2.6826,-2.6336,-2.5865,-2.4651,-2.3384,-2.27,-2.1571,-2.0879,-2.1414,-2.2552,-2.403,-2.5879,-2.8158,-3.0226,-3.1643,-3.2751,-3.3614,-3.4234,-3.4497,-3.4431,-3.3901,-3.4317,-3.4333,-3.3697,-3.3161,-3.2933,-3.2986,-3.2461,-3.1507,-3.0144,-3.0133,-2.9813,-2.8944,-2.8026,-2.7124,-2.6233,-2.5521,-2.4513,-2.3392,-2.2004,-2.1066,-2.041,-1.8929,-1.8213,-1.8041,-1.7352,-1.7009,-1.6946,-1.668,-1.6241,-1.5597,-1.5388,-1.5133,-1.4737,-1.38,-1.3228,-1.3222,-1.4285,-1.3537,-1.2357,-1.3643,-0.9669,-0.3892,0.0461,0.5564,1.2034,2.1841,2.7736,3.2406,3.7393,4.2819,4.7134,4.8204,4.888,4.9096,4.8382,4.8163,4.8098,4.809,4.7414,4.6926,4.7098,4.6778,4.6398,4.6105,4.5681,4.5485,4.5541,4.5873,4.6176,4.6427,4.6998,4.7425,4.763,4.775,4.8146,4.8936,4.8965,4.9277,4.9968,4.9754,4.9679,4.9829,4.9567,4.9316,4.9024,4.9015,4.8877,-3.0236,-2.9492,-2.8717,-2.8125,-2.7393,-2.6678,-2.6337,-2.4804,-2.3345,-2.2665,-2.1456,-2.0583,-2.0888,-2.2021,-2.3482,-2.4983,-2.7393,-2.9576,-3.1152,-3.2515,-3.3614,-3.4234,-3.4546,-3.4529,-3.4218,-3.4497,-3.4382,-3.3626,-3.3055,-3.2772,-3.2703,-3.2139,-3.113,-2.9526,-2.9884,-2.9693,-2.8828,-2.7624,-2.6596,-2.5634,-2.5026,-2.376,-2.2048,-2.1182,-2.0355,-1.935,-1.7462,-1.7121,-1.7612,-1.5803,-1.5466,-1.5899,-1.5097,-1.4819,-1.4733,-1.4154,-1.4154,-1.4378,-1.364,-1.1586,-0.95,-1.0407,-1.1371,-1.202,-1.0793,-0.4603,0.272,0.6884,1.364,2.1835,3.1573,3.4002,3.5927,4.3866,4.6366,4.7304,4.8674,4.8967,4.88,4.8326,4.7944,4.7747,4.7723,4.6999,4.6537,4.6934,4.659,4.6253,4.6023,4.6301,4.6572,4.6649,4.6908,4.7204,4.7591,4.819,4.8532,4.8642,4.8732,4.8943,4.9289,4.927,4.9469,4.9784,5.0012,5.0183,5.0294,5.0565,5.0413,4.9852,4.9849,4.9572,-3.0746,-3.026,-2.9581,-2.8732,-2.811,-2.7259,-2.5673,-2.4593,-2.3528,-2.201,-2.1021,-2.0523,-2.0939,-2.2046,-2.3393,-2.4954,-2.6918,-2.9012,-3.0945,-3.1975,-3.3018,-3.4333,0.0,-3.4317,-3.3903,-3.435,-3.4267,-3.3161,-3.2376,-3.1777,-3.1248,-3.0999,-3.0315,-2.9066,-2.9426,-2.912,-2.7937,-2.7028,-2.6536,-2.6344,-2.3956,-2.2967,-2.3088,-2.103,-1.9196,-1.7548,-1.808,-1.681,-1.4476,-1.6566,-1.6225,-1.4545,-1.5068,-1.4804,-1.4064,-1.416,-1.4256,-1.4166,-1.313,-0.7141,0.0164,0.0801,-0.4922,-1.0531,-0.2616,0.0697,0.5516,2.3371,2.9042,3.1893,4.1566,4.4071,4.4538,4.641,4.6778,4.7047,4.8309,4.8569,4.8288,4.747,4.7627,4.7741,4.7258,4.6613,4.6328,4.6934,4.6038,4.5632,4.6429,4.6447,4.6695,4.7421,4.7506,4.7591,4.7793,4.8229,4.8569,4.8787,4.8787,4.8839,4.8925,4.8943,4.922,4.9803,4.9811,5.0106,5.0644,5.0683,5.0702,5.0696,5.0677,5.069,-3.1257,-3.0858,-3.0269,-2.9239,-2.8465,-2.7519,-2.593,-2.4511,-2.319,-2.1708,-2.094,-2.0501,-2.0385,-2.1264,-2.2445,-2.381,-2.5725,-2.7737,-2.9763,-3.1098,-3.2463,-3.377,-3.4036,-3.4136,-3.4202,-3.4284,-3.4018,-3.3303,-3.2281,-3.1622,-3.1477,-3.0346,-2.9435,-2.8917,-2.8624,-2.7978,-2.6822,-2.6324,-2.529,-2.378,-2.2979,-2.1661,-1.9883,-1.8812,-1.7594,-1.6338,-1.5708,-1.1894,-0.6496,-1.296,-1.162,-0.5564,-0.577,-0.5624,-0.4488,0.1809,0.3907,0.3659,0.4847,0.7389,1.0197,1.0764,0.826,0.5768,0.9236,1.4569,2.1051,2.8834,3.5294,4.0683,4.438,4.5096,4.5149,4.6289,4.6452,4.6557,4.7532,4.7864,4.7747,4.6819,4.7088,4.7324,4.6827,4.6537,4.6459,4.6731,4.6154,4.5821,4.6055,4.6525,4.6954,4.7194,4.753,4.7875,4.819,4.8513,4.8715,4.8787,4.8857,4.8874,4.8909,4.9094,4.9302,4.9539,4.9884,5.0159,5.0399,5.0604,5.0721,5.0793,5.0793,5.0844,-3.1645,-3.1342,-3.0841,-2.9929,-2.8867,-2.7702,-2.6236,-2.4654,-2.3018,-2.1526,-2.0848,-2.0509,-2.0299,-2.1057,-2.2062,-2.3324,-2.5204,-2.7108,-2.8966,-3.0578,-3.1961,-3.314,-3.3547,-3.3935,-3.4267,-3.4168,-3.3901,-3.3271,-3.2155,-3.1377,-3.0998,-2.9631,-2.8835,-2.8811,-2.8075,-2.7238,-2.62,-2.5419,-2.4234,-2.2575,-2.1745,-2.0395,-1.854,-1.71,-1.452,-1.0942,-0.9862,-0.4205,0.3711,-0.3031,-0.1641,0.4775,0.4763,0.4942,0.6075,1.3667,1.6058,1.5625,1.6529,1.8247,2.0124,2.0453,2.2515,2.4849,2.4882,2.7721,3.1591,3.4467,4.0124,4.5302,4.5178,4.4745,4.4635,4.5802,4.6036,4.6158,4.6819,4.7217,4.7216,4.6209,4.6553,4.6856,4.6358,4.6363,4.6447,4.6542,4.6105,4.5821,4.5972,4.6602,4.7071,4.7237,4.7715,4.8172,4.8569,4.8715,4.8822,4.8822,4.8874,4.8925,4.9027,4.927,4.9488,4.9627,5.0012,5.0249,5.0358,5.0585,5.0721,5.0793,5.0793,5.0844,-3.1846,-3.164,-3.1384,-3.0977,-2.9534,-2.781,-2.6423,-2.4925,-2.3346,-2.1296,-2.068,-2.0588,-2.0864,-2.1657,-2.2706,-2.3906,-2.5652,-2.7422,-2.8872,-3.0448,-3.1689,-3.2392,-3.323,-3.3713,-3.3802,-3.407,-3.3853,-3.2977,-3.2109,-3.0852,-2.9115,-2.8758,-2.8688,-2.8797,-2.7853,-2.7049,-2.629,-2.4399,-2.3634,-2.4063,-2.0223,-1.9084,-2.0451,-1.6413,-0.9253,-0.0075,0.015,0.6215,1.5854,1.4775,1.4648,1.5143,1.5137,1.5662,1.6431,1.6547,1.6459,1.6265,1.6319,2.2213,2.9815,3.0228,3.6838,4.4621,4.4767,3.8193,3.2746,4.2503,4.4862,4.4484,4.4726,4.4345,4.4183,4.5239,4.5764,4.6049,4.6259,4.6715,4.6753,4.5545,4.595,4.6376,4.587,4.5938,4.6087,4.6332,4.5735,4.5494,4.6284,4.6695,4.7133,4.7752,4.8269,4.8642,4.8787,4.8787,4.8822,4.8909,4.8909,4.9061,4.9384,4.9415,4.9655,5.0183,5.0206,5.0358,5.0683,5.0702,5.0721,5.0793,5.0793,5.0844,-3.1464,-3.0973,-3.03,-3.0133,-2.8796,-2.7137,-2.5685,-2.4476,-2.3145,-2.1162,-2.1338,-2.1675,-2.1119,-2.184,-2.3224,-2.5433,-2.5429,-2.6381,-3.0014,-3.0273,-3.0906,-3.3024,-3.4086,-3.4529,-3.4219,-3.3735,-3.3344,-3.3082,-3.1562,-3.0715,-3.0621,-2.9845,-2.8588,-2.6834,-2.6694,-2.5811,-2.4124,-2.367,-2.2271,-2.0142,-1.957,-1.4241,-0.4831,-0.4644,0.134,1.1571,1.1803,1.7092,2.5044,1.8517,1.9889,2.6131,2.6214,2.6365,2.7391,3.4152,3.6477,3.6265,3.6191,3.8065,4.0428,4.0531,4.274,4.5381,4.5321,4.3183,4.1318,4.4123,4.4795,4.4629,4.4383,4.424,4.4351,4.514,4.5629,4.59,4.5773,4.6112,4.6049,4.4855,4.5232,4.5666,4.5424,4.5803,4.6105,4.6122,4.5803,4.5667,4.5803,4.6284,4.6771,4.7342,4.7919,4.8402,4.8787,4.8839,4.8874,4.8909,4.8909,4.9061,4.9384,4.9588,4.9857,5.0183,5.0421,5.0585,5.0702,5.0702,5.0721,5.0793,5.0861,5.0932,-3.0627,-3.0398,-2.9894,-2.961,-2.8273,-2.6816,-2.5821,-2.4563,-2.3165,-2.168,-2.1928,-2.2219,-2.1611,-2.238,-2.3849,-2.6231,-2.6164,-2.714,-3.0731,-3.0936,-3.1477,-3.3556,-3.4382,-3.469,-3.4512,-3.3804,-3.3303,-3.2975,-3.1792,-3.0968,-3.0821,-2.9927,-2.8283,-2.5816,-2.5882,-2.4534,-2.1697,-2.1441,-1.9881,-1.7021,-1.6457,-0.9932,0.1585,0.1908,0.9458,2.2248,2.2315,2.7466,0.0,2.9755,3.1076,3.6655,3.6785,3.6835,3.7572,4.3703,4.5816,4.561,4.5568,4.5407,4.5214,4.5192,4.5241,4.5301,4.5142,4.5099,4.5011,4.4572,4.4374,4.4269,4.4084,4.3999,4.4103,4.4636,4.5081,4.5349,4.5366,4.5668,4.5716,4.502,4.5319,4.5632,4.5494,4.5854,4.6122,4.5922,4.5871,4.5718,4.5581,4.6005,4.6537,4.715,4.7679,4.8269,4.8804,4.8874,4.8909,4.8909,4.8909,4.9108,4.9529,4.9693,4.9987,5.038,5.0585,5.0702,5.0702,5.0721,5.0758,5.081,5.0858,5.0983,0.0,-2.9755,-2.992,-2.9351,-2.7938,-2.6661,-2.6552,-2.5004,0.0,-2.2658,-2.2401,-2.2319,-2.2217,-2.3208,-2.4609,-2.6449,-2.771,-2.9169,-3.13,-3.2336,-3.3225,-3.4235,-3.4333,-3.435,-3.4593,-3.417,-3.3534,-3.2745,-3.2405,-3.1469,-2.984,-2.9194,-2.7809,-2.5325,-2.5107,-2.311,-1.9183,-1.8094,-1.665,-1.4489,-1.1077,-0.5665,0.1556,0.5439,1.6315,3.2108,3.1962,3.714,4.5676,4.5646,4.5683,4.5828,4.5939,4.6026,4.6088,4.6091,4.5977,4.5812,4.5799,4.5529,4.5161,4.514,4.5045,4.4876,4.4644,4.4568,4.4493,4.4091,4.3749,4.36,4.38,4.3701,4.3615,4.3942,4.4291,4.462,4.5049,4.5414,4.5701,4.5693,4.6003,4.6137,4.587,4.6105,4.6172,4.5905,4.5871,4.577,4.5528,4.5905,4.6489,4.715,4.7638,4.8194,4.8855,4.8909,4.8909,4.8909,4.8925,4.9188,4.9776,4.983,5.0106,5.0683,5.0702,5.0683,5.0702,5.0776,5.0793,5.081,5.0877,5.0983,-2.7692,0.0,-2.8393,-2.852,-2.7136,-2.5702,0.0,-2.4708,-2.3601,-2.2617,-2.3026,-2.3363,-2.2557,-2.3984,-2.5955,-2.7952,-2.8575,-2.9863,-3.2914,-3.3925,-3.4787,-3.59,-3.5562,-3.5143,-3.5086,-3.3909,-3.2928,-3.2419,-3.1745,-3.0737,-2.9207,-2.8994,-2.7365,-2.4019,-2.2563,-2.0616,-1.8201,-1.6258,-1.3998,-1.1207,-0.5219,0.384,1.5501,2.2152,3.1307,4.2048,4.2258,4.3574,4.5572,4.5763,4.5843,4.5889,4.5903,4.5902,4.5893,4.6045,4.6039,4.593,4.5783,4.5791,4.5815,4.5436,4.5244,4.5007,4.4447,4.4393,4.4402,4.3795,4.3749,4.3846,4.3649,4.3781,4.3955,4.3986,4.4391,4.4655,4.436,4.5018,4.5541,4.5058,4.5649,4.6266,4.6401,4.6595,4.6771,4.6855,4.6642,4.6394,4.6186,4.6411,4.6799,4.7299,4.7879,4.8402,4.8874,4.8909,4.8909,4.8909,4.916,4.9439,4.9803,5.0012,5.0272,5.0683,5.0702,5.0702,5.0702,5.0775,5.0829,5.0883,5.099,5.1099,-2.732,-2.7645,-2.7929,-2.7823,-2.686,-2.5855,-2.5427,-2.4839,-2.4153,-2.3371,-2.3925,-2.4444,-2.4116,-2.5651,-2.7576,-2.9435,-3.0291,-3.1662,-3.4529,-3.5629,-3.6217,-3.6505,-3.6279,-3.5933,-3.5538,-3.4169,-3.327,-3.3089,-3.1546,-3.0265,-2.9451,-2.6703,-2.4381,-2.2726,-1.834,-1.6102,-1.6378,-1.0083,-0.5667,-0.3089,0.529,1.5003,2.5632,3.0099,3.7036,4.5537,4.5657,4.5656,4.5588,4.5747,4.5817,4.587,4.5957,4.5956,4.5903,4.6015,4.6039,4.5988,4.5883,4.5899,4.5924,4.5599,4.5362,4.5096,4.4561,4.4346,4.4199,4.3634,4.3615,4.373,4.3444,4.3664,4.3974,4.3814,4.3947,4.4124,4.4217,4.4614,4.5047,4.5283,4.5722,4.6223,4.6801,4.6936,4.6981,4.7255,4.7124,4.6963,4.6799,4.6873,4.7124,4.7656,4.8017,4.8402,4.8874,4.8909,4.8909,4.8909,4.9061,4.9377,4.9757,4.9943,5.0225,5.0683,5.0702,5.0702,5.0701,5.0795,5.0887,5.0941,5.1067,5.1177,-2.7515,-2.8021,-2.8084,-2.7426,-2.6905,-2.6403,-2.5709,-2.5294,-2.4963,-2.4652,-2.513,-2.5718,-2.622,-2.7833,-2.9578,-3.0859,-3.229,-3.3894,-3.5866,-3.6796,-3.7172,-3.6801,-3.6831,-3.6627,-3.5852,-3.4764,-3.3908,-3.3427,-3.1344,-2.9701,-2.8919,-2.3805,-2.0256,-1.8828,-1.2103,-0.8972,-0.9989,-0.166,0.4168,0.7432,1.728,2.5541,3.2172,3.4211,3.9,4.5668,4.5591,4.5606,4.5673,4.5715,4.5767,4.5836,4.5996,4.6036,4.5963,4.5967,4.5976,4.598,4.6005,4.5912,4.5765,4.5637,4.54,4.512,4.4719,4.4373,4.4091,4.36,4.3532,4.3545,4.3375,4.3582,4.3832,4.36,4.3426,4.3504,4.4181,4.4216,4.4455,4.557,4.5868,4.6219,4.7126,4.7194,4.723,4.7554,4.7572,4.747,4.7367,4.7367,4.7554,4.8075,4.8192,4.8421,4.8855,4.8943,4.8978,4.8978,4.9008,4.9327,4.991,4.9936,5.0178,5.0683,5.0702,5.0721,5.072,5.0835,5.0947,5.1018,5.1161,5.1254,-2.735,-2.8319,-2.87,-2.7683,-2.6933,-2.6301,-2.5872,-2.6005,-2.6262,-2.6392,-2.6936,-2.755,-2.8014,-3.0234,-3.1957,-3.2007,-3.3791,-3.5346,-3.5864,-3.6154,-3.6715,-3.7731,-3.7644,-3.7002,-3.5822,-3.5492,-3.3992,-3.087,-3.0475,-2.8338,-2.3385,-2.2217,-1.6503,-0.5225,-0.206,0.3015,1.0453,0.6758,0.9227,1.7873,2.6201,3.1177,3.3234,4.0604,4.4528,4.5528,4.5743,4.5714,4.5543,4.5839,4.592,4.5884,4.5933,4.5886,4.5832,4.5827,4.5864,4.5928,4.6045,4.5925,4.5688,4.556,4.5361,4.5104,4.4643,4.4503,4.443,4.3974,4.3716,4.3631,4.3749,4.3832,4.3883,4.3771,4.3513,4.3339,4.3467,4.3833,4.4168,4.4364,4.5526,4.663,4.7051,4.7716,4.8271,4.8532,4.8326,4.8114,4.7977,4.8075,4.8172,4.8267,4.855,4.882,4.8909,4.916,4.9302,4.9302,4.9539,4.9936,5.0544,5.0544,5.0604,5.0702,5.0702,5.074,5.0793,5.0853,5.0964,5.1083,5.1215,5.1293,-2.6925,-2.7677,-2.8275,-2.8631,-2.8849,-2.8657,-2.7502,-2.7634,-2.7906,-2.7718,-2.8429,-2.9247,-2.9838,-3.1806,-3.3546,-3.4243,-3.5606,-3.6667,-3.6938,-3.7376,-3.7704,-3.7777,-3.8034,-3.762,-3.5959,-3.6002,-3.4765,-3.1308,-3.0118,-2.7096,-2.1521,-1.8823,-1.1928,0.0071,0.2812,1.0624,2.4141,2.128,2.2053,2.663,3.5364,3.9694,4.0149,4.4109,4.5799,4.5624,4.5784,4.5771,4.5635,4.585,4.5881,4.5805,4.5869,4.588,4.5871,4.5899,4.5946,4.6015,4.6007,4.5929,4.5852,4.5742,4.5486,4.5166,4.4947,4.4624,4.4401,4.4729,4.4339,4.3795,4.373,4.38,4.3818,4.3686,4.3444,4.3268,4.3268,4.336,4.357,4.4005,4.4753,4.5711,4.6892,4.7426,4.796,4.873,4.8714,4.8605,4.855,4.8605,4.8642,4.8642,4.8785,4.8909,4.8909,4.9225,4.9457,4.9598,4.9884,5.0135,5.0421,5.0604,5.0702,5.0702,5.0702,5.0759,5.0852,5.0948,5.1078,5.1212,5.1308,5.1362,-2.7139,-2.7677,-2.8291,-3.0027,-3.0724,-3.0659,-2.9308,-2.9525,-2.9903,-2.9561,-3.0292,-3.1301,-3.229,-3.3805,-3.5392,-3.6805,-3.7299,-3.7572,-3.7702,-3.8374,-3.8572,-3.7805,-3.8339,-3.8077,-3.6406,-3.5959,-3.4515,-3.1459,-2.8537,-2.463,-1.9579,-1.3264,-0.4882,0.6024,1.0404,1.9873,3.5157,3.5284,3.5281,3.5361,4.2478,4.5854,4.5812,4.5828,4.5805,4.5723,4.5755,4.5738,4.5708,4.5831,4.583,4.5766,4.5899,4.6063,4.621,4.6092,4.6207,4.637,4.6065,4.5998,4.6016,4.5922,4.5619,4.5285,4.5416,4.5047,4.4776,4.5725,4.5394,4.4655,4.4207,4.404,4.391,4.3682,4.3479,4.3321,4.3304,4.3142,4.3176,4.3869,4.4236,4.4931,4.6396,4.702,4.7605,4.8519,4.8779,4.8909,4.8909,4.8909,4.8909,4.8909,4.8909,4.8959,4.9108,4.9389,4.9712,4.9987,5.0202,5.0336,5.0336,5.0565,5.0702,5.0741,5.0741,5.0797,5.0948,5.1064,5.1175,5.1289,5.1377,5.1406,-2.8764,-2.9363,-2.9841,-3.1894,-3.1574,-3.0718,-3.0577,-3.1482,-3.2433,-3.2704,-3.3036,-3.3894,-3.5927,-3.718,-3.8254,-3.9292,-3.8571,-3.7702,-3.7329,-3.7895,-3.8373,-3.8398,-3.8525,-3.8254,-3.7409,-3.4897,-3.2125,-2.9176,-2.4278,-1.9615,-1.5445,-0.4755,0.6415,1.7721,2.6005,3.495,4.4719,4.4936,4.4986,4.501,4.5551,4.5841,4.5879,4.5771,4.5737,4.5783,4.5718,4.5712,4.5696,4.5841,4.5891,4.5886,4.6018,4.6541,4.7125,4.6429,4.665,4.7203,4.644,4.6151,4.6076,4.5941,4.5708,4.5571,4.6058,4.6126,4.6215,4.6978,4.711,4.68,4.5734,4.5003,4.443,4.4048,4.3809,4.366,4.3579,4.3408,4.3356,4.3652,4.4527,4.5244,4.531,4.6778,4.7937,4.7891,4.8441,4.8909,4.8909,4.8909,4.8909,4.8909,4.8909,4.9123,4.9693,4.9987,5.0272,5.0604,5.0663,5.0663,5.0663,5.0683,5.076,5.0895,5.0895,5.0933,5.1099,5.1163,5.1238,5.1289,5.1377,5.1406,-2.8461,-2.9568,-3.064,-3.2045,-3.3063,-3.3629,-3.3433,-3.3604,-3.4123,-3.5343,-3.5624,-3.623,-3.809,-3.8466,-3.8821,-3.9688,-3.9073,-3.8401,-3.8273,-3.8803,-3.9085,-3.8627,-3.7689,-3.6542,-3.5149,-3.0591,-2.6491,-2.334,-1.9815,-1.3319,-0.3163,0.0938,1.0636,2.7419,3.1107,3.7027,4.591,4.5899,4.5891,4.5871,4.5823,4.5786,4.5771,4.5761,4.5761,4.5737,4.5794,4.5808,4.5822,4.5975,4.5975,4.5956,4.66,4.7108,4.7454,4.7123,4.7539,4.8133,4.724,4.7281,4.7702,4.7611,4.7395,4.7212,4.7432,4.7333,4.7277,4.8017,4.7914,4.7443,4.6826,4.5976,4.5245,4.5077,4.4557,4.4023,4.3918,4.4179,4.4447,4.4487,4.5366,4.6251,4.6675,4.7042,4.7567,4.8449,4.8379,4.8382,4.8834,4.8909,4.8959,4.9193,4.9358,4.9618,5.0038,5.0135,5.0336,5.0683,5.0702,5.0702,5.0702,5.0779,5.0856,5.0914,5.0979,5.1072,5.1163,5.1217,5.1302,5.1355,5.1398,5.1406,-2.9049,-3.0552,-3.2061,-3.3261,-3.4621,-3.5807,-3.641,-3.6062,-3.5973,-3.7332,-3.8003,-3.8626,-3.9597,-3.9552,-3.9559,-4.0055,-3.9608,-3.9217,-3.915,-3.9804,-4.0022,-3.9376,-3.7175,-3.5308,-3.4258,-2.762,-2.2079,-1.9272,-1.3284,-0.5291,0.5029,1.0163,1.9051,3.2768,3.5832,4.0057,4.5948,4.588,4.5796,4.5726,4.5758,4.5712,4.5582,4.57,4.5715,4.5632,4.5786,4.5841,4.5854,4.5956,4.6122,4.6407,4.7317,4.7938,4.8289,4.7988,4.8437,4.9085,4.8161,4.823,4.8723,4.8633,4.8451,4.8288,4.8494,4.8395,4.8381,4.9146,4.9079,4.8719,4.8524,4.7438,4.636,4.6263,4.5714,4.5172,4.5094,4.5417,4.568,4.5711,4.6271,4.685,4.7042,4.7155,4.7467,4.8268,4.8516,4.8833,4.944,4.9515,4.9514,4.9539,4.9784,5.0139,5.0597,5.0738,5.102,5.1549,5.1607,5.1472,5.1164,5.1549,5.178,5.1819,5.19,5.1871,5.167,5.1719,5.1615,5.1406,5.1406,5.1406,-3.0975,-3.2638,-3.4274,-3.5901,-3.6157,-3.6699,-3.93,-3.8914,-3.8145,-3.8645,-4.0096,-4.1091,-4.0516,-4.0671,-4.08,-4.0616,-4.0336,-4.0011,-3.9761,-4.0635,-4.1178,-4.0813,-3.7208,-3.4897,-3.5201,-2.6376,-1.9755,-1.7532,-0.4283,0.4766,0.7432,2.3882,3.324,3.3307,4.1558,4.5916,4.58,4.5873,4.58,4.5586,4.5668,4.5545,4.5322,4.5582,4.5635,4.5513,4.5632,4.57,4.5715,4.5775,4.6351,4.7287,4.8169,4.908,4.98,4.9013,4.9315,4.9996,4.9101,4.8816,4.8791,4.8679,4.8548,4.8548,4.9134,4.9355,4.9567,5.0389,5.0745,5.0913,5.0972,4.9473,4.7843,4.75,4.7308,4.7224,4.72,4.7099,4.7052,4.7183,4.7229,4.691,4.5914,4.7065,4.7829,4.6967,4.887,5.0469,5.0786,5.0816,5.0582,4.9987,5.0187,5.0687,5.1535,5.1932,5.2512,5.3436,5.3571,5.3167,5.2165,5.3071,5.3668,5.3803,5.3803,5.345,5.2715,5.2715,5.2266,5.1426,5.1426,5.1402,-3.1763,-3.285,-3.3879,-3.6154,-3.7075,-3.7801,-3.9266,-3.9426,-3.9545,-4.0598,-4.0874,-4.0966,-4.1036,-4.0492,-4.0164,-4.0483,-4.0517,-4.0365,-3.997,-4.0985,-4.0685,-3.7691,-3.4961,-3.1246,-2.584,-1.9008,-1.0973,-0.1721,0.4205,1.2813,2.5227,3.0528,3.5788,4.1449,4.4288,4.5728,4.5797,4.577,4.5687,4.5534,4.575,4.5708,4.5438,4.5616,4.5684,4.5651,4.5718,4.5775,4.5814,4.6441,4.6938,4.7406,4.88,4.9579,4.9867,4.9623,5.0151,5.0823,5.001,5.0117,5.0604,5.0524,5.0441,5.0403,5.0584,5.0619,5.0665,5.0874,5.0959,5.0973,5.0989,5.0538,4.9869,4.9083,4.8337,4.7775,4.7605,4.8038,4.8462,4.8408,4.8924,4.93,4.9001,4.8669,4.8594,4.9041,4.9107,4.9561,5.0909,5.1783,5.2217,5.202,5.2312,5.2666,5.2916,5.307,5.3271,5.3547,5.4254,5.4201,5.3185,5.3542,5.3764,5.3803,5.3885,5.3838,5.3613,5.3613,5.3476,5.3203,5.259,5.2265,-3.2683,-3.4052,-3.5174,-3.7067,-3.8132,-3.9052,-4.0318,-4.041,-4.0442,-4.1214,-4.1219,-4.1104,-4.1176,-4.0718,-4.0444,-4.0834,-4.1244,-4.1358,-4.1007,-4.0812,-3.9734,-3.6952,-3.2013,-2.6918,-2.2,-1.2159,-0.2612,0.576,1.3968,2.3179,3.366,3.671,4.0287,4.5012,4.5456,4.5659,4.5796,4.5735,4.5648,4.5534,4.5719,4.5696,4.5513,4.5654,4.5651,4.5601,4.6044,4.624,4.6332,4.755,4.8111,4.8309,4.9621,5.0215,5.034,5.0331,5.075,5.1235,5.0747,5.0933,5.1386,5.1316,5.1263,5.1228,5.1208,5.1152,5.112,5.1159,5.1133,5.1083,5.115,5.1152,5.0975,5.0259,4.9618,4.9136,4.8971,4.9374,4.9699,4.9554,4.9982,5.0255,4.9884,4.9522,4.9353,4.9656,4.9801,5.024,5.1331,5.2448,5.3032,5.2743,5.3185,5.3679,5.4052,5.3851,5.3831,5.4207,5.4506,5.4376,5.3765,5.4174,5.423,5.3899,5.3951,5.3828,5.3476,5.3476,5.3288,5.2887,5.2348,5.2039,-3.3671,-3.5655,-3.7231,-3.8443,-3.9334,-4.0296,-4.181,-4.1515,-4.0925,-4.1008,-4.1241,-4.1362,-4.1136,-4.1175,-4.1313,-4.1571,-4.2225,-4.2207,-4.0784,-3.8761,-3.6584,-3.4355,-2.6724,-2.0919,-1.9001,-0.5323,0.5041,0.8977,2.4013,3.3813,3.5692,4.1989,4.5378,4.505,4.5381,4.5637,4.577,4.5735,4.5668,4.5586,4.5673,4.5637,4.5531,4.564,4.5586,4.5458,4.6473,4.691,4.7041,4.8792,4.9504,4.9614,5.0482,5.089,5.099,5.1009,5.1123,5.1288,5.1299,5.1346,5.1387,5.1328,5.1308,5.1307,5.1238,5.1172,5.116,5.1258,5.1269,5.1253,5.1381,5.1396,5.133,5.1081,5.0926,5.0805,5.079,5.0745,5.0696,5.0567,5.0548,5.0298,4.9432,4.9872,5.0101,4.9373,5.0779,5.1951,5.195,5.2848,5.3255,5.2593,5.3193,5.3979,5.4827,5.4231,5.4179,5.5033,5.439,5.3971,5.3894,5.4729,5.4805,5.4023,5.4004,5.3613,5.2812,5.281,5.2341,5.1414,5.1356,5.1234,-3.4413,-3.5193,-3.5962,-3.9621,-4.0635,-4.0782,-4.1007,-4.1019,-4.1164,-4.1787,-4.1398,-4.1142,-4.1754,-4.1254,-4.1117,-4.2259,-4.2544,-3.8928,-2.8333,-2.6951,-2.1751,-0.7547,-0.9217,-0.6823,0.5233,0.3818,0.9004,2.5395,2.9648,3.45,4.1467,4.3874,4.4893,4.455,4.508,4.5458,4.5649,4.5687,4.568,4.5603,4.5723,4.5737,4.5668,4.5637,4.5586,4.5607,4.6506,4.6906,4.7039,4.8842,4.9589,4.9666,5.0535,5.0913,5.0921,5.0971,5.1048,5.1156,5.1268,5.1308,5.1328,5.1367,5.1387,5.1386,5.1355,5.1357,5.1342,5.1362,5.1381,5.1357,5.139,5.139,5.1381,5.1322,5.1142,5.0932,5.0832,5.0871,5.0921,5.0906,5.0981,5.0965,5.071,5.0626,5.0563,5.0373,5.1415,5.2206,5.2206,5.2995,5.3552,5.3433,5.3613,5.3857,5.4106,5.4033,5.4029,5.4252,5.4108,5.3698,5.301,5.3823,5.4199,5.4004,5.4004,5.3906,5.3711,5.3677,5.3495,5.3205,5.2492,5.2028,-3.3386,-3.4433,-3.5363,-3.8961,-4.0296,-4.0696,-4.0661,-4.0509,-4.0587,-4.1296,-4.1149,-4.0975,-4.1206,-4.1285,-4.1638,-4.2597,-3.7675,-3.1267,-2.4173,-1.6522,-0.8051,0.161,0.216,0.5017,1.3286,1.5125,2.0135,3.0648,3.5146,3.9109,4.2999,4.4269,4.4778,4.4588,4.508,4.5438,4.5664,4.5668,4.5696,4.5687,4.5776,4.5771,4.57,4.6059,4.6217,4.6292,4.7578,4.8152,4.8285,4.9666,5.022,5.0275,5.072,5.0909,5.089,5.0951,5.1009,5.1106,5.1181,5.1238,5.1261,5.1301,5.1301,5.1304,5.1299,5.1305,5.1308,5.1347,5.1346,5.1364,5.1382,5.1406,5.1396,5.1396,5.1269,5.1111,5.1042,5.1063,5.1108,5.1108,5.1146,5.119,5.1139,5.1037,5.0942,5.0947,5.1425,5.1769,5.1761,5.2522,5.3098,5.3174,5.3585,5.3884,5.393,5.3592,5.3379,5.3379,5.2988,5.2558,5.2109,5.2519,5.2744,5.2699,5.2719,5.2688,5.2611,5.2582,5.2515,5.2396,5.1906,5.158,-3.1831,-3.3825,-3.5537,-3.8001,-3.9396,-4.021,-4.0333,-4.0014,-3.9725,-3.9865,-4.0111,-4.0413,-4.0788,-4.1248,-4.1197,-3.9989,-3.0944,-2.2377,-1.751,-0.4694,0.5345,0.8442,1.2716,1.6175,1.821,2.59,3.1273,3.2512,3.975,4.372,4.2868,4.4073,4.4773,4.4796,4.5203,4.5512,4.57,4.587,4.5963,4.6032,4.6182,4.622,4.6194,4.7012,4.7227,4.7,4.8767,4.9553,4.9663,5.0516,5.0877,5.089,5.0874,5.0874,5.0906,5.0906,5.0983,5.1076,5.1099,5.114,5.1191,5.1191,5.1191,5.12,5.1206,5.1206,5.1224,5.1261,5.1291,5.1301,5.1361,5.1382,5.139,5.1406,5.1341,5.1291,5.1308,5.1269,5.1219,5.1219,5.121,5.1201,5.121,5.121,5.1229,5.1219,5.1219,5.1222,5.1218,5.185,5.2317,5.2381,5.305,5.3497,5.3556,5.2886,5.248,5.248,5.1796,5.1406,5.1406,5.1384,5.1336,5.1281,5.1277,5.1218,5.1089,5.107,5.0995,5.0914,5.0875,5.0818,-3.0996,-3.4177,-3.7055,-3.8703,-3.9181,-3.9296,-3.9374,-3.9504,-3.9142,-3.7386,-3.7301,-3.8674,-4.2399,-4.1127,-3.6895,-2.8942,-2.5602,-1.5757,0.7887,1.3169,1.9358,3.2238,2.9052,2.8499,3.5411,3.2266,3.2591,3.9412,4.1773,4.3032,4.33,4.4157,4.4682,4.48,4.5243,4.5568,4.5709,4.6522,4.692,4.694,4.769,4.8053,4.8063,4.8943,4.8473,4.7089,4.8836,4.9586,4.9663,5.0428,5.0791,5.089,5.0773,5.0808,5.0906,5.0906,5.0952,5.1015,5.1076,5.1149,5.1199,5.1199,5.1199,5.1203,5.1201,5.1242,5.1284,5.1224,5.1264,5.1301,5.131,5.1313,5.1335,5.1384,5.1348,5.1299,5.131,5.1291,5.1283,5.1283,5.1249,5.1226,5.1277,5.1293,5.1293,5.1299,5.1284,5.1284,5.1288,5.1386,5.148,5.154,5.1658,5.1738,5.1745,5.1631,5.1576,5.1576,5.1469,5.1408,5.14,5.1291,5.1201,5.1133,5.1192,5.1181,5.1109,5.0979,5.091,5.0914,5.0779,5.0721,-3.039,-3.389,-3.6539,-3.7411,-3.8343,-3.895,-3.8595,-3.8191,-3.7744,-3.7194,-3.4286,-3.3466,-3.8645,-3.3882,-2.7848,-2.3786,-1.1056,0.2628,1.4868,2.3478,3.1075,3.7871,3.6205,3.5953,3.9729,3.7769,3.7867,4.1774,4.27,4.3367,4.4058,4.4501,4.4849,4.518,4.5476,4.5657,4.5754,4.6535,4.7204,4.7712,4.8034,4.824,4.8372,4.9164,4.9164,4.857,4.9792,5.0301,5.0235,5.0565,5.0738,5.0791,5.0771,5.0839,5.0947,5.1004,5.103,5.1056,5.1089,5.1087,5.1083,5.1083,5.1083,5.1078,5.105,5.1086,5.1132,5.1141,5.1176,5.1199,5.1224,5.1269,5.132,5.1346,5.1359,5.1367,5.1359,5.1294,5.1249,5.1249,5.1218,5.1203,5.124,5.1238,5.1238,5.1235,5.1281,5.1305,5.1305,5.1328,5.1365,5.1398,5.1396,5.1394,5.1405,5.1405,5.1391,5.1398,5.1405,5.1377,5.1296,5.123,5.1134,5.0977,5.1026,5.0989,5.0873,5.0816,5.0779,5.0798,5.0721,5.0605,-2.976,-3.2819,-3.4948,-3.6273,-3.739,-3.8133,-3.7986,-3.6612,-3.5359,-3.5518,-3.1229,-2.8243,-3.0922,-2.6516,-2.1167,-1.7053,0.0049,1.4728,2.006,3.08,3.8343,3.8914,3.954,4.0087,4.0546,4.1313,4.2068,4.2643,4.3314,4.3967,4.4553,4.4849,4.5159,4.5495,4.5657,4.5854,4.6128,4.7069,4.7995,4.8855,4.8792,4.8827,4.8941,4.9485,4.9809,4.9993,5.0552,5.0736,5.0664,5.0625,5.0625,5.0663,5.0735,5.0851,5.0976,5.1069,5.1117,5.1117,5.1093,5.1056,5.1017,5.099,5.0976,5.0981,5.0921,5.0952,5.1017,5.1042,5.1066,5.1081,5.1139,5.1193,5.1232,5.1226,5.1299,5.1363,5.1372,5.1263,5.1171,5.121,5.1209,5.1188,5.121,5.123,5.123,5.125,5.1286,5.1338,5.1338,5.1359,5.1406,5.1406,5.141,5.139,5.139,5.1394,5.1402,5.1394,5.1371,5.131,5.12,5.1152,5.1058,5.0893,5.0874,5.0797,5.0702,5.0702,5.0702,5.0702,5.0702,5.0504,-2.8988,-3.0704,-3.2363,-3.6207,-3.6502,-3.6218,-3.7596,-3.4743,-3.1551,-3.0427,-2.8033,-2.4328,-1.8522,-2.1887,-2.0556,-0.5133,0.1382,1.0981,2.96,3.6001,3.8914,3.9379,4.0137,4.0594,4.0594,4.1824,4.2643,4.2681,4.3844,4.4553,4.4599,4.514,4.5457,4.5495,4.5703,4.6186,4.7017,4.8778,4.9988,5.0675,5.0801,5.0747,5.0578,5.06,5.0638,5.0638,5.0548,5.0507,5.0486,5.0374,5.0421,5.0625,5.0605,5.0733,5.0921,5.1056,5.1139,5.1171,5.1056,5.1043,5.1081,5.0952,5.0906,5.0906,5.0906,5.0952,5.099,5.0937,5.0947,5.1004,5.1017,5.1049,5.1086,5.1024,5.1171,5.1303,5.1313,5.12,5.1137,5.1277,5.1191,5.1142,5.1271,5.1284,5.133,5.138,5.138,5.138,5.138,5.14,5.1394,5.1394,5.1391,5.1401,5.1401,5.141,5.1394,5.1394,5.1284,5.1217,5.1195,5.1017,5.0921,5.0906,5.0776,5.0721,5.0702,5.0702,5.0683,5.0702,5.0702,5.0504,-2.6823,-2.8819,-3.0928,-3.3225,-3.418,-3.433,-3.3486,-3.1835,-2.9766,-2.7209,-2.147,-1.6067,-1.3278,-1.0622,-0.5052,0.6567,1.6037,2.5381,3.5375,3.7931,3.9152,4.007,4.0449,4.0949,4.1848,4.2393,4.3049,4.3844,4.4354,4.4757,4.5161,4.5381,4.5566,4.5687,4.575,4.6375,4.7606,4.8295,4.9277,5.0547,5.0446,5.0467,5.0567,5.0425,5.0358,5.0313,5.031,5.0374,5.044,5.0374,5.0396,5.0483,5.0527,5.0643,5.0784,5.0874,5.0978,5.1069,5.1017,5.0956,5.0913,5.0947,5.0902,5.0855,5.089,5.0887,5.0883,5.0947,5.0932,5.0898,5.1043,5.1056,5.0998,5.0889,5.0932,5.0979,5.0977,5.0933,5.0972,5.1131,5.1128,5.115,5.1273,5.1289,5.1316,5.1323,5.133,5.1343,5.1343,5.1369,5.1394,5.1394,5.1411,5.1396,5.1396,5.141,5.1362,5.1284,5.123,5.1133,5.0998,5.0928,5.0858,5.0757,5.0721,5.0702,5.0702,5.0702,5.0604,5.038,5.038,5.0068,-2.4946,-2.7123,-2.9569,-3.1601,-3.2546,-3.2641,-3.1285,-2.9385,-2.6595,-2.1805,-1.4933,-0.8582,-0.4474,0.0768,0.6374,1.235,2.1513,2.9832,3.5385,3.7476,3.8945,4.0414,4.0767,4.1385,4.2587,4.2996,4.356,4.4527,4.4781,4.5096,4.5476,4.5566,4.5651,4.581,4.6321,4.7056,4.7991,4.8606,4.9413,5.0402,5.0287,5.0287,5.0358,5.0259,5.0182,5.0133,5.0188,5.0259,5.0329,5.0329,5.0348,5.0393,5.0485,5.0606,5.0661,5.0742,5.0825,5.0894,5.0863,5.0764,5.0713,5.0784,5.0733,5.068,5.0717,5.0717,5.068,5.08,5.075,5.0698,5.0863,5.0832,5.0767,5.0778,5.0675,5.0586,5.0677,5.0711,5.0797,5.0959,5.1005,5.1042,5.122,5.1256,5.13,5.13,5.1296,5.1303,5.1303,5.133,5.1375,5.1375,5.1375,5.1386,5.1391,5.1401,5.1347,5.1203,5.115,5.1061,5.0902,5.0858,5.0793,5.0683,5.0702,5.0702,5.0682,5.0702,5.0523,5.0183,5.0183,4.9773,0.0,0.0,0.0,-3.1523,-3.1529,-3.082,-3.117,-2.727,-2.142,-1.4043,-0.8905,-0.2434,0.8039,1.1242,1.2268,1.224,1.6583,2.2637,3.009,3.4891,3.8329,4.0349,4.1122,4.1835,4.2643,4.3545,4.4243,4.458,4.5161,4.5495,4.5495,4.5668,4.5815,4.5858,4.7352,4.8172,4.8229,4.983,5.0568,5.0393,5.0464,5.0336,5.0108,5.0182,5.0188,5.0188,5.0278,5.0278,5.0188,5.0188,5.0236,5.0325,5.0526,5.0587,5.0606,5.0657,5.069,5.0673,5.0529,5.0491,5.049,5.0427,5.0404,5.0404,5.0404,5.0404,5.0404,5.0486,5.0446,5.0404,5.0486,5.0399,5.0377,5.0603,5.0387,5.0163,5.0423,5.0527,5.0644,5.0758,5.079,5.0855,5.1049,5.1191,5.1292,5.1292,5.13,5.13,5.13,5.13,5.13,5.13,5.1303,5.1336,5.1388,5.1386,5.1336,5.1195,5.1063,5.0953,5.0887,5.0757,5.0702,5.0702,5.0702,5.0643,5.0582,5.0643,5.0483,5.0068,5.0068,4.9617,-2.3605,0.0,0.0,0.0,0.0,0.0,-2.479,-1.7707,-1.0038,-0.9511,-0.2975,0.4122,0.897,1.4888,1.9335,1.9978,2.3255,2.7853,3.4194,3.6798,3.8652,4.0391,4.1115,4.2003,4.33,4.3844,4.4327,4.4919,4.5302,4.5513,4.5568,4.5531,4.6069,4.728,4.7146,4.7587,4.8706,4.9209,4.9698,5.0114,5.0139,5.0139,5.0108,5.0133,5.0139,5.0188,5.0278,5.0302,5.0278,5.0278,5.0278,5.0302,5.0352,5.0374,5.0396,5.0402,5.0445,5.0486,5.0423,5.0358,5.0291,5.0383,5.0358,5.0352,5.0402,5.0358,5.0355,5.0469,5.0408,5.0342,5.0404,5.0383,5.0339,5.0272,5.0193,5.0133,5.0188,5.0236,5.0291,5.0489,5.0548,5.0624,5.0723,5.0966,5.115,5.1089,5.121,5.13,5.13,5.13,5.13,5.13,5.1303,5.1296,5.1256,5.1217,5.1103,5.0932,5.0825,5.0748,5.0683,5.0604,5.0582,5.0623,5.0336,5.0183,5.0178,5.0225,5.0087,4.9721,4.9182,4.88,-2.3529,-2.3869,-2.4603,-2.5951,0.0,0.0,-1.8882,-1.2577,-0.534,-0.2343,0.3181,0.8935,1.3709,1.8915,2.3189,2.537,2.7409,3.0314,3.4785,3.6954,3.8797,4.0723,4.1313,4.2085,4.3542,4.3955,4.4505,4.5432,4.5717,4.5992,4.6337,4.6317,4.6776,4.7731,4.7656,4.8034,4.8934,4.9272,4.9638,5.0005,5.0005,5.0005,5.0031,5.0082,5.0108,5.0114,5.0231,5.0255,5.0207,5.0207,5.0231,5.0255,5.0255,5.0255,5.0207,5.0182,5.0207,5.0212,5.0188,5.0163,5.0139,5.0197,5.0193,5.0188,5.0221,5.0193,5.0163,5.0252,5.023,5.0197,5.0197,5.0178,5.0174,5.0063,5.0031,5.0031,5.0057,4.9933,4.9914,5.0221,5.0361,5.0469,5.051,5.0758,5.0912,5.0879,5.1078,5.122,5.122,5.1276,5.13,5.13,5.1289,5.1253,5.1162,5.1113,5.1004,5.0784,5.0713,5.0663,5.0563,5.0521,5.0459,5.0355,5.0111,4.9846,4.9532,4.9746,4.9664,4.929,4.8677,4.8419,-2.3431,-2.3093,-2.2894,-2.305,-1.9105,0.0,-1.2349,-0.8218,-0.2395,0.6229,0.9514,1.3138,2.04,2.2958,2.5129,2.8669,2.9927,3.124,3.3557,3.6079,3.8623,4.1093,4.1429,4.2096,4.3652,4.4085,4.4806,4.6088,4.6326,4.6739,4.7485,4.7543,4.7652,4.7865,4.8571,4.9014,4.911,4.9752,5.0057,5.0005,5.0005,4.9978,4.9925,5.0031,5.0057,5.0031,5.0158,5.0158,5.0108,5.0108,5.0133,5.0188,5.0188,5.0158,5.0082,5.0031,5.0005,5.0005,4.9952,4.9933,5.0005,5.0005,5.0005,5.0005,5.0005,4.9933,4.9906,4.9959,5.0005,4.9978,4.9925,4.9898,4.9925,4.9959,4.9933,4.9925,4.9933,4.9636,4.9518,4.9887,5.013,5.0298,5.0298,5.051,5.0673,5.0673,5.0884,5.1062,5.1105,5.1191,5.1292,5.13,5.1292,5.1219,5.1081,5.1058,5.094,5.0678,5.0661,5.0606,5.0481,5.0478,5.031,4.9993,4.9898,4.9532,4.8829,4.9234,4.9202,4.8829,4.8458,4.8306,0.0,0.0,0.0,0.0,0.0,0.0,0.0,0.7655,1.5031,1.2648,1.588,2.0253,2.3869,2.6622,2.8622,2.9446,3.1914,3.4046,3.5074,3.6234,3.7932,4.033,4.1024,4.215,4.4287,4.5003,4.5707,4.6666,4.6898,4.7427,4.8384,4.7712,4.795,4.9409,4.8991,4.9067,4.9713,4.9857,4.9933,4.9925,4.9925,4.9952,4.9978,5.0005,5.0057,5.0082,5.0108,5.0108,5.0108,5.0108,5.0108,5.0133,5.0133,5.0108,5.0108,5.0082,5.0057,5.0005,5.0057,5.0005,4.9925,4.9978,5.0005,5.0005,4.9952,4.9952,4.9978,4.9925,4.9925,4.9925,4.9879,4.9898,4.9879,4.9925,4.9925,4.9824,4.9577,4.9476,4.9334,4.9118,4.9382,4.9655,4.9598,5.0092,5.0469,5.0469,5.064,5.087,5.1062,5.1128,5.1171,5.1292,5.1191,5.1086,5.0945,5.0781,5.0644,5.0462,5.0418,5.0396,5.0435,5.0371,5.0193,4.9936,4.9363,4.8832,4.8421,4.8763,4.8781,4.8439,4.8344,4.8306,0.0,0.0,0.0,-0.4758,0.0,0.0,0.0,0.0,1.8663,1.7618,1.9304,2.1925,2.494,2.6684,2.8232,3.0061,3.2247,3.4271,3.5826,3.7413,3.9008,4.0664,4.1623,4.2723,4.4214,4.4759,4.5538,4.6797,4.7786,4.8445,4.8769,4.8491,4.8719,4.9617,4.9363,4.9427,4.9898,4.9898,4.9898,4.9898,4.9898,4.9925,4.9933,4.9959,5.0005,5.0005,5.0031,5.0031,5.0005,5.0005,5.0005,5.0005,5.0031,5.0031,4.9986,5.0031,5.0031,4.9986,5.0031,5.0031,5.0005,5.0005,5.0005,5.0005,4.9978,4.9952,4.9933,4.9925,4.9898,4.9993,5.0429,5.022,4.9966,5.0174,4.9937,4.9548,4.9169,4.899,4.8783,4.8605,4.873,4.9005,4.9334,4.9712,5.0012,5.0174,5.0427,5.0641,5.0781,5.0889,5.0972,5.1047,5.0985,5.0889,5.0767,5.0663,5.0526,5.0348,5.0325,5.0302,5.0348,5.0325,5.0076,4.9599,4.89,4.8458,4.8306,4.8458,4.8458,4.8306,4.8306,4.8306,0.0,0.0,0.0,0.0,0.0,1.2754,0.0,0.0,0.0,2.1948,2.219,2.2824,2.5804,2.6491,2.753,3.0422,3.1853,3.3325,3.5431,3.753,3.9349,4.0782,4.1812,4.2852,4.3931,4.4579,4.5481,4.6971,4.834,4.9089,4.8993,4.9257,4.9415,4.9446,4.9644,4.9788,4.9898,4.9898,4.9898,4.9898,4.9871,4.9824,4.9797,4.9805,4.9731,4.9693,4.9731,4.9703,4.9693,4.9693,4.9722,4.9824,4.9933,4.9952,4.9906,4.9978,5.0005,5.0005,5.0005,5.0031,5.0057,5.0005,5.0005,4.9978,4.9978,4.9933,4.9917,5.0088,5.0144,5.0334,5.1102,5.0686,5.0109,5.0397,4.9883,4.9188,4.88,4.8495,4.8267,4.819,4.819,4.8402,4.9057,4.9283,4.948,4.9833,5.013,5.0361,5.0486,5.0623,5.0742,5.079,5.0758,5.0677,5.0587,5.0567,5.0464,5.0302,5.0302,5.0302,5.0302,5.0188,4.9884,4.9424,4.8746,4.8402,4.8402,4.8402,4.8364,4.8306,4.8306,4.8306,0.0,0.0,0.0,0.0,1.5304,0.0,0.0,0.0,2.5793,2.6132,0.0,2.7403,0.0,0.0,0.0,3.0394,3.1236,3.2089,3.2849,3.3899,3.5862,3.9308,4.0018,4.1305,4.4005,4.5686,4.6922,4.7634,4.7946,4.844,4.9315,4.9384,4.9476,4.9663,4.9816,4.9879,4.9898,4.9898,4.9898,4.9898,4.9759,4.9615,4.9446,4.9164,4.8982,4.8919,4.8795,4.8813,4.89,4.89,4.9137,4.9506,4.9797,4.9933,4.9978,4.9925,4.9952,5.0005,5.0005,4.9978,4.9933,4.9978,4.9978,4.9906,4.9906,4.9925,5.005,5.0827,5.1054,5.1168,5.1607,5.1149,5.0434,5.0145,4.9445,4.8781,4.8439,4.8344,4.819,4.7824,4.7783,4.7888,4.8326,4.8694,4.9052,4.948,4.9598,4.983,5.0425,5.0467,5.0529,5.0774,5.0586,5.0448,5.0507,5.0355,5.0236,5.0212,5.0278,5.0302,5.0302,4.973,4.9512,4.973,4.908,4.8746,4.8746,4.8746,4.8586,4.8306,4.8306,4.8306,0.0,0.0,0.0,0.0,0.0,0.0,2.5887,0.0,2.6253,0.0,0.0,0.0,0.0,0.0,0.0,0.0,2.9889,3.079,0.0,0.0,3.39,3.7668,0.0,3.969,4.2739,4.4449,4.5881,4.7087,4.7772,4.8502,4.9358,4.9415,4.9476,4.9692,4.9625,4.9655,4.9788,4.948,4.9321,4.9321,4.9099,4.8952,4.8866,4.876,4.8725,4.8674,4.8709,4.8763,4.8816,4.8816,4.8885,4.9071,4.9233,4.9539,4.9933,4.9933,4.9978,5.0005,5.0005,4.9978,4.9952,4.9952,4.9906,4.9947,5.0202,5.0478,5.0799,5.1371,5.1537,5.1694,5.2395,5.1765,5.0966,5.1081,5.045,4.9616,4.8835,4.8639,4.8452,4.7832,4.8098,4.8448,4.8639,4.8928,4.9436,5.0362,5.0309,5.0455,5.1204,5.0672,5.0459,5.1075,5.06,5.024,5.0264,5.0188,5.0158,5.0188,5.0278,5.0302,5.0302,4.9674,4.9363,4.9512,4.9048,4.8816,4.8816,4.9001,4.9015,4.8866,4.8495,4.8306,1.7894,0.0,0.0,0.0,0.0,2.9925,0.0,0.0,0.0,0.0,0.0,0.0,0.0,0.0,0.0,0.0,0.0,2.9333,0.0,2.9874,0.0,0.0,0.0,0.0,0.0,4.2408,4.4224,4.5395,4.6967,4.8164,4.8832,4.9043,4.9239,4.9334,4.9252,4.9252,4.9365,4.9001,4.8795,4.8795,4.8531,4.8384,4.8347,4.831,4.8291,4.8254,4.8328,4.8365,4.8403,4.8403,4.8477,4.8604,4.8604,4.9001,4.9617,4.9797,4.9852,4.986,4.9933,4.9978,4.9959,4.9925,4.9976,5.0194,5.0621,5.096,5.1318,5.1931,5.2038,5.2124,5.2879,5.2215,5.1431,5.1655,5.1096,5.0167,4.9119,4.9075,4.9003,4.8206,4.8695,4.9311,4.9528,4.9567,4.9918,5.0897,5.0906,5.1091,5.182,5.1225,5.0988,5.1668,5.1121,5.0646,5.0463,5.0444,5.0355,5.0207,5.0231,5.0255,5.0278,4.9721,4.9442,4.9531,4.9227,4.9001,4.8919,4.9271,4.9345,4.9145,4.8763,4.8513,1.8162,1.9976,2.1925,2.903,3.1014,3.0633,2.8134,2.9055,2.973,0.0,0.0,0.0,0.0,0.0,0.0,0.0,0.0,0.0,0.0,0.0,0.0,0.0,0.0,0.0,0.0,3.9755,4.2389,4.2424,4.5121,4.6967,4.742,4.818,4.8569,4.8458,4.8567,4.8584,4.8531,4.8531,4.8495,4.8495,4.831,4.8119,4.7901,4.7627,4.745,4.7345,4.7294,4.7294,4.7345,4.7345,4.7669,4.8135,4.8135,4.8421,4.8885,4.9252,4.9457,4.9558,4.9824,4.9879,4.9879,4.9898,5.0212,5.066,5.1055,5.118,5.1416,5.2554,5.2619,5.2455,5.2803,5.2394,5.1765,5.1401,5.0714,4.9916,4.9094,4.951,4.9818,4.9039,4.951,5.0289,5.1086,5.0605,5.0192,5.0556,5.0933,5.1372,5.1863,5.216,5.2399,5.2536,5.2427,5.203,5.1315,5.1258,5.0976,5.0245,5.0158,5.0133,5.0188,4.9814,4.9731,5.0082,4.9814,4.9521,4.9182,4.9589,4.9453,4.8816,4.9145,4.908,3.1121,3.1655,3.1714,3.2041,3.2814,3.2713,2.9794,3.0273,3.0693,0.0,0.0,0.0,0.0,0.0,0.0,0.0,0.0,0.0,0.0,0.0,0.0,0.0,0.0,0.0,0.0,0.0,0.0,0.0,4.4623,4.6717,4.7485,4.8143,4.8495,4.8531,4.8403,4.8329,4.831,4.7999,4.7834,4.7816,4.7524,4.7371,4.7302,4.7294,4.7267,4.7223,4.7249,4.7276,4.732,4.7407,4.7536,4.7728,4.8093,4.8172,4.8153,4.8781,4.9019,4.9052,4.915,4.9182,4.9182,4.9182,4.9594,5.0152,5.0655,5.1306,5.2028,5.2821,5.2884,5.2752,5.2877,5.2462,5.2027,5.1989,5.1744,5.1375,5.0651,5.0687,5.0651,4.9854,5.0325,5.0977,5.1249,5.1457,5.1665,5.201,5.2017,5.2289,5.3187,5.2755,5.2627,5.3253,5.2769,5.2305,5.2049,5.1573,5.119,5.0938,5.0406,5.0108,5.0133,4.9787,4.9655,4.9759,4.9712,4.9637,4.9521,4.9929,5.0006,4.9803,4.9674,4.9333,3.7802,3.747,3.6848,3.4368,3.4467,3.4414,3.1663,3.2229,3.2713,3.0551,3.057,0.0,0.0,0.0,0.0,0.0,0.0,0.0,0.0,2.5439,0.0,0.0,0.0,0.0,0.0,0.0,0.0,0.0,0.0,0.0,0.0,4.7332,4.7805,4.8139,4.7941,4.782,4.7779,4.7457,4.7338,4.7338,4.7116,4.6998,4.698,4.7088,4.7133,4.7133,4.716,4.7187,4.7187,4.7294,4.7338,4.7425,4.7788,4.7788,4.7723,4.8495,4.8816,4.8816,4.8816,4.8816,4.8872,4.915,4.9639,5.021,5.1001,5.1731,5.2348,5.248,5.2663,5.2652,5.2209,5.2116,5.2198,5.2198,5.2264,5.2029,5.1088,5.1347,5.1438,5.0407,5.1049,5.1719,5.1674,5.2062,5.248,5.2831,5.2766,5.3032,5.3994,5.3559,5.3421,5.4067,5.3631,5.3177,5.2892,5.2125,5.1706,5.1733,5.1228,5.0924,5.095,5.0723,5.061,5.061,5.0392,5.0241,5.0109,5.0247,5.0236,5.012,4.9884,4.9589]},{"header":{"parameterUnit":"m.s-1","parameterCategory":1,"la1":30.6,"la2":29.2853,"lo1":-89.7004,"lo2":-87.6739,"dx":0.0162,"dy":0.0183,"nx":112,"ny":82,"refTime":"2022-12-23T06:00:00:Z","depth":0,"parameterNumber":3,"parameterNumberName":"V-component_of_WINDS"},"data":[0.0,0.0,0.0,0.0,0.0,0.0,0.0,0.0,0.0,0.0,0.0,0.0,0.0,0.0,0.0,0.0,0.0,0.0,0.0,0.0,0.0,0.0,0.0,0.0,0.0,0.0,0.0,0.0,0.0,0.0,0.0,0.0,0.0,0.0,0.0,0.0,0.0,0.0,0.0,0.0,0.0,0.0,0.0,0.0,0.0,0.0,0.0,0.0,0.0,0.0,0.0,0.0,0.0,0.0,0.0,0.0,0.0,0.0,0.0,0.0,0.0,0.0,0.0,0.0,0.0,0.0,0.0,0.0,0.0,0.0,0.0,0.0,0.0,0.0,0.0,0.0,0.0,0.0,0.0,0.0,0.0,0.0,0.0,0.0,0.0,0.0,0.0,0.0,0.0,0.0,-0.5676,-0.6693,-0.7436,-0.7242,-0.5793,-0.4703,-0.2874,-0.0056,0.0,0.0,0.0,0.0,0.0,0.0,0.0,0.0,0.0,0.0,0.0,0.0,0.0,0.0,0.0,0.0,0.0,0.0,0.0,0.0,0.0,0.0,0.0,0.0,0.0,0.0,0.0,0.0,0.0,0.0,0.0,0.0,0.0,0.0,0.0,0.0,0.0,0.0,0.0,0.0,0.0,0.0,0.0,0.0,0.0,0.0,0.0,0.0,0.0,0.0,0.0,0.0,0.0,0.0,0.0,0.0,0.0,0.0,0.0,0.0,0.0,0.0,0.0,0.0,0.0,0.0,0.0,0.0,0.0,0.0,0.0,0.0,0.0,0.0,0.0,0.0,0.0,0.0,0.0,0.0,0.0,0.0,0.0,0.0,0.0,0.0,0.0,0.0,0.0,0.0,0.0,0.0,0.0,0.0,0.0,0.0,0.0,0.0,0.0,0.0,0.0,0.0,0.0,0.0,-0.4852,-0.9032,-0.8489,-0.7618,-0.7212,-0.5196,-0.2872,-0.0448,0.0,0.0,0.0,0.0,0.0,0.0,0.0,0.0,0.0,0.0,0.0,0.0,0.0,0.0,0.0,0.0,0.0,0.0,0.0,0.0,0.0,0.0,0.0,0.0,0.0,0.0,0.0,0.0,0.0,0.0,0.0,0.0,0.0,0.0,0.0,0.0,0.0,0.0,0.0,0.0,0.0,0.0,0.0,0.0,0.0,0.0,0.0,0.0,0.0,0.0,0.0,0.0,0.0,0.0,0.0,0.0,0.0,0.0,0.0,0.0,0.0,0.0,0.0,0.0,0.0,0.0,0.0,0.0,0.0,0.0,0.0,0.0,0.0,0.0,0.0,0.0,0.0,0.0,0.0,0.0,0.0,0.0,0.0,0.0,0.0,0.0,0.0,0.0,0.0,0.0,0.0,0.0,0.0,0.0,0.0,0.0,0.0,0.0,0.0,0.0,0.0,0.0,0.0,-0.4303,-0.6776,-1.0199,-1.1558,-1.1007,-0.7753,-0.8057,-0.609,-0.0559,-0.0902,0.0,0.0,0.0,0.0,0.0,0.0,0.0,0.0,0.0,0.0,0.0,0.0,0.0,0.0,0.0,0.0,0.0,0.0,0.0,0.0,0.0,0.0,0.0,0.0,0.0,0.0,0.0,0.0,0.0,0.0,0.0,0.0,0.0,0.0,0.0,0.0,0.0,0.0,0.0,0.0,0.0,0.0,0.0,0.0,0.0,0.0,0.0,0.0,0.0,0.0,0.0,0.0,0.0,0.0,0.0,0.0,0.0,0.0,0.0,0.0,0.0,0.0,0.0,0.0,0.0,0.0,0.0,0.0,0.0,0.0,0.0,0.0,0.0,0.0,0.0,0.0,0.0,0.0,0.0,0.0,0.0,0.0,0.0,0.0,0.0,0.0,0.0,0.0,0.0,0.0,0.0,0.0,0.0,0.0,0.0,0.0,0.0,0.0,0.0,0.0,0.0,0.0,-0.7051,-0.967,-1.2407,-1.4706,-1.4229,-0.9614,-1.1044,-0.8865,-0.0949,-0.1412,0.0,0.0,0.0,0.0,0.0,0.0,0.0,0.0,0.0,0.0,0.0,0.0,0.0,0.0,0.0,0.0,0.0,0.0,0.0,0.0,0.0,0.0,0.0,0.0,0.0,0.0,0.0,0.0,0.0,0.0,0.0,0.0,0.0,0.0,0.0,0.0,0.0,0.0,0.0,0.0,0.0,0.0,0.0,0.0,0.0,0.0,0.0,0.0,0.0,0.0,0.0,0.0,0.0,0.0,0.0,0.0,0.0,0.0,0.0,0.0,0.0,0.0,0.0,0.0,0.0,0.0,0.0,0.0,0.0,0.0,0.0,0.0,0.0,0.0,0.0,0.0,0.0,0.0,0.0,0.0,0.0,0.0,0.0,0.0,0.0,0.0,0.0,0.0,0.0,0.0,0.0,0.0,0.0,0.0,0.0,0.0,0.0,0.0,0.0,0.0,0.0,0.0,-0.8205,-1.304,-1.7387,-1.6782,-1.5638,-1.4563,-1.2989,-0.911,-0.2119,-0.2115,0.0,0.0,0.0,0.0,0.0,0.0,0.0,0.0,0.0,0.0,0.0,0.0,0.0,0.0,0.0,0.0,0.0,0.0,0.0,0.0,0.0,0.0,0.0,0.0,0.0,0.0,0.0,0.0,0.0,0.0,0.0,0.0,0.0,0.0,0.0,0.0,0.0,0.0,0.0,0.0,0.0,0.0,0.0,0.0,0.0,0.0,0.0,0.0,0.0,0.0,0.0,0.0,0.0,0.0,0.0,0.0,0.0,0.0,0.0,0.0,0.0,0.0,0.0,0.0,0.0,0.0,0.0,0.0,0.0,0.0,0.0,0.0,0.0,0.0,0.0,0.0,0.0,0.0,0.0,0.0,0.0,0.0,0.0,0.0,0.0,0.0,0.0,0.0,0.0,0.0,0.0,0.0,0.0,0.0,0.0,0.0,0.0,0.0,0.0,0.0,0.0,0.0,-1.0439,-1.5783,-1.951,-2.2352,-2.2853,-1.999,-1.8046,-1.3972,-0.6844,0.0,0.0,0.0,0.0,0.0,0.0,0.0,0.0,0.0,0.0,0.0,0.0,0.0,0.0,0.0,0.0,0.0,0.0,0.0,0.0,0.0,0.0,0.0,0.0,0.0,0.0,0.0,0.0,0.0,0.0,0.0,0.0,0.0,0.0,0.0,0.0,0.0,0.0,0.0,0.0,0.0,0.0,0.0,0.0,0.0,0.0,0.0,0.0,0.0,0.0,0.0,0.0,0.0,0.0,0.0,0.0,0.0,0.0,0.0,0.0,0.0,0.0,0.0,0.0,0.0,0.0,0.0,0.0,0.0,0.0,0.0,0.0,0.0,0.0,0.0,0.0,0.0,0.0,0.0,0.0,0.0,0.0,0.0,0.0,0.0,0.0,0.0,0.0,0.0,0.0,0.0,0.0,0.0,0.0,0.0,0.0,0.0,0.0,0.0,0.0,0.0,0.0,-0.6535,-1.3222,-1.9384,-2.3355,-2.692,-2.7977,-2.5408,-2.3125,-1.8436,-1.0461,0.0,0.0,0.0,0.0,0.0,0.0,0.0,0.0,0.0,0.0,0.0,0.0,0.0,0.0,0.0,0.0,0.0,0.0,0.0,0.0,0.0,0.0,0.0,0.0,0.0,0.0,0.0,0.0,0.0,0.0,0.0,0.0,0.0,0.0,0.0,0.0,0.0,0.0,0.0,0.0,0.0,0.0,0.0,0.0,0.0,0.0,0.0,0.0,0.0,0.0,0.0,0.0,0.0,0.0,0.0,0.0,0.0,0.0,0.0,0.0,0.0,0.0,0.0,0.0,0.0,0.0,0.0,0.0,0.0,0.0,0.0,0.0,0.0,0.0,0.0,0.0,0.0,0.0,0.0,0.0,0.0,0.0,0.0,0.0,0.0,0.0,0.0,0.0,0.0,0.0,0.0,0.0,0.0,0.0,0.0,0.0,0.0,0.0,0.0,0.0,0.0,0.0,-0.9118,-1.6633,-2.3987,-2.9597,-2.9768,-2.9852,-3.0813,-2.7701,-2.1721,0.0,0.0,0.0,0.0,0.0,0.0,0.0,0.0,0.0,0.0,0.0,0.0,0.0,0.0,0.0,0.0,0.0,0.0,0.0,0.0,0.0,0.0,0.0,0.0,0.0,0.0,0.0,0.0,0.0,0.0,0.0,0.0,0.0,0.0,0.0,0.0,0.0,0.0,0.0,0.0,0.0,0.0,0.0,0.0,0.0,0.0,0.0,0.0,0.0,0.0,0.0,0.0,0.0,0.0,0.0,0.0,0.0,0.0,0.0,0.0,0.0,0.0,0.0,0.0,0.0,0.0,0.0,0.0,0.0,0.0,0.0,0.0,0.0,0.0,0.0,0.0,0.0,0.0,0.0,0.0,0.0,0.0,0.0,0.0,0.0,0.0,0.0,0.0,0.0,0.0,0.0,0.0,0.0,0.0,0.0,0.0,0.0,0.0,0.0,0.0,0.0,0.0,0.0,-0.9596,-1.9375,-2.7545,-3.0954,-3.2883,-3.4223,-3.4983,-3.0033,-2.5262,-2.1356,0.0,0.0,0.0,0.0,0.0,0.0,0.0,0.0,0.0,0.0,0.0,0.0,0.0,0.0,0.0,0.0,0.0,0.0,0.0,0.0,0.0,0.0,0.0,0.0,0.0,0.0,0.0,0.0,0.0,0.0,0.0,0.0,0.0,0.0,0.0,0.0,0.0,0.0,0.0,0.0,0.0,0.0,0.0,0.0,0.0,0.0,0.0,0.0,0.0,0.0,0.0,0.0,0.0,0.0,0.0,0.0,0.0,0.0,0.0,0.0,0.0,0.0,0.0,0.0,0.0,0.0,0.0,0.0,0.0,0.0,0.0,0.0,0.0,0.0,0.0,0.0,0.0,0.0,0.0,0.0,0.0,0.0,0.0,0.0,0.0,0.0,0.0,0.0,0.0,0.0,0.0,0.0,0.0,0.0,0.0,0.0,0.0,0.0,0.0,0.0,0.0,0.0,-1.1501,-2.2032,-3.0401,-3.305,-3.5258,-3.673,-3.7214,-3.3185,-2.9162,-2.5722,0.0,0.0,0.0,0.0,0.0,0.0,0.0,0.0,0.0,0.0,0.0,0.0,0.0,0.0,0.0,0.0,0.0,0.0,0.0,0.0,0.0,0.0,0.0,0.0,0.0,0.0,0.0,0.0,0.0,0.0,0.0,0.0,0.0,0.0,0.0,0.0,0.0,0.0,0.0,0.0,0.0,0.0,0.0,0.0,0.0,0.0,0.0,0.0,0.0,0.0,0.0,0.0,0.0,0.0,0.0,0.0,0.0,0.0,0.0,0.0,0.0,0.0,0.0,0.0,0.0,0.0,0.0,0.0,0.0,0.0,0.0,0.0,0.0,0.0,0.0,0.0,0.0,0.0,0.0,0.0,0.0,0.0,0.0,0.0,0.0,0.0,0.0,0.0,0.0,0.0,0.0,0.0,0.0,0.0,0.0,0.0,0.0,0.0,0.0,0.0,0.0,0.0,-1.4019,-2.4402,-3.26,-3.5358,-3.6961,-3.7888,-3.8047,-3.6559,-3.3127,-2.7279,0.0,0.0,0.0,0.0,0.0,0.0,0.0,0.0,0.0,0.0,0.0,0.0,0.0,0.0,0.0,0.0,0.0,0.0,0.0,0.0,0.0,0.0,0.0,0.0,0.0,0.0,0.0,0.0,0.0,0.0,0.0,0.0,0.0,0.0,0.0,0.0,0.0,0.0,0.0,0.0,0.0,0.0,0.0,0.0,0.0,0.0,0.0,0.0,0.0,0.0,0.0,0.0,0.0,0.0,0.0,0.0,0.0,0.0,0.0,0.0,-0.7283,-0.5241,0.0,0.0,0.0,0.0,0.0,0.0,0.0,0.0,0.0,0.0,0.0,0.0,0.0,0.0,0.0,0.0,0.0,0.0,0.0,0.0,0.0,0.0,0.0,0.0,0.0,0.0,0.0,0.0,0.0,0.0,0.0,0.0,0.0,0.0,0.0,0.0,0.0,0.0,0.0,0.0,-1.3205,-2.5179,-3.4184,-3.5745,-3.7692,-3.8984,-3.9223,-3.7577,-3.5507,-3.3097,-3.0979,0.0,0.0,0.0,0.0,0.0,0.0,0.0,0.0,0.0,0.0,0.0,0.0,0.0,0.0,0.0,0.0,0.0,0.0,0.0,0.0,0.0,0.0,0.0,0.0,0.0,0.0,0.0,0.0,0.0,0.0,0.0,0.0,0.0,0.0,0.0,0.0,0.0,0.0,0.0,0.0,0.0,0.0,0.0,0.0,0.0,0.0,0.0,0.0,0.0,0.0,0.0,0.0,0.0,0.0,0.0,0.0,0.0,0.0,0.0,-0.9372,-0.7933,0.0,0.0,0.0,0.0,0.0,0.0,0.0,0.0,0.0,0.0,0.0,0.0,0.0,0.0,0.0,0.0,0.0,0.0,0.0,0.0,0.0,0.0,0.0,0.0,0.0,0.0,0.0,0.0,0.0,0.0,0.0,0.0,0.0,0.0,0.0,0.0,0.0,0.0,0.0,0.0,-1.5417,-2.6903,-3.5484,-3.715,-3.8874,-3.9745,-3.9477,-3.8403,-3.6826,-3.4652,-3.2219,0.0,0.0,0.0,0.0,0.0,0.0,0.0,0.0,0.0,0.0,0.0,0.0,0.0,0.0,0.0,0.0,0.0,0.0,0.0,0.0,0.0,0.0,0.0,0.0,0.0,0.0,0.0,0.0,0.0,0.0,0.0,0.0,0.0,0.0,0.0,0.0,0.0,0.0,0.0,0.0,0.0,0.0,0.0,0.0,0.0,0.0,0.0,0.0,0.0,0.0,0.0,0.0,0.0,-0.7513,-0.8342,-0.9354,-0.9493,-1.0795,-1.2777,-1.1541,-1.1115,-1.1065,-0.8377,0.0,0.0,0.0,0.0,0.0,0.0,0.0,0.0,0.0,0.0,0.0,0.0,0.0,0.0,0.0,0.0,0.0,0.0,0.0,0.0,0.0,0.0,-1.9075,-2.0273,-2.303,-2.3624,-1.7133,0.0,0.0,0.0,0.0,0.0,0.0,0.0,0.0,0.0,0.0,0.0,-1.9347,-2.9331,-3.6723,-3.8681,-3.9947,-4.0331,-3.9519,-3.9038,-3.7553,-3.4647,-3.2504,-2.9575,0.0,0.0,0.0,0.0,0.0,0.0,0.0,0.0,0.0,0.0,0.0,0.0,0.0,0.0,0.0,0.0,0.0,0.0,0.0,0.0,0.0,0.0,0.0,0.0,0.0,0.0,0.0,0.0,0.0,0.0,0.0,0.0,0.2532,0.2538,0.0,0.0,0.0,0.0,0.0,0.0,0.0,0.0,0.0,0.0,0.0,0.0,0.0,-0.4981,-0.5388,-0.7332,-0.8328,-0.8322,-1.055,-1.1765,-1.2185,-1.2885,-1.3508,-1.4074,-1.4286,0.0,-1.2334,-1.1654,0.0,0.0,0.0,0.0,0.0,0.0,0.0,0.0,0.0,0.0,0.0,0.0,0.0,0.0,0.0,0.0,0.0,0.0,0.0,0.0,0.0,0.0,-3.159,-3.4049,-3.4386,-3.3862,-3.2885,-2.205,-1.2467,-1.2209,-1.2603,-1.0885,0.0,0.0,0.0,0.0,0.0,0.0,-2.4601,-3.2753,-3.8208,-3.9114,-4.0213,-4.0658,-4.0121,-3.9253,-3.7783,-3.563,-3.3861,-3.07,-2.5794,-2.5131,0.0,0.0,0.0,0.0,0.0,0.0,0.0,0.0,0.0,0.0,0.0,0.0,0.0,0.0,0.0,0.0,0.0,0.0,0.0,0.0,0.0,0.0,0.0,0.0,0.0,0.0,0.0,0.0,0.0,0.4898,0.4248,0.4258,0.4237,0.4247,0.0,0.0,0.0,0.0,0.0,0.0,0.0,0.0,0.0,-0.5567,-0.6346,-0.7185,-0.8006,-0.9204,-0.9824,-0.9873,-1.1016,-1.2086,-1.3064,-1.3646,-1.4446,-1.5316,-1.5831,-1.5691,-1.4866,-1.3185,-1.1446,-0.9661,0.0,0.0,0.0,0.0,-0.6356,-0.7182,-0.9765,-1.1038,-1.1647,-1.1628,0.0,0.0,0.0,0.0,0.0,0.0,0.0,-1.3737,-2.1633,-2.6349,-2.9936,-3.3809,-3.5844,-3.6615,-3.5502,-3.0197,-2.4647,-2.1301,-2.0639,-1.8446,-1.1577,-1.0543,0.0,0.0,0.0,-2.2725,-2.8052,-3.4737,-3.9217,-3.9799,-4.0271,-4.0371,-3.9902,-3.8747,-3.7313,-3.5651,-3.3368,-3.0522,-2.6953,-2.4487,-2.077,0.0,0.0,0.0,0.0,0.0,0.0,0.0,0.0,0.0,0.0,0.0,0.0,0.0,0.0,0.0,0.0,0.0,0.0,0.0,0.0,0.0,0.0,0.0,0.0,0.0,0.0,0.0,0.0,0.6149,0.554,0.5474,0.4815,0.4444,0.0,0.0,0.0,0.0,0.0,0.0,-0.242,-0.2921,-0.4265,-0.6755,-0.7614,-0.8467,-0.9478,-0.9936,-1.0173,-1.0341,-1.0553,-1.1465,-1.2863,-1.3263,-1.4102,-1.5249,-1.5882,-1.6121,-1.5944,-1.4379,-1.3256,-1.2247,-1.0451,-0.9326,-0.8798,-0.9225,-0.9743,-1.0773,-1.3873,-1.5605,-1.636,-1.6403,-1.6355,-1.5949,-1.3956,0.0,0.0,0.0,0.0,-1.5115,-2.3367,-2.6326,-2.8168,-3.2367,-3.5663,-3.7439,-3.603,-3.6146,-3.4993,-2.9855,-2.8521,-2.6084,-1.9331,-1.7882,0.0,-1.9431,-2.3179,-2.7543,-3.2161,-3.6666,-3.9662,-4.0257,-3.9976,-3.9564,-3.9113,-3.7845,-3.6371,-3.4731,-3.2599,-3.0149,-2.7286,-2.4131,-2.0945,-1.7667,0.0,0.0,0.0,0.0,0.0,0.0,0.0,0.0,0.0,0.0,0.0,0.0,0.0,0.0,0.0,0.0,0.0,0.0,0.0,0.0,0.0,0.0,0.0,0.0,0.0,0.0,0.0,0.0,0.0,0.4862,0.4162,0.0,0.0,0.0,0.0,0.1394,0.0319,-0.1387,-0.3921,-0.4303,-0.5428,-0.769,-0.7791,-0.7793,-0.785,-0.8129,-0.852,-0.8993,-0.942,-1.0385,-1.168,-1.1908,-1.2349,-1.2936,-1.3756,-1.4,-1.379,-1.5875,-1.5947,-1.468,-1.4456,-1.3557,-1.2548,-1.3625,-1.4323,-1.516,-1.7282,-1.8455,-1.9225,-2.0512,-1.9805,-1.8344,-1.8186,-1.6504,0.0,0.0,-1.9852,-2.2219,-2.8597,-3.0743,-3.1867,-3.4603,-3.6661,-3.801,-3.8092,-3.8143,-3.7708,-3.612,-3.5532,-3.3448,-2.776,0.0,-2.6564,-2.7725,-2.7594,-3.0232,-3.8125,-3.9076,-3.9388,-4.0309,-3.907,-3.8057,-3.7646,-3.6624,-3.501,-3.2692,-3.2002,-2.9858,-2.5897,-2.4692,-2.198,-1.7213,-1.6341,0.0,0.0,0.0,0.0,0.0,0.0,0.0,0.0,0.0,0.0,0.0,0.0,0.0,0.0,0.0,0.0,0.0,0.0,0.0,0.0,0.0,0.0,0.0,0.0,0.0,0.0,0.0,0.0,0.6475,0.4979,0.0,0.4136,0.2627,0.1258,0.0417,-0.1148,-0.2422,-0.3254,-0.452,-0.5526,-0.6289,-0.6982,-0.7155,-0.6738,-0.7533,-0.7827,-0.7521,-0.8418,-0.9228,-1.0093,-1.0728,-1.1311,-1.1889,-1.2723,-1.3342,-1.3917,-1.5279,-1.5403,-1.4683,-1.4972,-1.4585,-1.4094,-1.5741,-1.5971,-1.5741,-1.7794,-1.8456,-1.8721,-2.1084,-2.2132,-2.2659,-2.3505,-2.317,-2.2861,-2.4807,-2.5363,-2.6028,-2.9184,-3.138,-3.2871,-3.2997,-3.588,-3.8259,-3.7091,-3.7587,-3.8097,-3.7614,-3.6604,-3.5527,-3.4688,-3.3943,-3.3807,-3.4725,-3.5097,-3.6141,-3.8513,-3.937,-3.93,-3.8036,-3.7408,-3.6471,-3.4973,-3.3891,-3.2523,-3.0604,-2.8956,-2.6969,-2.4432,-2.2513,-2.0536,-1.8552,-1.6786,-1.4686,0.0,0.0,0.0,0.0,0.0,0.0,0.0,0.0,0.0,0.0,0.0,0.0,0.0,0.0,0.0,0.0,0.0,0.0,0.0,0.0,0.0,0.0,0.0,0.0,0.0,0.8745,0.7666,0.7451,0.5689,0.4488,0.4596,0.2546,0.0962,0.0294,-0.1441,-0.2463,-0.2437,-0.3654,-0.4336,-0.4251,-0.5053,-0.5269,-0.4878,-0.5636,-0.5944,-0.5693,-0.6522,-0.7318,-0.8155,-0.88,-0.9583,-1.0403,-1.0989,-1.1759,-1.2632,-1.3212,-1.3252,-1.3091,-1.4944,-1.5827,-1.6226,-1.6832,-1.7072,-1.7312,-1.9451,-2.0232,-2.0617,-2.3257,-2.4868,-2.5832,-2.6979,-2.7414,-2.768,-2.8816,-2.8773,-2.8781,-3.0351,-3.1872,-3.2865,-3.2513,-3.5351,-3.7794,-3.6547,-3.7395,-3.8462,-3.8677,-3.7673,-3.7147,-3.8216,-3.8232,-3.8285,-3.8837,-3.9474,-3.9535,-3.8498,-3.8804,-3.8233,-3.5926,-3.4822,-3.3745,-3.2368,-3.1078,-2.9539,-2.7606,-2.6317,-2.4539,-2.206,-2.0518,-1.9173,-1.794,-1.5906,-1.4038,-1.2422,0.0,0.0,0.0,0.0,0.0,0.0,0.0,0.0,0.0,0.0,0.0,0.0,0.0,0.0,0.0,0.0,0.0,0.0,0.0,0.0,0.0,0.0,0.0,1.0746,0.9849,0.8859,0.763,0.6239,0.5365,0.5309,0.2973,0.1321,0.1279,-0.0302,-0.1376,-0.1487,-0.1722,-0.18,-0.18,-0.2003,-0.2108,-0.2108,-0.2324,-0.2765,-0.3506,-0.376,-0.4557,-0.5837,-0.6087,-0.6939,-0.8325,-0.8325,-0.886,-0.9744,-0.9831,-0.9831,-1.0255,-1.4539,-1.7382,-1.8877,-1.7025,-1.7768,-2.0079,-2.2211,-2.3727,-2.5073,-2.7126,-2.7577,-2.7537,-2.8233,-2.8684,-2.9115,-2.9742,-3.0058,-3.0585,-3.2582,-3.2488,-3.2251,-3.3665,-3.539,-3.6681,-3.6704,-3.7794,-3.8871,-3.9305,-3.8957,-3.8527,-3.8293,-3.9064,-3.9727,-3.9721,-3.9994,0.0,-3.8215,-3.7273,-3.599,-3.4043,-3.1396,-2.974,-2.9697,-2.8159,-2.6165,-2.3752,-2.426,-2.2871,-1.89,-1.9039,-1.7928,-1.5255,-1.3758,-1.2732,-1.2271,0.0,0.0,0.0,0.0,0.0,0.0,0.0,0.0,0.0,0.0,0.0,0.0,0.0,0.0,0.0,0.0,0.0,0.0,0.0,0.0,0.0,1.5379,1.4012,1.2148,1.0346,0.913,0.881,0.7381,0.6392,0.6167,0.4432,0.3226,0.3093,0.1547,0.0777,0.1331,0.0,-0.0481,0.032,-0.0082,0.0083,0.0827,-0.0085,-0.0342,0.0,-0.0781,-0.1752,-0.2995,-0.3171,-0.3978,-0.5164,-0.5343,-0.596,-0.6919,-0.7505,-0.8186,-0.9134,-1.259,-1.4065,-1.4406,-1.5831,-1.7001,-1.7836,-1.8017,-1.939,-2.1318,-2.2126,-2.3815,-2.5807,-2.6629,-2.7723,-2.8812,-2.9794,-3.0847,-3.1849,-3.2695,-3.4269,-3.5797,-3.62,-3.7449,-3.7907,-3.5565,-3.646,-3.6627,-3.2944,-3.3235,-3.5189,-3.87,-3.7445,-3.5984,-3.5984,-3.4472,-3.2964,-3.1952,-3.1291,-3.0258,-2.8553,-2.6792,-2.5413,-2.4578,-2.3601,-2.2368,-2.0721,-2.0574,-1.964,-1.7382,-1.669,-1.5374,-1.3124,-1.1887,-1.0555,0.0,0.0,0.0,0.0,0.0,0.0,0.0,0.0,0.0,0.0,0.0,0.0,0.0,0.0,0.0,0.0,0.0,0.0,0.0,0.0,0.0,0.0,1.6739,1.5733,1.4706,1.2114,1.016,0.9857,0.8719,0.7935,0.7664,0.6143,0.5065,0.491,0.3355,0.2591,0.3099,0.2089,0.1787,0.246,0.1926,0.2033,0.2628,0.1733,0.1577,0.2018,0.1509,0.0803,0.0,-0.0089,-0.107,-0.2677,-0.2587,-0.3477,-0.5166,-0.5315,-0.592,-0.7058,0.0,0.0,0.0,0.0,-1.6935,-1.7025,-1.7946,-1.9418,-2.0948,-2.1997,-2.3815,-2.5908,-2.6845,-2.7933,-2.9261,-3.1036,-3.1966,-3.2851,-3.4617,-3.5145,-3.5669,-3.7571,-3.7452,-3.6757,-3.6162,-3.5519,-3.4164,-3.1086,-3.1091,0.0,-3.5396,-3.4037,-3.2637,-3.2823,-3.123,-2.9576,-2.8485,-2.7592,-2.6223,-2.4119,-2.2595,-2.1385,-2.0391,-1.9173,0.0,0.0,0.0,-1.5204,-1.4243,-1.3739,0.0,0.0,0.0,-0.9705,-0.8421,-0.7708,0.0,0.0,-0.7586,-0.7859,0.0,0.0,0.0,0.0,0.0,0.0,0.0,0.0,0.0,0.0,0.0,0.0,0.0,0.0,0.0,0.0,1.805,1.7395,1.7822,1.4731,1.2056,1.0982,1.0262,0.983,0.9559,0.7936,0.6865,0.6732,0.526,0.4367,0.4385,0.4398,0.0,0.0,0.0,0.3996,0.3996,0.3546,0.3314,0.3226,0.3312,0.3132,0.2591,0.2591,0.1339,-0.0804,-0.0089,-0.1248,-0.3481,-0.2763,-0.285,-0.3999,-0.8103,-1.0761,-1.2602,-1.5591,-1.639,-1.639,-1.9547,0.0,0.0,-2.4103,-2.5187,-2.5779,-2.7235,-2.8138,-2.9232,-3.1644,-3.2307,-3.3053,-3.6295,-3.4687,-3.3269,-3.7332,-3.5747,-3.3949,-3.6407,-3.4153,-3.1468,-3.0761,-3.0245,-2.9837,-2.9366,-2.9595,-3.0003,-3.0382,-2.916,-2.757,-2.6016,-2.4637,-2.2865,-2.0321,-1.8797,0.0,-1.6742,-1.5,-1.3218,-1.164,-1.1035,-1.0648,-1.0346,-1.0379,-1.0755,-1.1582,-1.04,-0.9587,-0.9292,-0.8371,-0.8044,-0.8366,-0.76,-0.816,0.0,0.0,0.0,0.0,0.0,0.0,0.0,0.0,0.0,0.0,0.0,0.0,0.0,0.0,0.0,2.0876,1.9968,1.9283,1.9367,1.7581,1.5479,1.3331,1.2304,1.1546,1.0864,0.9942,0.9075,0.8371,0.7951,0.7388,0.662,0.7065,0.7396,0.7682,0.7253,0.6991,0.6991,0.6498,0.5899,0.5196,0.5716,0.0,0.3398,0.3129,0.2147,0.0717,0.143,0.1339,0.0892,0.1869,0.1765,0.0349,-0.484,-0.7505,-0.8611,-1.0,-1.0841,-1.1838,-1.5032,-1.542,-1.5397,-2.1468,-2.0686,-1.8159,-2.2441,-2.3808,0.0,-2.4745,-2.7368,-3.0068,-3.0567,-3.094,-3.1452,-3.2502,-3.208,-3.0897,-2.8965,-2.9122,-2.8127,-2.3029,-2.4192,-2.4947,-2.1753,-2.5804,-2.9547,-2.9595,-2.5409,-2.1474,-1.9289,-1.7906,-1.7025,-1.6778,-1.4893,-1.3349,-1.2608,-1.1673,-1.0647,-0.9502,-0.9135,-0.8668,-0.7808,-0.7812,-0.7912,-0.8108,-0.7989,-0.8032,-0.8142,-0.8281,-0.8174,-0.7646,-0.7385,-0.8405,0.0,0.0,0.0,0.0,0.0,0.0,0.0,0.0,0.0,0.0,0.0,2.3366,2.2742,0.0,2.2558,2.2151,2.1289,2.0749,2.0812,1.9433,1.7765,1.5951,1.4613,1.3799,1.3516,1.2291,1.1327,1.0895,0.9847,0.9005,0.8617,0.8795,0.8976,0.915,0.8913,0.8619,0.836,0.844,0.8173,0.7478,0.8341,0.7541,0.5518,0.5869,0.4718,0.2593,0.3749,0.3746,0.2853,0.3471,0.3712,0.3414,0.0352,-0.2102,-0.4247,-0.687,-0.817,-0.9007,-1.2481,-1.3278,-1.3316,-1.7104,-1.7041,-1.6337,-2.0617,-2.2138,-2.2917,-2.5346,-2.7386,-2.8969,-2.971,-2.9251,-2.8448,-2.7788,-2.3921,-2.0816,-2.2501,-1.9661,-1.7346,-1.9222,-1.9893,-1.9506,-1.7488,-1.2603,-1.1508,-1.8731,-1.7368,-1.5014,-1.3858,-1.2705,-1.2009,-1.1922,-0.9975,-0.8388,-0.7871,-0.6996,-0.6086,-0.5323,-0.5764,-0.5951,-0.5706,-0.6322,-0.6505,-0.6428,-0.6782,-0.6782,-0.6428,-0.6868,-0.6956,-0.6776,-0.6717,-0.7754,0.0,0.0,0.0,0.0,0.0,0.0,0.0,2.4389,2.4523,2.4747,2.4724,2.4534,2.3826,2.4012,2.404,2.3241,2.2563,2.2109,2.2071,2.0921,1.9697,1.8669,1.7008,1.5947,1.6089,1.4636,1.355,1.3439,1.2005,1.1051,1.0836,1.0852,1.0852,1.0864,1.0524,1.0091,0.9662,1.0082,1.0072,0.947,1.0331,0.9712,0.7796,0.8682,0.745,0.4896,0.658,0.6653,0.5484,0.5657,0.6089,0.6605,0.5835,0.4189,0.154,-0.3262,-0.4906,-0.5238,-0.8843,-0.9793,-0.968,-1.1461,-1.1517,-1.1636,-1.5397,-1.6267,-1.6718,-2.0586,-2.1526,-2.1673,-2.3045,-2.1347,-1.9364,-1.9793,-1.3964,-1.0182,-1.7112,-1.2208,-0.8845,-1.7116,-1.5643,-1.3417,-1.4291,-0.0708,0.6474,-0.4449,-0.6718,-0.7539,-0.8597,-0.7408,-0.6483,-0.6699,-0.5362,-0.4312,-0.3992,-0.2849,-0.1966,-0.1614,-0.2505,-0.3217,-0.3582,-0.4648,-0.527,-0.5184,-0.5805,-0.5719,-0.501,-0.5453,-0.5716,-0.5891,-0.5891,-0.6861,2.2748,2.2879,2.2945,2.4201,2.4436,2.4653,0.0,2.6363,2.6298,2.5623,2.5681,2.5572,2.4621,2.4365,2.4244,2.4129,2.4022,2.3704,2.3013,2.2566,2.2092,2.1506,1.9085,1.7351,1.7089,1.641,1.5663,1.5107,1.539,1.5076,1.3844,1.4393,1.4594,1.4216,1.3341,1.2729,1.2304,1.2145,1.1541,1.0413,1.1112,1.0671,0.9269,0.936,0.8922,0.8043,0.9847,1.1214,1.224,1.2008,1.177,1.1439,1.0605,1.058,1.0248,0.4291,0.2628,0.2867,-0.0424,0.034,0.1868,-0.4252,-0.0229,0.6163,0.1418,0.3066,0.6313,0.548,0.4361,0.3407,0.3387,0.4606,0.4048,-0.3182,-0.389,-0.5175,-1.3306,-1.4216,-1.3753,-1.5058,-0.9658,-0.615,-1.0392,-0.141,0.6953,0.8613,0.6034,0.228,-0.2354,-0.0087,0.0962,-0.1744,-0.2455,-0.2736,-0.267,-0.1609,-0.0896,-0.0807,-0.0986,-0.1075,-0.1076,-0.1882,-0.2686,-0.3487,-0.4378,-0.4828,-0.501,-0.5272,-0.5361,-0.5097,-0.5097,-0.6157,2.3216,2.3672,2.3852,2.4382,2.4728,2.5138,2.6005,2.6642,2.6955,2.6757,2.6733,2.6471,2.5607,2.56,2.5494,2.4845,2.458,2.4215,2.3652,2.3038,2.2616,2.243,2.1081,1.9982,1.9544,1.8285,1.7321,1.7041,1.6421,1.5854,1.5501,1.5846,1.6093,1.6242,1.5726,1.5292,1.4939,1.4657,1.4406,1.4268,1.3924,1.3062,1.1629,1.2251,1.2088,1.1315,1.2082,1.2946,1.3736,1.4095,1.4421,1.4766,1.4853,1.5078,1.4646,0.81,0.6048,0.6192,0.3356,0.3106,0.3869,0.3029,0.5643,0.8778,0.6913,0.7986,0.964,0.8235,0.7609,0.7538,0.8355,0.9007,0.9274,0.859,0.8541,0.8056,0.6059,0.5661,0.2488,-0.825,-0.6657,-0.2376,0.1483,0.3807,0.6819,1.1756,0.9531,0.6511,0.4427,0.4614,0.4347,0.2735,0.1945,0.142,0.1425,0.143,0.1254,0.0806,0.0269,-0.0269,-0.0718,-0.0987,-0.1345,-0.1701,-0.2415,-0.2772,-0.295,-0.3799,-0.4278,-0.4462,-0.5078,-0.5937,2.4019,2.4526,2.4639,2.4665,2.5013,2.5516,2.6229,2.6995,2.7609,2.7758,2.765,2.7282,2.6491,2.6453,2.6224,2.5445,2.5096,2.4681,2.4032,2.3508,2.3132,2.2878,2.2466,2.2072,2.1669,2.0041,1.9018,1.8939,1.773,1.7155,1.7309,1.7463,1.7616,1.784,1.7688,1.7438,1.7162,1.6822,1.6919,1.7212,1.674,1.6032,1.4936,1.5947,1.611,1.568,1.568,1.5873,1.6246,1.6734,1.7047,1.7313,1.7644,1.7847,1.7179,1.2135,1.0324,1.0144,0.8603,0.7954,0.8376,1.1242,1.3141,1.4429,1.4914,1.5979,1.6796,1.5477,1.5576,1.5903,1.516,1.6369,1.7722,1.7418,1.7348,1.7081,1.6215,1.6407,1.325,0.1291,0.0271,0.3102,0.8412,0.829,0.848,1.1352,1.0583,0.9531,0.8865,0.7967,0.6976,0.6065,0.544,0.4907,0.4376,0.3667,0.3042,0.2504,0.1879,0.1253,0.0716,0.0269,-0.0,-0.0,-0.0811,-0.1174,-0.1174,-0.212,-0.2884,-0.3627,-0.4446,-0.4966,2.5488,2.5297,2.5053,2.4986,2.5232,2.585,2.717,2.7981,2.8432,2.8463,2.8271,2.7913,2.7348,2.6596,2.5992,2.587,2.5767,2.5294,2.4226,2.4413,2.4241,2.3117,2.2979,2.2905,2.2703,2.1548,2.0712,2.0557,2.0479,2.0235,1.9816,1.9816,1.9659,1.9256,1.9256,1.9027,1.8559,1.8559,1.8318,1.7997,1.9076,1.9422,1.9256,2.0158,2.0908,2.1518,2.1518,2.1655,2.1738,2.147,2.0552,1.9173,1.8574,1.8355,1.8276,1.7729,1.6847,1.6118,1.7304,1.8344,1.9317,2.0646,2.456,2.8973,3.0151,3.2817,3.5566,3.6247,3.7276,3.6806,3.0966,3.4525,3.6316,2.3104,1.9966,1.7352,0.7751,0.7112,0.9633,1.3613,1.4116,1.1864,0.5323,0.9818,1.2783,0.8276,1.0503,1.1925,0.9798,0.9951,0.9551,0.765,0.7197,0.6316,0.4465,0.4287,0.4289,0.42,0.4198,0.4198,0.4109,0.2593,0.17,0.17,0.0091,-0.0739,-0.0739,-0.066,-0.1237,-0.2379,-0.238,-0.2595,2.4345,2.4569,2.4778,2.464,2.5418,2.6387,2.7244,2.7963,2.8477,2.8668,2.8962,2.9061,2.8546,2.8465,2.7989,2.6627,2.6022,2.5253,2.3953,2.3688,2.3423,2.3075,2.3001,2.2927,2.2703,2.169,2.1001,2.0924,2.0527,2.0372,2.0527,2.0779,2.1242,2.1756,2.1001,2.1201,2.2626,2.111,2.1166,2.2561,2.1966,2.185,2.2104,2.2157,2.2721,2.3598,2.3223,2.2769,2.2296,2.2635,2.2264,2.1645,2.3444,2.4167,2.4284,2.5498,2.4964,2.3259,2.0933,2.0958,2.2554,2.5108,2.7663,3.0221,3.2885,3.5086,3.679,3.7731,3.8132,3.7988,3.6903,3.8261,3.8846,3.4539,2.7603,2.2193,2.2824,2.0465,1.9703,2.492,2.1606,1.6367,1.169,1.2329,1.3586,1.3375,1.2693,1.1536,0.9772,0.9703,0.9748,0.9423,0.9135,0.8686,0.8074,0.6841,0.6139,0.6139,0.4994,0.4289,0.4289,0.3805,0.3559,0.3559,0.3166,0.2541,0.1789,0.1152,0.0484,-0.0291,-0.059,-0.1389,2.4118,2.4569,2.4851,2.4781,2.5617,2.6634,2.739,2.811,2.8621,2.8873,2.9453,2.9826,2.9431,2.9425,2.9019,2.7687,2.7147,2.6197,2.4374,2.4269,2.4084,2.3086,2.3001,2.2927,2.2703,2.1993,2.1538,2.1538,2.1145,2.0991,2.1231,2.1787,2.2402,2.3001,2.2166,2.2649,2.4589,2.2774,2.3172,2.5701,2.4625,2.4625,2.5573,2.5229,2.5648,2.6488,2.6164,2.579,2.5419,2.5802,2.5716,2.5455,2.7249,2.7971,2.8098,2.9158,2.9231,2.833,2.5013,2.4777,2.6321,2.8326,3.0509,3.2754,3.4839,3.6365,3.7137,3.6063,3.7073,3.7754,3.4607,3.6735,3.8766,3.5001,2.8428,2.3329,2.4475,2.198,1.9952,2.1517,1.9679,1.6723,1.3367,1.3187,1.4235,1.6364,1.4955,1.3088,1.1706,1.1504,1.1358,1.0972,1.0858,1.0588,0.9883,0.871,0.7811,0.7462,0.6201,0.5479,0.5479,0.5271,0.5122,0.5122,0.4845,0.4415,0.3745,0.3033,0.2369,0.1679,0.1503,0.0201,2.4799,2.5123,2.5202,2.5368,2.5903,2.6686,2.7635,2.84,2.8858,2.9029,2.9643,3.0148,3.0035,2.9492,2.9022,2.8926,2.8822,2.7867,2.5334,2.6052,2.5864,2.3331,2.3001,2.2927,2.2703,2.2553,2.2402,2.2402,2.2252,2.2101,2.2176,2.2927,2.3224,2.315,2.2894,2.3368,2.4577,2.3677,2.4566,2.7233,2.6912,2.7657,2.9373,2.9261,2.9633,3.0279,3.0247,3.0485,3.086,3.0644,3.0412,3.0015,2.9765,2.9662,2.9648,2.9163,3.0207,3.1591,2.9795,2.9903,3.0825,3.0717,3.3499,3.6809,3.6579,3.7406,3.744,3.2951,3.5543,3.7213,2.6442,3.1512,3.6744,2.5975,2.3,2.0585,1.3424,1.2336,1.1172,0.5783,1.006,1.3703,1.0739,1.2576,1.5038,1.7014,1.715,1.6565,1.5023,1.4937,1.4289,1.2387,1.2392,1.1838,1.0005,0.9714,0.925,0.8247,0.7879,0.7695,0.7611,0.6756,0.6283,0.6292,0.5434,0.4997,0.4897,0.4885,0.4321,0.3317,0.3828,0.2015,2.3156,2.3882,2.4495,2.5148,2.5903,2.6692,2.758,2.7864,2.8091,2.8477,2.9261,3.0031,3.0363,3.003,2.9551,2.9102,2.7643,2.6064,2.4541,2.415,2.3756,2.3086,2.2852,2.2852,2.2927,2.2628,2.2478,2.2628,2.2402,2.2553,2.315,2.3372,2.3875,2.4659,2.4253,2.4874,2.6663,2.7326,2.7984,2.8597,2.8889,2.9331,3.0054,3.0616,3.1142,3.1656,3.2002,3.1925,3.1485,3.0787,3.0251,2.9914,3.0926,3.1636,3.2237,3.3485,3.5027,3.6241,3.4913,3.4217,3.3933,3.4426,3.5953,3.77,3.8131,3.8859,3.932,3.8499,3.8847,3.8848,3.6035,3.4344,3.2666,2.9979,2.2938,1.6302,1.4488,1.4239,1.3201,0.9333,1.2011,1.4607,1.3364,1.5091,1.6924,1.7933,1.875,1.8085,1.4611,1.4845,1.4806,1.3525,1.3683,1.3676,1.3126,1.229,1.1283,1.0274,0.9262,0.8487,0.7753,0.757,0.7579,0.7788,0.7522,0.703,0.6209,0.6057,0.5634,0.4834,0.4234,0.4038,2.2186,2.3106,2.4079,2.4995,2.5714,2.6404,2.7174,2.7565,2.7879,2.8204,2.9197,3.0143,3.0697,3.0286,2.9856,2.9736,2.8627,2.7084,2.4981,2.4837,2.4461,2.3161,2.2852,2.2777,2.2852,2.2553,2.2478,2.2703,2.2852,2.3075,2.3446,2.4093,2.4515,2.4636,2.4815,2.5578,2.6934,2.8468,2.9261,2.9387,2.9747,3.0389,3.1289,3.1516,3.2213,3.3192,3.3659,3.3677,3.3339,3.342,3.3058,3.2582,3.3649,3.4542,3.5341,3.626,3.7148,3.7888,3.7862,3.7369,3.6737,3.6582,3.7757,3.9246,3.9343,4.0108,4.0423,3.8147,3.8974,3.9356,3.4296,3.2345,3.0451,2.5403,1.9343,1.4159,1.232,1.1532,1.0865,0.9842,1.2887,1.5444,1.4832,1.6753,1.8481,1.8587,1.9462,1.9174,1.672,1.7145,1.7276,1.6181,1.598,1.5698,1.522,1.4171,1.3019,1.1768,1.0997,1.0075,0.8896,0.8888,0.878,0.836,0.8364,0.805,0.7519,0.7343,0.6981,0.6428,0.479,0.4881,2.1467,2.2518,2.361,2.4741,2.5342,2.5879,2.6587,2.7312,2.7784,2.7856,2.8916,3.0021,3.0582,3.0008,2.9679,3.0205,2.9967,2.8717,2.5849,2.64,2.6005,2.332,2.2777,2.2703,2.2841,2.2553,2.2478,2.2767,2.3361,2.3666,2.3519,2.4814,2.5229,2.4313,2.531,2.6133,2.6667,2.839,2.9449,2.9931,3.0297,3.113,3.2493,3.2299,3.3103,3.4769,3.5177,3.5504,3.5785,3.6776,3.686,3.6367,3.6965,3.7697,3.8398,3.8063,3.8035,3.8413,3.9546,3.9733,3.9293,3.8095,3.9216,4.0966,4.0492,4.1194,4.0946,3.5073,3.6968,3.826,2.7229,2.726,2.7652,1.755,1.4485,1.2855,0.9055,0.7805,0.7811,0.9557,1.3502,1.6319,1.5644,1.7768,1.9489,1.9299,1.9799,2.0093,1.9995,2.0378,2.02,1.9025,1.8353,1.7662,1.6746,1.5651,1.4445,1.312,1.271,1.2005,1.0485,1.0489,0.9979,0.8853,0.873,0.8723,0.8513,0.8492,0.8216,0.7804,0.5287,0.4842,2.0621,2.1518,2.2518,2.4021,2.4509,2.4865,2.5811,2.6602,2.6996,2.6811,2.7486,2.8295,2.8773,2.8015,2.7777,2.9072,2.7827,2.6432,2.5451,2.4969,2.4189,2.2927,2.2553,2.2767,2.3537,2.2905,2.2681,2.3316,2.4059,2.4504,2.4432,2.517,2.6013,2.6812,2.7377,2.8026,2.8762,2.9546,3.0176,3.0658,3.1679,3.2241,3.2376,3.3687,3.4886,3.5996,3.5667,3.6474,3.7937,3.7415,3.7504,3.8037,3.8571,3.9302,3.9969,3.9748,4.0456,4.1531,4.1272,4.1558,4.1859,4.0766,4.1046,4.1852,4.2007,4.2047,4.0843,3.5096,3.3958,3.2809,2.548,2.086,1.7852,1.6628,1.2883,0.9583,0.9705,1.0998,1.2288,1.2995,1.524,1.7108,1.7206,1.8765,2.0005,1.9903,2.0921,2.1728,2.1628,2.1097,2.0418,1.9521,1.8754,1.8277,1.8072,1.68,1.5487,1.4146,1.384,1.3209,1.1934,1.1833,1.1385,1.0361,1.023,0.9629,0.8669,0.8543,0.8272,0.7951,0.5917,0.4641,1.9976,2.0939,2.2015,2.3292,2.3943,2.4452,2.4978,2.5638,2.6199,2.6229,2.6638,2.7209,2.7907,2.7603,2.7401,2.7996,2.7074,2.593,2.4945,2.4234,2.3537,2.2767,2.2402,2.2467,2.3191,2.2606,2.2617,2.3486,2.4204,2.448,2.4409,2.5134,2.6321,2.7987,2.7855,2.8168,2.9198,3.0054,3.0793,3.1402,3.2084,3.3128,3.4355,3.5214,3.6303,3.759,3.7965,3.84,3.8911,3.9203,3.9352,3.9443,4.0022,4.0708,4.1439,4.1434,4.186,4.2498,4.2791,4.293,4.2911,4.2693,4.2608,4.2742,4.3271,4.1064,3.7828,3.5212,3.1961,2.7843,2.1746,1.8358,1.5893,1.3241,1.1573,1.099,1.213,1.3326,1.4426,1.5487,1.6819,1.7864,1.822,1.9761,2.0893,2.0601,2.1318,2.2131,2.2736,2.1911,2.1089,2.0875,2.0184,1.9482,1.8876,1.7572,1.6445,1.5591,1.5285,1.4605,1.3342,1.3235,1.2744,1.1651,1.0916,1.0333,0.9686,0.9075,0.8474,0.8094,0.6998,0.611,1.917,2.0364,2.1444,2.2372,2.3292,2.4021,2.4134,2.4804,2.5365,2.5506,2.5798,2.6227,2.6856,2.6952,2.6894,2.6909,2.6685,2.6052,2.4558,2.406,2.3537,2.2767,2.2327,2.2317,2.2756,2.2402,2.2542,2.3655,2.4348,2.4696,2.4755,2.5451,2.6705,2.8638,2.8235,2.8549,2.9722,3.095,3.1837,3.2517,3.3061,3.441,3.6334,3.6688,3.7686,3.9238,3.9922,4.0091,4.0027,4.0901,4.1092,4.0884,4.1479,4.2138,4.2788,4.2922,4.2922,4.2971,4.3927,4.324,4.1985,4.2132,4.2812,4.3344,4.2498,3.8889,3.4561,3.2042,2.7812,2.271,1.6876,1.5675,1.4881,1.0633,1.1346,1.3453,1.4881,1.5322,1.5974,1.747,1.8164,1.8568,1.916,2.068,2.17,2.1019,2.1725,2.2434,2.2946,2.2333,2.1717,2.1505,2.0885,2.0158,1.9228,1.7898,1.7067,1.663,1.6424,1.5785,1.46,1.4595,1.3835,1.2413,1.1546,1.0781,1.0347,0.9372,0.8663,0.8231,0.8007,0.763,1.8111,1.9278,2.0235,2.1455,2.2359,2.3179,2.3731,2.4379,2.4685,2.4125,2.4504,2.4897,2.4625,2.4592,2.4867,2.5616,2.6108,2.5894,2.4725,2.4869,2.4432,2.2617,0.0,2.2606,2.3084,2.2521,2.2681,2.4204,2.5181,2.5963,2.6688,2.6947,2.7657,2.8939,2.9683,3.0552,3.1716,3.3228,3.4118,3.4488,3.6023,3.6754,3.677,3.794,3.9357,4.0843,3.9904,4.0582,4.234,4.1524,4.1722,4.2543,4.3148,4.361,4.3937,4.3906,4.3875,4.3924,4.4327,4.1559,3.7675,3.669,4.0089,4.3449,3.7409,3.5481,3.296,2.1416,1.8059,1.6691,1.1041,0.9569,1.0078,1.1894,1.3303,1.4721,1.6516,1.6961,1.7575,1.942,1.9242,1.9168,2.0181,2.1489,2.2097,2.1019,2.2828,2.3628,2.2021,2.203,2.1404,1.9642,1.9435,1.9228,1.8826,1.7793,1.6961,1.6324,1.6324,1.6105,1.5779,1.5785,1.4696,1.2417,1.2304,1.1223,0.9044,0.8937,0.8598,0.8029,0.8026,0.7689,1.7415,1.8267,1.9191,2.076,2.1842,2.2685,2.3245,2.3877,2.4225,2.4003,2.3772,2.3688,2.3763,2.3929,2.4175,2.4549,2.4842,2.4975,2.4753,2.4626,2.4131,2.3209,2.2957,2.2809,2.2745,2.2692,2.3054,2.3975,2.5334,2.6183,2.6296,2.7564,2.8926,3.0207,3.0965,3.2044,3.3569,3.4306,3.5292,3.6443,3.6953,3.7899,3.9234,3.9888,4.0951,4.2285,4.2294,4.0476,3.7805,4.1418,4.086,3.7796,3.8041,3.8201,3.7919,3.4523,3.3641,3.4101,3.3953,3.2991,3.1619,3.0396,3.1655,3.3134,3.0446,2.7115,2.3175,1.8281,1.426,1.1091,0.9433,0.9998,1.1466,1.3931,1.4981,1.6145,1.8365,1.8373,1.8568,2.0845,2.0231,1.9723,2.0971,2.17,2.1912,2.142,2.2636,2.3347,2.2837,2.1818,2.0783,2.0033,1.9324,1.8617,1.7898,1.706,1.6537,1.6324,1.6111,1.5998,1.5891,1.5244,1.4487,1.3506,1.2091,1.0891,1.0025,0.9265,0.8602,0.8045,0.8045,0.7712,1.6826,1.7463,1.8257,1.9716,2.0877,2.1741,2.221,2.279,2.322,2.3083,2.2752,2.248,2.2643,2.2879,2.3249,2.3631,2.3918,2.4301,2.4849,2.4432,2.4084,2.3967,2.3599,2.3106,2.2681,2.283,2.3191,2.3952,2.5463,2.6445,2.671,2.8614,3.0122,3.1031,3.2296,3.3636,3.5086,3.5967,3.6963,3.8135,3.8435,3.9388,4.0918,4.154,4.1291,4.0481,4.1079,3.7637,3.1953,3.6476,3.5802,3.195,3.1873,3.1648,3.0893,2.6969,2.6077,2.6792,2.6452,2.6302,2.5991,2.4702,2.3112,2.1696,2.1629,1.9591,1.6886,1.5166,1.1981,0.9217,0.9809,1.1468,1.3327,1.4772,1.5739,1.7029,1.9154,1.9317,1.9678,2.2165,2.1338,2.0617,2.1988,2.2114,2.203,2.1827,2.2736,2.3347,2.3046,2.1607,2.0467,1.993,1.8916,1.7891,1.6961,1.6537,1.6217,1.6217,1.5998,1.5779,1.5458,1.4595,1.384,1.3181,1.1546,1.0566,1.0131,0.9261,0.8602,0.8045,0.8045,0.7712,1.6227,1.7001,1.7307,1.8065,1.9179,2.0205,2.0459,2.1008,2.1299,2.1019,2.1136,2.1226,2.0955,2.1097,2.1641,2.2986,2.3609,2.4154,2.4988,2.4657,2.4536,2.4968,2.4143,2.3497,2.3231,2.2872,2.3158,2.429,2.5426,2.6938,2.8862,3.0438,3.1171,3.1017,3.3789,3.5571,3.6184,3.8484,3.9528,3.9268,4.1007,4.1635,4.1243,4.2759,4.0078,3.4219,3.4472,3.1243,2.5744,2.5208,2.5372,2.5966,2.5697,2.4943,2.4019,2.3963,2.4401,2.5045,2.501,2.351,2.1365,2.0008,1.5637,1.0919,1.0644,1.4185,1.6956,1.0696,1.0667,1.2441,1.1775,1.3136,1.4569,1.4155,1.5201,1.6874,1.8455,1.9709,2.1183,2.3583,2.2785,2.1996,2.312,2.3029,2.2728,2.2224,2.3429,2.3935,2.2325,2.1404,2.0372,1.893,1.7569,1.663,1.6324,1.6324,1.6217,1.5891,1.5891,1.5351,1.4277,1.4169,1.3073,1.0781,1.0672,1.0131,0.8937,0.894,0.8602,0.8045,0.8045,0.7712,1.4924,1.5443,1.6026,1.7573,1.8701,1.9536,1.9977,2.0904,2.1488,2.107,2.106,2.1023,2.0753,2.0907,2.1374,2.2304,2.2897,2.365,2.4632,2.4624,2.4365,2.3994,2.2883,2.2317,2.2649,2.3294,2.3784,2.4146,2.6133,2.7535,2.8305,3.0504,3.2313,3.3584,3.5105,3.6862,3.8795,3.9393,4.0178,4.1069,4.1495,3.9939,3.6695,3.7152,3.4095,2.846,2.8851,2.5341,1.9655,2.4024,2.339,1.9781,2.1039,2.135,2.0084,1.2094,0.9349,1.0142,1.4439,1.5379,1.4615,1.3169,1.0954,0.8924,0.9221,1.0467,1.1653,1.0899,1.1272,1.2063,1.2727,1.342,1.3984,1.4341,1.56,1.7275,1.943,2.0893,2.2584,2.4992,2.4304,2.352,2.4026,2.3338,2.2736,2.2745,2.3338,2.3646,2.3338,2.2325,2.1191,1.9731,1.8394,1.7259,1.6324,1.6105,1.5998,1.5891,1.5891,1.5351,1.4277,1.3403,1.22,1.0781,0.9915,0.9261,0.894,0.894,0.8602,0.8045,0.7601,0.7385,1.4363,1.4662,1.5068,1.6838,1.7925,1.8603,1.902,2.0069,2.0858,2.0395,2.0359,2.036,2.0241,2.0329,2.0823,2.1913,2.2445,2.3077,2.4335,2.4169,2.372,2.3279,2.2435,2.1993,2.2199,2.3125,2.3975,2.4848,2.6559,2.8129,2.9376,3.1537,3.3557,3.537,3.6453,3.8142,4.038,4.0538,4.1217,4.2394,4.2595,3.9835,3.4573,3.4948,3.046,2.2443,2.3007,1.9411,0.0,1.779,1.7137,1.3614,1.4583,1.451,1.2845,0.5463,0.2401,0.259,0.7319,0.9859,1.0959,1.0019,0.9513,0.932,0.9698,0.9895,1.0288,1.2047,1.2829,1.3323,1.3794,1.419,1.4437,1.4503,1.5633,1.7295,1.914,2.0692,2.2421,2.4571,2.4223,2.3628,2.3935,2.3238,2.2745,2.3147,2.3247,2.3546,2.3854,2.2937,2.17,2.0135,1.8902,1.7569,1.6211,1.5998,1.5891,1.5891,1.5891,1.5131,1.3619,1.2852,1.1655,1.0021,0.9261,0.894,0.894,0.8716,0.838,0.7934,0.7487,0.7165,0.0,1.4512,1.4351,1.5771,1.687,1.7647,1.7741,1.8842,0.0,1.9182,1.9302,1.9487,1.9484,1.956,2.0196,2.1803,2.214,2.2687,2.4017,2.3279,2.2622,2.266,2.251,2.2414,2.2145,2.2616,2.392,2.6164,2.6951,2.871,3.186,3.3289,3.4805,3.6676,3.7932,3.943,4.1138,4.1862,4.2541,4.3304,4.3615,4.0307,3.3949,3.4338,2.7837,1.6272,1.6727,1.3426,0.7746,0.8254,0.8158,0.7669,0.6968,0.5448,0.3627,0.3324,0.2309,0.16,0.3806,0.6804,0.9702,0.9801,1.04,1.1189,1.1546,1.1838,1.2339,1.3902,1.5064,1.5547,1.4975,1.5261,1.5445,1.449,1.5467,1.6905,1.7745,1.9277,2.0948,2.2906,2.2811,2.2627,2.312,2.2736,2.2644,2.3138,2.3247,2.3447,2.3954,2.3138,2.1802,2.0135,1.9005,1.766,1.5992,1.5891,1.5891,1.5891,1.5779,1.4804,1.2526,1.2309,1.1223,0.8937,0.894,0.8937,0.8826,0.8269,0.8045,0.7934,0.749,0.7165,1.2329,0.0,1.3695,1.5005,1.6386,1.75,0.0,1.8619,1.9455,1.9231,1.9321,1.9345,1.9181,2.0125,2.1112,2.1643,2.2527,2.3227,2.3478,2.2668,2.1949,2.1784,2.1474,2.1747,2.2785,2.3523,2.4813,2.6843,2.7963,2.9942,3.3304,3.3799,3.5502,3.8814,3.9678,4.068,4.1859,4.263,4.3404,4.4126,3.8988,3.3708,2.8254,2.1959,1.6038,1.0581,0.8406,0.8076,0.9065,0.8378,0.6954,0.4924,0.2607,0.1202,0.0701,0.2111,0.2614,0.3111,0.5824,0.6639,0.6745,0.8319,0.9308,1.0391,1.2431,1.2834,1.2942,1.4867,1.5064,1.4777,1.535,1.4968,1.4388,1.4292,1.5177,1.6363,1.7362,1.9109,2.0875,2.2342,2.2512,2.2316,2.176,2.1481,2.1191,2.0861,2.1379,2.2005,2.2526,2.2013,2.1081,1.9834,1.8499,1.7259,1.5998,1.5891,1.5891,1.5891,1.503,1.3943,1.2417,1.1546,1.0457,0.8937,0.894,0.8826,0.8598,0.8156,0.7937,0.7718,0.7393,0.7182,1.09,1.1949,1.3172,1.4484,1.5664,1.6631,1.7313,1.8213,1.8955,1.918,1.946,1.9531,1.9097,1.9861,2.0686,2.119,2.1606,2.217,2.2746,2.2372,2.1977,2.161,2.1263,2.1272,2.1778,2.3594,2.5299,2.6795,2.9289,3.1754,3.4179,3.5759,3.7544,3.9562,4.1435,4.2501,4.2667,4.0442,3.9695,4.037,3.2937,2.6249,2.0297,1.5007,0.9837,0.5088,0.4698,0.4899,0.5497,0.6531,0.522,0.2103,0.01,-0.1906,-0.321,0.01,0.1809,0.2813,0.5329,0.6145,0.625,0.7733,0.8817,0.9998,1.194,1.2926,1.3619,1.5452,1.5445,1.5057,1.592,1.5248,1.4394,1.4873,1.5562,1.6278,1.6973,1.8252,1.9587,2.0876,2.1321,2.1309,2.0837,2.0775,2.0672,1.9937,2.0246,2.0664,2.1081,2.0869,2.0246,1.9013,1.8192,1.7259,1.5998,1.5891,1.5891,1.5891,1.5351,1.4159,1.2521,1.176,1.0676,0.8937,0.894,0.8712,0.8484,0.8273,0.7946,0.7727,0.7404,0.7192,0.9947,1.1038,1.2504,1.3974,1.4914,1.5708,1.6856,1.7711,1.8472,1.9174,1.9545,1.9645,1.9137,1.9398,1.9857,2.0717,2.067,2.0872,2.1764,2.2,2.1787,2.114,2.105,2.0934,2.0909,2.3449,2.5784,2.7432,3.0802,3.3571,3.5238,3.8096,3.9328,3.8602,4.1188,4.1762,4.0063,3.6212,3.3944,3.3182,2.5379,1.8642,1.2917,1.0215,0.609,0.1196,0.2589,0.229,0.0997,0.3097,0.2198,-0.06,-0.1908,-0.423,-0.6255,-0.2107,-0.0,0.1204,0.3924,0.5739,0.6942,0.7739,0.8722,0.9797,1.1253,1.2619,1.3902,1.5547,1.5737,1.5527,1.6109,1.554,1.4879,1.5547,1.5913,1.6265,1.6519,1.7195,1.8074,1.9109,1.9706,1.9977,1.9641,2.0033,2.0048,1.9213,1.922,1.942,1.962,1.962,1.9213,1.8094,1.7779,1.7147,1.5992,1.5785,1.5678,1.5678,1.5452,1.4261,1.1982,1.1873,1.0895,0.8937,0.894,0.8716,0.8374,0.8393,0.8069,0.7739,0.7304,0.7203,0.9887,1.0307,1.1017,1.3278,1.47,1.5803,1.6641,1.754,1.8474,1.9529,1.9213,1.8846,1.9343,1.9822,2.0359,2.0786,2.1839,2.2087,2.0498,2.0144,1.9728,1.8915,1.9388,2.0828,2.3374,2.4393,2.6918,3.1551,3.2255,3.4224,3.8538,3.9268,3.7954,3.445,3.3687,3.0614,2.4928,3.017,2.9263,2.2169,1.5204,1.1812,1.1525,0.3106,0.0486,0.2286,-0.2297,-0.1596,0.2387,-0.3004,-0.4219,-0.2907,-0.5233,-0.5634,-0.4716,-0.3707,-0.3207,-0.2106,0.3422,0.5944,0.693,0.7726,0.8612,0.969,1.1858,1.2446,1.2635,1.4394,1.5159,1.5343,1.5064,1.4879,1.479,1.5178,1.573,1.6204,1.6252,1.7046,1.7845,1.8037,1.8394,1.8368,1.7709,1.7603,1.745,1.6948,1.747,1.7989,1.8297,1.8094,1.7891,1.7687,1.6836,1.6099,1.5891,1.503,1.4487,1.4487,1.3506,1.1873,0.9482,0.9482,0.9265,0.894,0.894,0.8605,0.8045,0.8282,0.7958,0.7293,0.7198,0.7209,0.9271,1.0074,1.0925,1.2227,1.2995,1.3822,1.5166,1.6197,1.7185,1.8173,1.8728,1.8903,1.8555,1.8735,1.8883,1.8592,2.0042,2.0745,1.9434,1.9353,1.9315,1.9041,1.9484,2.0639,2.2909,2.4513,2.704,3.1171,3.3013,3.5633,3.9431,4.0831,3.8712,3.2519,3.2143,2.6799,1.5828,1.7542,1.7075,1.4234,0.6714,0.3211,0.316,-0.2119,-0.3806,-0.2691,-0.4207,-0.3904,-0.2491,-0.3407,-0.4418,-0.532,-0.4922,-0.4822,-0.472,-0.2305,-0.1003,0.0201,0.4126,0.5436,0.5427,0.6429,0.7816,0.9395,1.048,1.1853,1.3152,1.3889,1.4407,1.4867,1.5057,1.4975,1.4981,1.5363,1.592,1.6393,1.6393,1.6971,1.7604,1.7779,1.7855,1.7661,1.7183,1.7028,1.6749,1.6187,1.6418,1.6736,1.6836,1.6736,1.663,1.663,1.6205,1.5891,1.5891,1.4815,1.3948,1.329,1.2091,1.1,0.9915,0.9265,0.894,0.894,0.8712,0.8494,0.8168,0.8183,0.7862,0.7083,0.4489,0.3254,0.8687,0.9665,1.0719,1.1376,1.1794,1.2387,1.3589,1.4801,1.59,1.6725,1.7843,1.8438,1.7807,1.788,1.7742,1.6967,1.8293,1.9144,1.849,1.8716,1.9022,1.9159,1.9958,2.1106,2.2528,2.5296,2.82,3.1186,3.4465,3.7567,4.0366,4.0521,3.7082,2.9608,2.8201,2.1126,0.7633,0.5195,0.4645,0.5838,-0.0463,-0.3609,-0.4109,-0.5627,-0.6539,-0.6833,-0.5415,-0.5717,-0.6933,-0.3406,-0.3909,-0.6534,-0.4016,-0.3929,-0.4857,-0.1408,0.0605,0.1822,0.4131,0.4429,0.4026,0.5334,0.7123,0.9008,0.9343,1.1231,1.3263,1.3219,1.3446,1.3866,1.4684,1.4629,1.4586,1.5255,1.5825,1.6197,1.6298,1.6669,1.7116,1.717,1.698,1.6687,1.6544,1.642,1.616,1.5765,1.5849,1.5891,1.5891,1.5891,1.5891,1.5891,1.5891,1.5672,1.5131,1.4046,1.2856,1.1655,1.0785,1.0241,1.0241,0.9372,0.894,0.8947,0.8719,0.8501,0.8183,0.8202,0.7877,0.7094,0.2243,0.0,0.8452,0.8837,0.9409,1.1216,1.2358,1.296,1.2587,1.3852,1.5296,1.6128,1.6381,1.6807,1.7717,1.8134,1.8246,1.801,1.8398,1.849,1.7506,1.7772,1.7995,1.7803,2.0484,2.2758,2.3832,2.7883,3.1707,3.4771,3.7564,4.0217,4.2724,3.6114,2.9546,2.3623,1.6249,0.7668,-0.205,-0.3044,-0.4134,-0.5228,-0.6098,-0.6137,-0.5532,-0.6637,-0.6734,-0.6129,-0.6731,-0.7036,-0.7135,-0.5832,-0.5432,-0.5634,-0.4431,-0.4072,-0.4123,-0.3247,-0.2139,-0.0618,0.2028,0.3025,0.3525,0.5336,0.6933,0.8343,0.9895,1.0755,1.1309,1.204,1.2074,1.2103,1.333,1.2904,1.2635,1.41,1.4765,1.514,1.5432,1.5906,1.6103,1.5458,1.4898,1.4592,1.4831,1.4861,1.4885,1.51,1.5623,1.5891,1.5891,1.5891,1.5891,1.5891,1.5891,1.5018,1.2852,1.1655,1.0457,0.9265,0.9047,0.9047,0.9047,0.8937,0.895,0.886,0.886,0.8638,0.7979,0.8562,0.823,0.7094,0.2243,0.0,0.8094,0.827,0.8497,0.934,1.0425,1.1579,1.2417,1.3492,1.4484,1.4911,1.4847,1.4914,1.568,1.5639,1.5488,1.5634,1.549,1.5223,1.4692,1.5481,1.639,1.7299,2.0677,2.3844,2.6247,3.0591,3.4523,3.7718,3.9312,3.8958,3.6151,3.3073,2.5677,1.3152,0.9808,0.4546,-0.311,-0.4824,-0.6348,-0.7882,-0.6951,-0.6537,-0.6637,-0.6839,-0.6839,-0.6734,-0.6334,-0.6234,-0.6134,-0.5035,-0.5035,-0.5541,-0.4692,-0.3604,-0.2487,-0.1543,-0.1349,-0.105,0.2063,0.2788,0.2604,0.4794,0.645,0.7795,0.8364,0.9522,1.0806,1.1417,1.1172,1.0953,1.2001,1.2319,1.2548,1.3139,1.3516,1.3986,1.4376,1.4889,1.5196,1.5318,1.485,1.4583,1.5053,1.4607,1.4429,1.5276,1.537,1.5487,1.5867,1.5891,1.5672,1.4922,1.4153,1.3063,1.1437,1.1,1.0241,0.8937,0.894,0.894,0.894,0.8954,0.8853,0.8863,0.7051,0.6951,0.8562,0.8112,0.6072,0.2691,0.0897,0.0,0.684,0.6843,0.6888,0.707,0.8232,0.9594,1.0699,1.2066,1.3093,1.2763,1.3271,1.3678,1.3441,1.3812,1.3911,1.3305,1.3349,1.3408,1.3481,1.4783,1.6271,1.7634,2.1897,2.5535,2.7618,3.2916,3.7112,3.908,3.8309,3.5941,3.1753,2.6476,1.8398,0.704,0.4003,0.035,-0.4121,-0.5837,-0.7253,-0.8578,-0.7247,-0.7036,-0.7832,-0.7238,-0.7138,-0.7534,-0.6537,-0.6137,-0.6037,-0.5033,-0.4949,-0.539,-0.4973,-0.3773,-0.2214,-0.1361,-0.1374,-0.1285,0.1471,0.2211,0.2127,0.4576,0.6056,0.7109,0.7572,0.8751,0.9953,1.0111,0.9651,0.925,0.9542,1.0625,1.1774,1.2072,1.2463,1.2953,1.3358,1.3777,1.4184,1.4413,1.4257,1.41,1.4607,1.4304,1.4286,1.4872,1.5065,1.5163,1.5115,1.5138,1.4667,1.3506,1.2413,1.1345,1.0524,1.0323,0.9802,0.8858,0.8868,0.8845,0.8907,0.8858,0.8897,0.8904,0.6948,0.591,0.6116,0.5322,0.327,0.0,0.0,-0.0224,0.456,0.4514,0.436,0.4726,0.6051,0.7217,0.7018,0.9342,1.1028,0.9456,1.1592,1.3153,1.1331,1.3117,1.4148,1.1551,1.2428,1.3679,1.4276,1.6212,1.7905,1.8815,2.4395,2.8008,2.775,3.5003,3.9407,3.8694,3.4265,3.1418,3.0956,1.5509,0.6687,0.655,-0.1905,-0.6453,-0.6437,-0.6753,-0.7356,-0.8038,-0.7437,-0.7928,-0.9118,-0.7832,-0.7637,-0.8333,-0.7534,-0.7238,-0.7138,-0.6331,-0.5691,-0.5074,-0.5275,-0.4618,-0.3482,-0.3535,-0.28,-0.1528,-0.0,0.1065,0.2344,0.4902,0.5746,0.6068,0.7782,0.8481,0.8629,0.8094,0.7584,0.6816,0.5695,0.7504,0.9951,1.0966,1.1686,1.2103,1.2427,1.273,1.2828,1.2643,1.2545,1.2679,1.3057,1.3718,1.4167,1.3912,1.4708,1.495,1.3608,1.3497,1.3081,1.1655,1.0668,1.0082,1.0017,0.9274,0.8787,0.8583,0.8725,0.8897,0.8847,0.8881,0.8861,0.8883,0.8883,0.5854,0.0,0.0,0.0,-0.0,-0.0,-0.0673,0.5672,0.469,0.371,0.4279,0.4634,0.4809,0.4734,0.7307,0.9221,0.7524,0.9625,1.1169,0.891,1.0284,1.1707,1.18,1.2098,1.2727,1.386,1.5528,1.8008,2.1981,2.6107,3.0174,3.4135,3.9188,3.9905,3.4273,3.3054,2.6563,1.2784,0.8682,0.3052,-0.4906,-0.652,-0.755,-0.8075,-0.7045,-0.7441,-0.9057,-0.7042,-0.6933,-0.8627,-0.7633,-0.7338,-0.7537,-0.6731,-0.6331,-0.6337,-0.6217,-0.5555,-0.4878,-0.5776,-0.532,-0.4144,-0.4014,-0.3507,-0.2775,-0.0982,-0.0219,0.0331,0.2869,0.4746,0.6189,0.6772,0.7227,0.7459,0.6811,0.5806,0.5133,0.5359,0.6205,0.7231,0.8214,0.885,0.9503,1.0772,1.098,1.0966,1.1287,1.0958,1.0704,1.0975,1.1797,1.2341,1.2,1.27,1.3048,1.234,1.1599,1.098,1.0584,0.9695,0.905,0.8974,0.8762,0.7724,0.5864,0.7746,0.798,0.5942,0.7763,0.8877,0.8883,0.4833,0.1762,0.0,0.0,0.0,-0.0,-0.0918,-0.3197,0.3507,0.2456,0.169,0.178,0.2332,0.2902,0.2996,0.4872,0.6225,0.506,0.6805,0.7897,0.5512,0.6723,0.8504,0.9709,0.9238,1.012,1.3721,1.5871,1.8634,2.3202,2.8573,3.3241,3.6614,3.7984,3.6214,3.0337,2.533,1.661,0.2945,0.1442,-0.2288,-0.9465,-0.8425,-0.7846,-0.7972,-0.7141,-0.7434,-0.8954,-0.7241,-0.7135,-0.8333,-0.764,-0.7537,-0.7836,-0.719,-0.6807,-0.6718,-0.6894,-0.6548,-0.5932,-0.6753,-0.6277,-0.518,-0.5068,-0.3883,-0.2349,-0.1218,-0.0667,-0.0336,0.112,0.2574,0.4032,0.4931,0.5489,0.5599,0.5039,0.4474,0.4132,0.4026,0.425,0.4908,0.6394,0.7194,0.7892,0.8966,0.9151,0.9323,0.9969,0.9716,0.9541,0.981,1.0413,1.0828,1.0442,1.0699,1.0794,1.0443,0.9602,0.8993,0.8708,0.8543,0.7903,0.6756,0.7808,0.7805,0.5937,0.7782,0.8127,0.6364,0.5694,0.5341,0.5309,0.1884,0.0,0.0,0.0,-0.1163,-0.3582,-0.4235,-0.5814,-0.0294,-0.0778,-0.1056,-0.1594,-0.0343,0.1143,0.146,0.1994,0.2413,0.2329,0.3699,0.4074,0.1706,0.306,0.489,0.5935,0.4998,0.6308,1.2566,1.5268,1.7843,2.1053,2.9421,3.4643,3.3928,3.2239,2.9336,2.4833,1.3038,0.3778,-0.148,-0.5621,-0.8308,-0.9473,-0.8616,-0.7739,-0.7045,-0.7141,-0.7437,-0.8038,-0.7643,-0.7739,-0.8233,-0.7842,-0.8038,-0.8733,-0.8404,-0.8061,-0.7872,-0.8056,-0.8062,-0.7747,-0.7883,-0.7265,-0.6374,-0.6376,-0.436,-0.1455,-0.1007,-0.0448,0.0,0.0,0.0,0.0448,0.2685,0.3466,0.3353,0.3023,0.3473,0.3696,0.2131,0.2244,0.3139,0.5031,0.6253,0.7027,0.7138,0.7584,0.8029,0.8575,0.8686,0.8643,0.905,0.9356,0.9512,0.9262,0.8725,0.8344,0.8228,0.778,0.7129,0.6458,0.7003,0.6389,0.3834,0.6419,0.7856,0.7245,0.7765,0.8066,0.8054,0.2868,0.0,0.0,0.0,0.0,-0.0,-0.0461,-0.3545,-0.895,-0.8709,-0.8,0.2029,0.0384,-0.102,-0.0778,-0.0887,-0.1246,-0.197,-0.1701,-0.0808,0.0912,0.2351,0.2697,0.0547,0.1711,0.3056,0.3233,0.3348,0.3235,0.2853,0.3429,0.4475,0.6166,1.6126,2.0845,1.5755,2.3124,2.1872,0.6568,0.2855,-0.2488,-1.1111,-1.0432,-1.0364,-1.1521,-0.9891,-0.8836,-0.8564,-0.7441,-0.7235,-0.7939,-0.6833,-0.6734,-0.7437,-0.7739,-0.8038,-0.8144,-0.7991,-0.7849,-0.7766,-0.7627,-0.7522,-0.7533,-0.7665,-0.7382,-0.7043,-0.739,-0.6834,-0.5264,-0.1454,-0.0112,0.0,0.0,0.0,0.0224,0.1793,0.2242,0.2129,0.213,0.2131,0.2242,0.1907,0.1907,0.2131,0.2577,0.4362,0.6366,0.7257,0.7263,0.7043,0.7154,0.6599,0.6258,0.6564,0.7453,0.8121,0.8317,0.7455,0.6873,0.6873,0.6859,0.6338,0.5263,0.4102,0.3412,0.3783,0.2714,0.1887,0.1658,0.1889,0.1875,0.1967,0.0705,0.0,0.0,0.0,0.0,-0.0,-0.3753,-0.6805,-0.8904,-0.7377,-0.7312,0.1458,0.0075,-0.0772,-0.051,-0.2112,-0.365,-0.3379,-0.4168,-0.4355,-0.2074,-0.0539,-0.0358,-0.2611,-0.1893,-0.0454,0.1301,-0.1233,-0.2736,-0.058,-0.1155,-0.0935,0.1333,0.9263,1.3242,0.9921,1.2357,0.955,-0.1472,-0.4471,-0.876,-1.5544,-1.2485,-1.0854,-1.1531,-0.9891,-0.873,-0.8155,-0.7437,-0.7135,-0.7441,-0.6739,-0.6637,-0.7238,-0.7708,-0.7942,-0.785,-0.7855,-0.7734,-0.7648,-0.7533,-0.7393,-0.729,-0.7354,-0.7268,-0.7265,-0.7388,-0.7396,-0.6842,-0.4365,-0.2685,-0.1678,-0.1679,-0.1679,-0.1567,-0.1007,-0.056,-0.0224,0.0224,0.0336,0.056,0.157,0.202,0.2244,0.2244,0.3473,0.4921,0.559,0.5931,0.6049,0.6049,0.5714,0.5493,0.5601,0.6154,0.6594,0.6707,0.5859,0.5213,0.5098,0.4942,0.4645,0.3951,0.3043,0.2117,0.1294,0.0468,0.0,0.0,0.0,0.0,0.0,0.0,-0.1036,-0.3454,-0.3455,-0.2992,-0.2182,-0.4716,-0.6914,-0.8886,-0.7873,-0.7939,0.0556,-0.0443,-0.0853,-0.141,-0.3707,-0.5651,-0.4863,-0.6427,-0.7722,-0.685,-0.537,-0.4515,-0.546,-0.5705,-0.4876,-0.2008,-0.6789,-0.9212,-0.4528,-0.5545,-0.5884,-0.3454,0.2645,0.5927,0.4037,0.0961,-0.2667,-0.6836,-1.0651,-1.41,-1.6886,-1.316,-1.0956,-1.0858,-0.9505,-0.823,-0.7238,-0.7163,-0.7074,-0.6879,-0.6799,-0.6805,-0.711,-0.7446,-0.7586,-0.776,-0.7724,-0.7627,-0.7422,-0.7662,-0.749,-0.7265,-0.7376,-0.7376,-0.7154,-0.7154,-0.7165,-0.7065,-0.7182,-0.594,-0.4254,-0.4254,-0.4254,-0.4142,-0.3805,-0.3244,-0.2573,-0.1678,-0.1343,-0.0895,0.0784,0.157,0.1907,0.202,0.2578,0.3137,0.3475,0.426,0.4819,0.4819,0.4706,0.4592,0.4706,0.4706,0.4707,0.4819,0.4143,0.3582,0.3357,0.2944,0.2627,0.2516,0.2432,0.1401,-0.1402,-0.0692,-0.0114,-0.0114,-0.0226,-0.0224,-0.0112,-0.0561,-0.269,-0.6865,-0.7321,-0.6743,-0.5144,-0.5142,-0.6487,-0.8863,-0.8856,-0.8846,0.2916,0.0447,-0.2348,-0.4838,-0.5943,-0.6929,-0.909,-0.9393,-1.058,-1.539,-1.3669,-0.9822,-0.5018,-0.7344,-1.0059,-1.0249,-1.1066,-1.3399,-1.8358,-1.9341,-2.0133,-2.1745,-1.2034,-0.9054,-1.8729,-1.0096,-0.79,-1.765,-1.7303,-1.6411,-1.5974,-1.329,-1.1556,-1.117,-0.941,-0.8137,-0.7547,-0.716,-0.7012,-0.7015,-0.6596,-0.654,-0.6755,-0.6661,-0.692,-0.7458,-0.7408,-0.7411,-0.7422,-0.81,-0.7931,-0.7265,-0.8042,-0.782,-0.7154,-0.7154,-0.6821,-0.649,-0.7065,-0.6961,-0.674,-0.674,-0.674,-0.64,-0.4592,-0.3583,-0.2912,-0.2573,-0.2126,-0.1679,-0.1344,-0.1232,-0.112,-0.0561,0.0,0.1007,0.3138,0.3137,0.2575,0.2575,0.2014,0.1565,0.1791,0.1903,0.1903,0.224,0.2127,0.2127,0.2015,0.2019,0.1573,0.0562,0.0451,-0.0,-0.1129,-0.1014,-0.0788,-0.0788,-0.1235,-0.1346,-0.0785,-0.28,-0.4592,-0.6165,-0.7765,-0.8335,-0.7524,-0.7733,-0.8177,-0.8863,-0.8611,-0.8716,0.2192,-0.1035,-0.4002,-0.5758,-0.815,-1.0164,-1.0432,-1.2409,-1.4489,-1.5597,-1.9201,-2.0109,-1.3685,-1.3689,-1.4729,-1.5081,-1.6783,-1.8999,-2.1633,-2.3478,-2.4718,-2.5304,-2.0172,-1.8319,-2.2592,-1.7113,-1.4821,-1.849,-1.736,-1.5677,-1.368,-1.2237,-1.0974,-0.9706,-0.8531,-0.7743,-0.7144,-0.7579,-0.7476,-0.7131,-0.7608,-0.7425,-0.6798,-0.7457,-0.7457,-0.6934,-0.7219,-0.7517,-0.8069,-0.8348,-0.8263,-0.7931,-0.7928,-0.7485,-0.6707,-0.6262,-0.604,-0.5817,-0.6047,-0.6386,-0.6725,-0.6725,-0.6725,-0.6611,-0.6042,-0.5369,-0.4698,-0.4137,-0.3691,-0.3356,-0.2573,-0.2014,-0.168,-0.1457,-0.0896,-0.0224,0.0896,0.1231,0.1454,0.1454,0.1118,0.0894,0.1006,0.1118,0.1118,0.123,0.0895,0.056,0.056,0.0112,-0.0448,-0.0897,-0.1009,-0.1121,-0.1458,-0.1458,-0.1234,-0.0897,-0.1458,-0.2243,-0.3362,-0.4482,-0.5826,-0.7619,-0.8196,-0.8418,-0.8285,-0.839,-0.8611,-0.8843,-0.883,-0.9151,0.1951,-0.0931,-0.3442,-0.5826,-0.9322,-1.2206,-1.2343,-1.6014,-1.9198,-1.8098,-2.4619,-2.9119,-2.4377,-2.2151,-2.0983,-2.0872,-2.248,-2.38,-2.4013,-2.5277,-2.5863,-2.5031,-2.3993,-2.3028,-2.2129,-2.0486,-1.884,-1.7446,-1.5765,-1.3968,-1.2042,-1.0974,-0.9805,-0.8432,-0.7743,-0.7263,-0.6894,-0.7455,-0.7602,-0.741,-0.8056,-0.7843,-0.7096,-0.8059,-0.7889,-0.6915,-0.7555,-0.8149,-0.8706,-0.8927,-0.8927,-0.8592,-0.8036,-0.726,-0.6485,-0.5706,-0.526,-0.526,-0.5483,-0.5817,-0.6151,-0.6374,-0.6485,-0.6599,-0.7043,-0.6821,-0.6151,-0.559,-0.5367,-0.5031,-0.3913,-0.3131,-0.2797,-0.2909,-0.224,-0.1569,-0.1233,-0.0783,-0.0335,-0.0223,-0.0447,-0.0558,-0.0223,-0.0112,-0.0112,-0.0,-0.0559,-0.1008,-0.1008,-0.1681,-0.202,-0.202,-0.1908,-0.1907,-0.1907,-0.1795,-0.157,-0.1121,-0.1906,-0.3138,-0.4817,-0.5489,-0.6609,-0.8402,-0.8399,-0.8501,-0.8598,-0.8598,-0.8712,-0.894,-0.894,-0.9588,0.3816,0.2889,0.113,-0.5492,-0.8595,-1.1333,-1.6445,-2.0979,-2.4873,-2.7881,-3.1134,-3.3794,-3.4835,-3.2449,-3.019,-2.9875,-2.7524,-2.6676,-2.9343,-2.7129,-2.5031,-2.4368,-2.294,-2.2041,-2.2041,-1.9281,-1.7446,-1.7353,-1.4034,-1.2042,-1.195,-0.9801,-0.8528,-0.8432,-0.7341,-0.6903,-0.7027,-0.6422,-0.6803,-0.7913,-0.6914,-0.7019,-0.7898,-0.8014,-0.802,-0.802,-0.8913,-0.9361,-0.9471,-1.0249,-0.9915,-0.8813,-0.8582,-0.7922,-0.7043,-0.5817,-0.5037,-0.4702,-0.5817,-0.5929,-0.5594,-0.6821,-0.7154,-0.7154,-0.7154,-0.6821,-0.6374,-0.6932,-0.6707,-0.6262,-0.6151,-0.5704,-0.5369,-0.5926,-0.4702,-0.325,-0.2353,-0.3019,-0.3688,-0.3361,-0.4254,-0.4587,-0.3136,-0.2912,-0.2802,-0.258,-0.258,-0.258,-0.258,-0.2581,-0.2693,-0.2693,-0.2356,-0.2132,-0.2132,-0.1908,-0.1795,-0.1795,-0.3249,-0.3918,-0.3692,-0.5813,-0.7043,-0.7154,-0.8269,-0.883,-0.8826,-0.8826,-0.8937,-0.894,-0.894,-0.9588,0.4188,0.3602,0.257,-0.225,-0.6566,-1.0824,-1.5349,-2.1574,-2.7157,-2.9824,-3.4027,-3.7398,-3.8022,-3.6147,-3.3804,-3.157,-3.0162,-2.8814,-2.7145,-2.5948,-2.4584,-2.3018,-2.2306,-2.1203,-1.9182,-1.7995,-1.631,-1.4034,-1.2614,-1.1263,-0.9702,-0.8821,-0.8035,-0.7441,-0.7042,-0.7345,-0.8501,-0.819,-0.8357,-0.914,-0.9578,-0.9467,-0.8916,-0.9688,-1.0131,-1.0351,-1.0464,-1.0249,-0.9919,-1.0249,-1.0139,-0.9699,-0.9251,-0.8475,-0.759,-0.6811,-0.6146,-0.5706,-0.6151,-0.6482,-0.6816,-0.6707,-0.7041,-0.7374,-0.7265,-0.7152,-0.7038,-0.6707,-0.6818,-0.6927,-0.5929,-0.5817,-0.6149,-0.67,-0.6366,-0.5808,-0.547,-0.5691,-0.5695,-0.4923,-0.5148,-0.4925,-0.3698,-0.3474,-0.3363,-0.3251,-0.3139,-0.2915,-0.2915,-0.2805,-0.2693,-0.2693,-0.2357,-0.2244,-0.2244,-0.1908,-0.213,-0.2912,-0.347,-0.4474,-0.581,-0.6705,-0.7487,-0.8266,-0.8716,-0.894,-0.894,-0.894,-0.9265,-1.0021,-1.0021,-1.1214,0.4624,0.4417,0.3893,0.0138,-0.5009,-1.0527,-1.5428,-2.2855,-2.9537,-3.248,-3.6729,-3.9948,-4.0044,-3.9113,-3.7588,-3.5366,-3.3769,-3.1574,-2.8021,-2.6363,-2.4692,-2.2287,-2.1676,-2.0296,-1.7531,-1.6504,-1.4893,-1.2139,-1.1165,-0.9998,-0.8531,-0.8035,-0.7537,-0.6642,-0.6923,-0.7664,-0.8786,-0.868,-0.9047,-0.9911,-1.0574,-1.0574,-1.0131,-1.0798,-1.124,-1.1459,-1.1126,-1.0798,-1.0468,-1.0468,-1.0472,-1.0253,-0.9585,-0.8809,-0.8251,-0.747,-0.703,-0.6813,-0.7035,-0.7587,-0.7919,-0.759,-0.7922,-0.8254,-0.8146,-0.8146,-0.8254,-0.7479,-0.7811,-0.8143,-0.7035,-0.7257,-0.77,-0.7362,-0.7913,-0.8465,-0.8026,-0.7805,-0.7365,-0.6144,-0.5924,-0.559,-0.4369,-0.3921,-0.3587,-0.3587,-0.3362,-0.325,-0.325,-0.3139,-0.303,-0.303,-0.2692,-0.2468,-0.2356,-0.2132,-0.2466,-0.358,-0.4026,-0.5029,-0.7041,-0.7487,-0.8045,-0.8937,-0.894,-0.894,-0.9051,-0.894,-0.9592,-1.0781,-1.0781,-1.2295,0.0,0.0,0.0,0.1583,-0.3802,-0.994,-1.6924,-2.4879,-3.2057,-3.6346,-3.9356,-4.1276,-4.1355,-4.1593,-4.175,-4.1657,-3.8366,-3.4857,-3.2268,-2.8634,-2.5249,-2.2366,-2.0953,-1.9397,-1.7446,-1.4994,-1.3,-1.1945,-0.9702,-0.8432,-0.8432,-0.7437,-0.6745,-0.6445,-0.7288,-0.7737,-0.7747,-0.8004,-0.8803,-1.0253,-0.9695,-1.0241,-1.1568,-1.124,-1.1126,-1.1126,-1.0802,-1.0802,-1.1126,-1.1126,-1.0907,-1.0582,-0.9364,-0.892,-0.8809,-0.8023,-0.7689,-0.7799,-0.8682,-0.8903,-0.9016,-0.9574,-0.9798,-0.9798,-0.9798,-0.9798,-0.9798,-0.9471,-0.9578,-0.9798,-0.9471,-1.0025,-1.0135,-0.8241,-0.968,-1.1236,-0.9801,-0.9251,-0.8589,-0.736,-0.7138,-0.6808,-0.5704,-0.4479,-0.3699,-0.3699,-0.3587,-0.3587,-0.3587,-0.3587,-0.3587,-0.3587,-0.325,-0.3027,-0.2806,-0.2468,-0.269,-0.3692,-0.4804,-0.6031,-0.7152,-0.8266,-0.894,-0.894,-0.894,-0.9158,-0.9489,-0.9158,-0.9699,-1.1214,-1.1214,-1.2832,0.5504,0.0,0.0,0.0,0.0,0.0,-1.353,-2.0191,-2.667,-3.5809,-3.889,-4.0062,-4.0463,-3.9557,-3.8569,-3.8174,-3.6503,-3.3789,-2.9463,-2.7105,-2.4862,-2.2045,-2.0836,-1.9031,-1.5974,-1.4351,-1.2711,-1.0681,-0.9217,-0.8333,-0.8137,-0.8233,-0.8331,-0.855,-0.8632,-0.9142,-1.002,-0.99,-1.0337,-1.1455,-1.1345,-1.1345,-1.1568,-1.1459,-1.1345,-1.1126,-1.0802,-1.0692,-1.0802,-1.0802,-1.0802,-1.0692,-1.0359,-1.0249,-1.0139,-0.9911,-0.9691,-0.9471,-0.9801,-1.0131,-1.046,-0.9908,-1.0131,-1.0359,-0.9911,-1.0131,-1.0245,-0.9354,-0.957,-1.0014,-0.9798,-0.9908,-1.0127,-1.0457,-1.1013,-1.1459,-1.1126,-1.0907,-1.046,-0.9244,-0.8913,-0.8472,-0.7467,-0.5919,-0.4925,-0.5144,-0.4255,-0.3587,-0.3587,-0.3587,-0.3587,-0.3587,-0.325,-0.3362,-0.3921,-0.3918,-0.4583,-0.6366,-0.703,-0.7697,-0.8709,-0.9265,-0.9489,-0.9268,-1.0241,-1.0781,-1.0895,-1.0676,-1.1219,-1.2743,-1.4685,-1.5974,0.2214,0.2141,0.2044,0.153,0.0,0.0,-1.5844,-2.1674,-2.7474,-3.5744,-3.8286,-3.9089,-3.9257,-3.8146,-3.6753,-3.5403,-3.415,-3.2085,-2.8548,-2.6726,-2.4598,-2.1425,-2.0486,-1.8848,-1.5419,-1.407,-1.2657,-1.0803,-0.9717,-0.9253,-0.9322,-0.9423,-0.9517,-0.9819,-0.9696,-0.9991,-1.0736,-1.0923,-1.1346,-1.2005,-1.2005,-1.2005,-1.1896,-1.1678,-1.1568,-1.1455,-1.1021,-1.0911,-1.1131,-1.1131,-1.1021,-1.0911,-1.0911,-1.0911,-1.1131,-1.124,-1.1131,-1.1017,-1.1126,-1.1236,-1.1345,-1.0899,-1.1013,-1.1126,-1.0789,-1.1013,-1.1236,-1.0453,-1.0562,-1.0899,-1.0899,-1.0895,-1.1008,-1.1673,-1.1896,-1.1896,-1.1787,-1.2219,-1.2214,-1.0789,-1.0017,-0.9354,-0.8793,-0.736,-0.6364,-0.6473,-0.5256,-0.4369,-0.4369,-0.3923,-0.3587,-0.3587,-0.3474,-0.3696,-0.4589,-0.4697,-0.5586,-0.759,-0.7919,-0.8478,-0.9485,-0.9706,-0.9923,-1.0245,-1.1109,-1.2082,-1.3156,-1.2403,-1.2729,-1.425,-1.6405,-1.7384,-0.2929,-0.4228,-0.5285,-0.5216,-0.9215,0.0,-1.9667,-2.421,-2.8826,-3.4024,-3.5505,-3.5852,-3.5875,-3.5184,-3.396,-3.198,-3.0587,-2.9388,-2.8283,-2.6697,-2.4251,-2.0488,-1.9983,-1.8632,-1.5458,-1.4112,-1.2954,-1.1812,-1.1015,-1.0791,-1.1291,-1.0867,-1.0564,-1.0502,-1.0657,-1.0642,-1.0663,-1.1372,-1.1787,-1.2005,-1.2005,-1.2114,-1.2332,-1.1896,-1.1787,-1.1896,-1.135,-1.135,-1.1568,-1.1568,-1.1459,-1.1126,-1.1126,-1.135,-1.1678,-1.1896,-1.2005,-1.2005,-1.2223,-1.2219,-1.2005,-1.2005,-1.2005,-1.2005,-1.2005,-1.2219,-1.2327,-1.211,-1.2005,-1.2114,-1.2332,-1.2441,-1.2332,-1.211,-1.2219,-1.2332,-1.2219,-1.33,-1.3732,-1.2323,-1.1114,-1.0233,-1.0233,-0.8906,-0.7799,-0.7799,-0.6586,-0.5592,-0.5371,-0.4479,-0.3699,-0.3587,-0.3699,-0.4143,-0.5031,-0.5254,-0.6142,-0.814,-0.8251,-0.8809,-0.9812,-0.9926,-1.0464,-1.1542,-1.1864,-1.3156,-1.563,-1.4234,-1.4341,-1.563,-1.7041,-1.7582,0.0,0.0,0.0,0.0,0.0,0.0,0.0,-1.0781,-1.185,-2.2241,-2.1657,-1.999,-2.2258,-2.1654,-2.1179,-2.2391,-2.2659,-2.329,-2.4788,-2.4097,-2.2344,-1.9562,-1.8588,-1.7567,-1.6119,-1.419,-1.2998,-1.2832,-1.2347,-1.1935,-1.1728,-1.2006,-1.2178,-1.1976,-1.1875,-1.1893,-1.205,-1.22,-1.2219,-1.2332,-1.2332,-1.2223,-1.2114,-1.2005,-1.1787,-1.1678,-1.1568,-1.1568,-1.1568,-1.1568,-1.1568,-1.1459,-1.1459,-1.1568,-1.1568,-1.1678,-1.1787,-1.2005,-1.1787,-1.2005,-1.2332,-1.2114,-1.2005,-1.2005,-1.2223,-1.2223,-1.2114,-1.2332,-1.2332,-1.2332,-1.2436,-1.2441,-1.2436,-1.2332,-1.2332,-1.2654,-1.3516,-1.3954,-1.4379,-1.49,-1.3927,-1.3073,-1.329,-1.1105,-0.9354,-0.9354,-0.8134,-0.6697,-0.5592,-0.5148,-0.4702,-0.3699,-0.4479,-0.5369,-0.6255,-0.7476,-0.8589,-0.9809,-1.0029,-1.0139,-1.0147,-1.0363,-1.1013,-1.1873,-1.3922,-1.5749,-1.7147,-1.5962,-1.5968,-1.7153,-1.7477,-1.7582,0.0,0.0,0.0,-1.0688,0.0,0.0,0.0,0.0,-1.008,-1.6646,-1.4947,-1.2531,-1.3541,-1.4868,-1.6218,-1.7268,-1.7967,-1.8126,-1.757,-1.9788,-2.0741,-1.8532,-1.7561,-1.6614,-1.5332,-1.3791,-1.295,-1.3308,-1.3252,-1.3435,-1.3869,-1.3562,-1.3397,-1.3295,-1.2881,-1.2553,-1.2441,-1.2441,-1.2441,-1.2441,-1.2441,-1.2332,-1.2219,-1.211,-1.2005,-1.2005,-1.1896,-1.1896,-1.2005,-1.2005,-1.2005,-1.2005,-1.1896,-1.1896,-1.2001,-1.1896,-1.1896,-1.2001,-1.1896,-1.1896,-1.2005,-1.2005,-1.2005,-1.2005,-1.2114,-1.2223,-1.2219,-1.2332,-1.2441,-1.2465,-1.2573,-1.2521,-1.2574,-1.3327,-1.3381,-1.3624,-1.4798,-1.5446,-1.6086,-1.6617,-1.6187,-1.5334,-1.4379,-1.2856,-1.1546,-1.1008,-0.9574,-0.8247,-0.7476,-0.67,-0.6033,-0.5365,-0.5922,-0.67,-0.77,-0.8478,-0.9364,-1.0472,-1.0582,-1.0692,-1.0472,-1.0582,-1.1446,-1.3058,-1.5535,-1.7041,-1.7582,-1.7041,-1.7041,-1.7582,-1.7582,-1.7582,0.0,0.0,0.0,0.0,0.0,-1.3797,0.0,0.0,0.0,-1.1304,-0.9305,-0.7306,-0.6854,-0.9446,-1.197,-1.2757,-1.3685,-1.3295,-1.0495,-1.4878,-1.7932,-1.6477,-1.6155,-1.5491,-1.4274,-1.3311,-1.3149,-1.3691,-1.409,-1.4657,-1.5565,-1.4708,-1.4169,-1.4062,-1.3418,-1.2876,-1.2441,-1.2441,-1.2441,-1.2441,-1.255,-1.2654,-1.2762,-1.2649,-1.2861,-1.3083,-1.2861,-1.297,-1.3083,-1.3083,-1.2975,-1.2654,-1.2219,-1.2223,-1.2327,-1.2114,-1.2005,-1.2005,-1.2005,-1.1896,-1.1787,-1.2005,-1.2005,-1.2114,-1.2114,-1.2219,-1.2446,-1.2488,-1.2502,-1.255,-1.3097,-1.299,-1.3193,-1.457,-1.4658,-1.4804,-1.5974,-1.6935,-1.7687,-1.7898,-1.7898,-1.7259,-1.5232,-1.4482,-1.3722,-1.254,-1.1114,-1.0017,-0.9471,-0.8358,-0.747,-0.7138,-0.736,-0.8026,-0.892,-0.9144,-0.9695,-1.0692,-1.0692,-1.0692,-1.0692,-1.1126,-1.2091,-1.3706,-1.6074,-1.7259,-1.7259,-1.7259,-1.7364,-1.7582,-1.7582,-1.7582,0.0,0.0,0.0,0.0,-1.2228,0.0,0.0,0.0,-0.1183,-0.0228,0.0,0.1017,0.0,0.0,0.0,-0.5223,-0.7355,-0.8374,-0.7659,-0.9961,-1.1739,-1.1643,-1.3293,-1.4122,-1.3454,-1.3424,-1.3788,-1.4677,-1.4659,-1.4579,-1.4374,-1.4277,-1.3954,-1.3423,-1.2767,-1.2436,-1.2441,-1.2441,-1.2441,-1.2441,-1.2985,-1.3527,-1.4062,-1.468,-1.5209,-1.5541,-1.5737,-1.5743,-1.5535,-1.5535,-1.4905,-1.3846,-1.2762,-1.2219,-1.2114,-1.2332,-1.2223,-1.2005,-1.2005,-1.2114,-1.2219,-1.2114,-1.2114,-1.2327,-1.2327,-1.2332,-1.2479,-1.2673,-1.2729,-1.2995,-1.4312,-1.4426,-1.4581,-1.5811,-1.5947,-1.5968,-1.7153,-1.7477,-1.7898,-1.8959,-1.9063,-1.8743,-1.747,-1.6293,-1.5114,-1.3722,-1.329,-1.2309,-0.9688,-0.9467,-0.891,-0.7249,-0.8579,-0.9464,-0.9361,-1.0245,-1.0907,-1.1017,-1.0802,-1.0692,-1.0692,-1.263,-1.3383,-1.263,-1.4888,-1.6074,-1.6074,-1.6074,-1.6611,-1.7582,-1.7582,-1.7582,0.0,0.0,0.0,0.0,0.0,0.0,-0.3121,0.0,0.0917,0.0,0.0,0.0,0.0,0.0,0.0,0.0,-0.3538,-0.419,0.0,0.0,-1.0364,-1.0269,0.0,-1.1381,-1.2154,-1.2851,-1.3591,-1.4396,-1.4151,-1.4022,-1.4153,-1.4169,-1.3954,-1.3315,-1.3413,-1.3305,-1.2876,-1.3722,-1.4143,-1.4143,-1.4894,-1.5435,-1.5642,-1.5843,-1.5949,-1.6168,-1.6062,-1.5962,-1.5861,-1.5861,-1.5648,-1.512,-1.4583,-1.3506,-1.2219,-1.2219,-1.2114,-1.2005,-1.2005,-1.2114,-1.2223,-1.2223,-1.2327,-1.2569,-1.3451,-1.3172,-1.2783,-1.3765,-1.4051,-1.4215,-1.49,-1.5456,-1.6192,-1.7464,-1.7618,-1.7692,-1.8624,-1.8915,-1.8964,-1.9204,-1.9433,-1.9451,-1.8915,-1.7929,-1.6781,-1.5638,-1.4664,-1.3637,-1.253,-1.1466,-1.061,-0.9928,-1.041,-1.0794,-1.0684,-1.1126,-1.135,-1.1126,-1.0802,-1.0692,-1.0692,-1.2847,-1.3922,-1.3383,-1.4995,-1.5861,-1.5861,-1.5215,-1.5102,-1.5642,-1.6935,-1.7582,-2.1419,0.0,0.0,0.0,0.0,-0.5411,0.0,0.0,0.0,0.0,0.0,0.0,0.0,0.0,0.0,0.0,0.0,-0.218,0.0,-0.6828,0.0,0.0,0.0,0.0,0.0,-1.196,-1.2995,-1.4313,-1.3912,-1.3925,-1.4697,-1.4877,-1.4702,-1.4379,-1.4589,-1.4589,-1.4272,-1.5215,-1.5737,-1.5737,-1.6592,-1.7015,-1.7121,-1.7226,-1.7219,-1.7325,-1.7233,-1.7127,-1.7022,-1.7022,-1.681,-1.6499,-1.6499,-1.5215,-1.3295,-1.2762,-1.2545,-1.2432,-1.2219,-1.2114,-1.211,-1.2332,-1.2692,-1.3098,-1.392,-1.4013,-1.4111,-1.4891,-1.5291,-1.5688,-1.6293,-1.6966,-1.7709,-1.9057,-1.9104,-1.9132,-1.9721,-1.9828,-1.9798,-1.9477,-1.9674,-1.9923,-2.0011,-1.9276,-1.8292,-1.7401,-1.5929,-1.4771,-1.4493,-1.301,-1.2006,-1.1929,-1.2037,-1.1926,-1.1766,-1.1762,-1.1625,-1.1131,-1.1021,-1.0911,-1.0802,-1.2743,-1.3712,-1.3388,-1.4465,-1.5215,-1.5541,-1.4245,-1.3917,-1.4674,-1.5962,-1.6823,-1.9995,-1.8957,-1.7207,-1.2925,-0.9779,-0.7354,-0.6108,-0.6375,-0.5914,0.0,0.0,0.0,0.0,0.0,0.0,0.0,0.0,0.0,0.0,0.0,0.0,0.0,0.0,0.0,0.0,-1.0932,-1.1955,-1.4711,-1.4335,-1.4584,-1.6097,-1.6472,-1.6723,-1.6922,-1.6486,-1.6374,-1.6592,-1.6592,-1.6698,-1.6698,-1.7226,-1.7752,-1.8387,-1.9242,-1.9776,-1.9975,-2.0197,-2.0197,-1.9975,-1.9975,-1.9138,-1.7877,-1.7877,-1.7028,-1.5648,-1.4589,-1.3948,-1.3511,-1.2654,-1.2436,-1.2436,-1.2441,-1.3337,-1.4288,-1.3204,-1.4676,-1.6582,-1.5817,-1.6339,-1.7424,-1.9219,-1.9199,-1.9097,-2.0377,-2.0361,-2.0041,-1.9835,-2.0003,-2.0128,-1.9813,-2.0003,-2.0318,-2.064,-2.0317,-1.9771,-1.8651,-1.7414,-1.6074,-1.4627,-1.3611,-1.2822,-1.225,-1.2708,-1.2852,-1.232,-1.2306,-1.1886,-1.1139,-1.135,-1.1459,-1.1126,-1.2536,-1.2861,-1.1678,-1.2536,-1.3501,-1.4685,-1.3171,-1.3599,-1.5861,-1.4674,-1.4888,-1.7339,-1.6216,-1.462,-1.19,-1.011,-0.8536,-0.7084,-0.5679,-0.4724,0.0,0.0,0.0,0.0,0.0,0.0,0.0,0.0,0.0,0.0,0.0,0.0,0.0,0.0,0.0,0.0,0.0,0.0,0.0,-1.4607,-1.5179,-1.5658,-1.646,-1.6817,-1.6592,-1.6903,-1.7114,-1.7226,-1.8185,-1.8722,-1.8715,-1.9443,-1.9864,-2.0078,-2.0197,-2.0308,-2.0411,-2.03,-2.0189,-2.0086,-1.9879,-1.9569,-1.9042,-1.8101,-1.7891,-1.7884,-1.5968,-1.5221,-1.5114,-1.4793,-1.4685,-1.4685,-1.4685,-1.5281,-1.6174,-1.6459,-1.6918,-1.7408,-1.793,-1.8468,-1.907,-1.9639,-2.0401,-2.102,-2.1269,-2.1301,-2.1018,-2.0464,-2.0479,-2.0464,-2.0142,-2.0333,-2.0596,-2.0706,-2.092,-2.0874,-1.9835,-1.8165,-1.6738,-1.5881,-1.4259,-1.3121,-1.3031,-1.3035,-1.3041,-1.2857,-1.2501,-1.2172,-1.1877,-1.1753,-1.1568,-1.1459,-1.2644,-1.3073,-1.2753,-1.2856,-1.3068,-1.3501,-1.1987,-1.166,-1.2417,-1.2847,-1.403,-1.7228,-1.6195,-1.4422,-1.3365,-1.2375,-1.1265,-0.953,-0.7737,-0.673,-0.7688,-0.7198,0.0,0.0,0.0,0.0,0.0,0.0,0.0,0.0,-0.506,0.0,0.0,0.0,0.0,0.0,0.0,0.0,0.0,0.0,0.0,0.0,-1.7345,-1.7755,-1.764,-1.8283,-1.8596,-1.87,-1.9657,-2.0094,-2.0094,-2.0609,-2.0925,-2.0917,-2.0719,-2.0617,-2.0617,-2.0506,-2.0395,-2.0395,-2.0197,-2.0094,-1.9887,-1.8945,-1.8945,-1.916,-1.6817,-1.5861,-1.5861,-1.5861,-1.5861,-1.5879,-1.597,-1.6609,-1.7534,-1.7935,-1.8446,-1.8924,-1.9361,-1.9821,-2.0343,-2.0566,-2.1321,-2.1888,-2.1888,-2.1782,-2.1684,-2.1554,-2.1137,-2.0913,-2.1008,-2.0885,-2.0896,-2.1009,-2.1299,-2.1203,-2.0148,-1.8685,-1.7359,-1.625,-1.4727,-1.3567,-1.348,-1.3372,-1.3258,-1.3188,-1.2875,-1.2533,-1.242,-1.2181,-1.2108,-1.1997,-1.2764,-1.3206,-1.3206,-1.2798,-1.276,-1.3193,-1.1485,-1.0907,-1.1341,-1.2091,-1.3171]}]]